<?xml version='1.0' encoding='UTF-8'?><gpx version="1.1" creator="JPX - https://github.com/jenetics/jpx" xmlns="http://www.topografix.com/GPX/1/1"><trk><trkseg><trkpt lat="45.2355179" lon="9.0371127"><ele>67.0</ele><time>2026-03-22T07:57:29.587Z</time></trkpt><trkpt lat="45.2355899" lon="9.0370743"><ele>67.0</ele><time>2026-03-22T07:57:35.584Z</time></trkpt><trkpt lat="45.2356556" lon="9.0370606"><ele>67.0</ele><time>2026-03-22T07:57:40.574Z</time></trkpt><trkpt lat="45.2356999" lon="9.0369955"><ele>67.0</ele><time>2026-03-22T07:57:44.595Z</time></trkpt><trkpt lat="45.2357321" lon="9.0369175"><ele>67.0</ele><time>2026-03-22T07:57:48.592Z</time></trkpt><trkpt lat="45.235792" lon="9.0368314"><ele>67.0</ele><time>2026-03-22T07:57:59.576Z</time></trkpt><trkpt lat="45.2358277" lon="9.0367541"><ele>67.0</ele><time>2026-03-22T07:58:02.593Z</time></trkpt><trkpt lat="45.2358834" lon="9.0366803"><ele>67.0</ele><time>2026-03-22T07:58:05.588Z</time></trkpt><trkpt lat="45.2359384" lon="9.0366101"><ele>67.0</ele><time>2026-03-22T07:58:08.576Z</time></trkpt><trkpt lat="45.2359764" lon="9.0365254"><ele>67.0</ele><time>2026-03-22T07:58:11.581Z</time></trkpt><trkpt lat="45.2360155" lon="9.036453"><ele>67.0</ele><time>2026-03-22T07:58:14.578Z</time></trkpt><trkpt lat="45.2360656" lon="9.0363703"><ele>67.0</ele><time>2026-03-22T07:58:17.606Z</time></trkpt><trkpt lat="45.2361048" lon="9.0362865"><ele>67.0</ele><time>2026-03-22T07:58:20.575Z</time></trkpt><trkpt lat="45.2361482" lon="9.036208"><ele>67.0</ele><time>2026-03-22T07:58:23.606Z</time></trkpt><trkpt lat="45.2361886" lon="9.0361373"><ele>67.0</ele><time>2026-03-22T07:58:25.607Z</time></trkpt><trkpt lat="45.2362356" lon="9.0360702"><ele>67.0</ele><time>2026-03-22T07:58:27.599Z</time></trkpt><trkpt lat="45.2362837" lon="9.0360084"><ele>67.0</ele><time>2026-03-22T07:58:29.603Z</time></trkpt><trkpt lat="45.2363439" lon="9.035915"><ele>67.0</ele><time>2026-03-22T07:58:32.6Z</time></trkpt><trkpt lat="45.2363962" lon="9.0358062"><ele>67.0</ele><time>2026-03-22T07:58:35.573Z</time></trkpt><trkpt lat="45.2364357" lon="9.0357044"><ele>67.0</ele><time>2026-03-22T07:58:38.601Z</time></trkpt><trkpt lat="45.2364733" lon="9.0356117"><ele>67.16666666666666</ele><time>2026-03-22T07:58:41.598Z</time></trkpt><trkpt lat="45.2364944" lon="9.0355145"><ele>67.33333333333333</ele><time>2026-03-22T07:58:44.58Z</time></trkpt><trkpt lat="45.2365119" lon="9.0354062"><ele>67.5</ele><time>2026-03-22T07:58:47.582Z</time></trkpt><trkpt lat="45.2365115" lon="9.0352844"><ele>67.66666666666667</ele><time>2026-03-22T07:58:50.583Z</time></trkpt><trkpt lat="45.2365228" lon="9.035185"><ele>67.83333333333334</ele><time>2026-03-22T07:58:53.577Z</time></trkpt><trkpt lat="45.2364925" lon="9.035085"><ele>68.0</ele><time>2026-03-22T07:58:57.589Z</time></trkpt><trkpt lat="45.2364495" lon="9.0349901"><ele>67.83333333333334</ele><time>2026-03-22T07:59:01.579Z</time></trkpt><trkpt lat="45.2364456" lon="9.0348832"><ele>67.66666666666667</ele><time>2026-03-22T07:59:05.577Z</time></trkpt><trkpt lat="45.2365136" lon="9.034831"><ele>67.5</ele><time>2026-03-22T07:59:09.616Z</time></trkpt><trkpt lat="45.2365847" lon="9.034801"><ele>67.33333333333333</ele><time>2026-03-22T07:59:13.59Z</time></trkpt><trkpt lat="45.2366116" lon="9.0347106"><ele>67.16666666666666</ele><time>2026-03-22T07:59:17.585Z</time></trkpt><trkpt lat="45.236647" lon="9.0346067"><ele>67.0</ele><time>2026-03-22T07:59:21.584Z</time></trkpt><trkpt lat="45.2365399" lon="9.0347326"><ele>67.0</ele><time>2026-03-22T07:59:26.586Z</time></trkpt><trkpt lat="45.2364934" lon="9.0348134"><ele>67.0</ele><time>2026-03-22T07:59:27.598Z</time></trkpt><trkpt lat="45.2364366" lon="9.0348622"><ele>67.0</ele><time>2026-03-22T07:59:28.572Z</time></trkpt><trkpt lat="45.2363913" lon="9.0349316"><ele>67.0</ele><time>2026-03-22T07:59:31.619Z</time></trkpt><trkpt lat="45.2364257" lon="9.0350922"><ele>67.0</ele><time>2026-03-22T07:59:33.586Z</time></trkpt><trkpt lat="45.2364888" lon="9.0349087"><ele>67.5</ele><time>2026-03-22T07:59:35.583Z</time></trkpt><trkpt lat="45.2365365" lon="9.0348483"><ele>68.0</ele><time>2026-03-22T07:59:36.577Z</time></trkpt><trkpt lat="45.2366607" lon="9.0346181"><ele>68.5</ele><time>2026-03-22T07:59:37.571Z</time></trkpt><trkpt lat="45.2367501" lon="9.0345029"><ele>69.0</ele><time>2026-03-22T07:59:38.575Z</time></trkpt><trkpt lat="45.2368547" lon="9.0343953"><ele>69.0</ele><time>2026-03-22T07:59:40.576Z</time></trkpt><trkpt lat="45.2369555" lon="9.0342405"><ele>69.0</ele><time>2026-03-22T07:59:41.576Z</time></trkpt><trkpt lat="45.2370461" lon="9.0342153"><ele>69.0</ele><time>2026-03-22T07:59:42.576Z</time></trkpt><trkpt lat="45.2371183" lon="9.0342042"><ele>69.0</ele><time>2026-03-22T07:59:43.567Z</time></trkpt><trkpt lat="45.2372176" lon="9.0342391"><ele>69.0</ele><time>2026-03-22T07:59:45.573Z</time></trkpt><trkpt lat="45.2372936" lon="9.0342762"><ele>69.0</ele><time>2026-03-22T07:59:47.577Z</time></trkpt><trkpt lat="45.2373805" lon="9.0343168"><ele>69.0</ele><time>2026-03-22T07:59:50.578Z</time></trkpt><trkpt lat="45.2374345" lon="9.0342371"><ele>69.0</ele><time>2026-03-22T07:59:54.581Z</time></trkpt><trkpt lat="45.2374243" lon="9.0341355"><ele>69.0</ele><time>2026-03-22T07:59:57.659Z</time></trkpt><trkpt lat="45.2374301" lon="9.0340266"><ele>69.0</ele><time>2026-03-22T08:00:00.668Z</time></trkpt><trkpt lat="45.2374225" lon="9.0339217"><ele>69.0</ele><time>2026-03-22T08:00:03.579Z</time></trkpt><trkpt lat="45.2374176" lon="9.0338149"><ele>69.0</ele><time>2026-03-22T08:00:06.581Z</time></trkpt><trkpt lat="45.2374183" lon="9.0337249"><ele>69.0</ele><time>2026-03-22T08:00:09.577Z</time></trkpt><trkpt lat="45.2374192" lon="9.0336153"><ele>69.0</ele><time>2026-03-22T08:00:12.586Z</time></trkpt><trkpt lat="45.2374175" lon="9.0335064"><ele>69.0</ele><time>2026-03-22T08:00:15.575Z</time></trkpt><trkpt lat="45.2374221" lon="9.0334041"><ele>69.0</ele><time>2026-03-22T08:00:18.576Z</time></trkpt><trkpt lat="45.2374214" lon="9.0332897"><ele>69.0</ele><time>2026-03-22T08:00:21.584Z</time></trkpt><trkpt lat="45.2374388" lon="9.0331737"><ele>68.66666666666667</ele><time>2026-03-22T08:00:24.58Z</time></trkpt><trkpt lat="45.2374515" lon="9.033071"><ele>68.33333333333333</ele><time>2026-03-22T08:00:27.583Z</time></trkpt><trkpt lat="45.2374477" lon="9.0329636"><ele>68.0</ele><time>2026-03-22T08:00:30.581Z</time></trkpt><trkpt lat="45.2374259" lon="9.0328487"><ele>67.66666666666666</ele><time>2026-03-22T08:00:33.583Z</time></trkpt><trkpt lat="45.2374163" lon="9.0327549"><ele>67.33333333333333</ele><time>2026-03-22T08:00:35.583Z</time></trkpt><trkpt lat="45.2373909" lon="9.0326381"><ele>67.0</ele><time>2026-03-22T08:00:38.578Z</time></trkpt><trkpt lat="45.2373504" lon="9.0325426"><ele>66.83333333333333</ele><time>2026-03-22T08:00:41.594Z</time></trkpt><trkpt lat="45.2373164" lon="9.0324421"><ele>66.66666666666666</ele><time>2026-03-22T08:00:44.577Z</time></trkpt><trkpt lat="45.2372698" lon="9.0323431"><ele>66.5</ele><time>2026-03-22T08:00:47.589Z</time></trkpt><trkpt lat="45.2372166" lon="9.0322448"><ele>66.33333333333333</ele><time>2026-03-22T08:00:50.575Z</time></trkpt><trkpt lat="45.2371675" lon="9.0321617"><ele>66.16666666666667</ele><time>2026-03-22T08:00:53.576Z</time></trkpt><trkpt lat="45.2371096" lon="9.0321019"><ele>66.0</ele><time>2026-03-22T08:00:56.6Z</time></trkpt><trkpt lat="45.2370431" lon="9.0320323"><ele>66.33333333333333</ele><time>2026-03-22T08:00:59.58Z</time></trkpt><trkpt lat="45.2369832" lon="9.0319819"><ele>66.66666666666667</ele><time>2026-03-22T08:01:01.591Z</time></trkpt><trkpt lat="45.2369131" lon="9.0319121"><ele>67.0</ele><time>2026-03-22T08:01:04.603Z</time></trkpt><trkpt lat="45.2368419" lon="9.0318538"><ele>67.33333333333334</ele><time>2026-03-22T08:01:07.608Z</time></trkpt><trkpt lat="45.2367612" lon="9.0317784"><ele>67.66666666666667</ele><time>2026-03-22T08:01:10.593Z</time></trkpt><trkpt lat="45.2366963" lon="9.0317151"><ele>68.0</ele><time>2026-03-22T08:01:13.601Z</time></trkpt><trkpt lat="45.2366206" lon="9.0316756"><ele>68.0</ele><time>2026-03-22T08:01:16.59Z</time></trkpt><trkpt lat="45.2365402" lon="9.0316544"><ele>68.0</ele><time>2026-03-22T08:01:19.584Z</time></trkpt><trkpt lat="45.2364692" lon="9.0316166"><ele>68.0</ele><time>2026-03-22T08:01:22.607Z</time></trkpt><trkpt lat="45.2364116" lon="9.0315539"><ele>68.0</ele><time>2026-03-22T08:01:25.599Z</time></trkpt><trkpt lat="45.2363674" lon="9.0314605"><ele>68.0</ele><time>2026-03-22T08:01:28.594Z</time></trkpt><trkpt lat="45.2363289" lon="9.0313562"><ele>68.0</ele><time>2026-03-22T08:01:31.603Z</time></trkpt><trkpt lat="45.2362833" lon="9.0312315"><ele>67.83333333333334</ele><time>2026-03-22T08:01:34.579Z</time></trkpt><trkpt lat="45.236238" lon="9.0311366"><ele>67.66666666666667</ele><time>2026-03-22T08:01:37.58Z</time></trkpt><trkpt lat="45.2361833" lon="9.0310791"><ele>67.5</ele><time>2026-03-22T08:01:39.58Z</time></trkpt><trkpt lat="45.2361056" lon="9.0310091"><ele>67.33333333333333</ele><time>2026-03-22T08:01:42.576Z</time></trkpt><trkpt lat="45.2360351" lon="9.0309498"><ele>67.16666666666666</ele><time>2026-03-22T08:01:45.648Z</time></trkpt><trkpt lat="45.2359608" lon="9.0308862"><ele>67.0</ele><time>2026-03-22T08:01:48.581Z</time></trkpt><trkpt lat="45.2358802" lon="9.0308421"><ele>67.0</ele><time>2026-03-22T08:01:51.58Z</time></trkpt><trkpt lat="45.2358027" lon="9.0308116"><ele>67.0</ele><time>2026-03-22T08:01:54.585Z</time></trkpt><trkpt lat="45.2357173" lon="9.0307781"><ele>67.0</ele><time>2026-03-22T08:01:57.582Z</time></trkpt><trkpt lat="45.23566" lon="9.0307388"><ele>67.0</ele><time>2026-03-22T08:01:59.585Z</time></trkpt><trkpt lat="45.2355899" lon="9.030671"><ele>67.0</ele><time>2026-03-22T08:02:02.577Z</time></trkpt><trkpt lat="45.2355296" lon="9.0306031"><ele>67.0</ele><time>2026-03-22T08:02:05.592Z</time></trkpt><trkpt lat="45.2354648" lon="9.0305168"><ele>66.83333333333333</ele><time>2026-03-22T08:02:08.572Z</time></trkpt><trkpt lat="45.2354015" lon="9.030436"><ele>66.66666666666666</ele><time>2026-03-22T08:02:11.579Z</time></trkpt><trkpt lat="45.2353475" lon="9.0303472"><ele>66.5</ele><time>2026-03-22T08:02:14.581Z</time></trkpt><trkpt lat="45.2352859" lon="9.0302688"><ele>66.33333333333333</ele><time>2026-03-22T08:02:17.571Z</time></trkpt><trkpt lat="45.2352286" lon="9.0301826"><ele>66.16666666666667</ele><time>2026-03-22T08:02:20.577Z</time></trkpt><trkpt lat="45.2351561" lon="9.0301078"><ele>66.0</ele><time>2026-03-22T08:02:23.591Z</time></trkpt><trkpt lat="45.2350986" lon="9.03002"><ele>66.0</ele><time>2026-03-22T08:02:26.582Z</time></trkpt><trkpt lat="45.2350359" lon="9.0299333"><ele>66.0</ele><time>2026-03-22T08:02:29.583Z</time></trkpt><trkpt lat="45.2349705" lon="9.0298566"><ele>66.0</ele><time>2026-03-22T08:02:32.582Z</time></trkpt><trkpt lat="45.234906" lon="9.0297763"><ele>66.0</ele><time>2026-03-22T08:02:35.583Z</time></trkpt><trkpt lat="45.2348406" lon="9.0296899"><ele>66.0</ele><time>2026-03-22T08:02:38.581Z</time></trkpt><trkpt lat="45.2347707" lon="9.0296157"><ele>66.0</ele><time>2026-03-22T08:02:41.58Z</time></trkpt><trkpt lat="45.2347084" lon="9.0295302"><ele>66.0</ele><time>2026-03-22T08:02:44.589Z</time></trkpt><trkpt lat="45.2346438" lon="9.029457"><ele>66.0</ele><time>2026-03-22T08:02:47.594Z</time></trkpt><trkpt lat="45.2346052" lon="9.029351"><ele>66.0</ele><time>2026-03-22T08:02:50.586Z</time></trkpt><trkpt lat="45.2346168" lon="9.0292407"><ele>66.0</ele><time>2026-03-22T08:02:53.571Z</time></trkpt><trkpt lat="45.234637" lon="9.0291091"><ele>66.0</ele><time>2026-03-22T08:02:56.588Z</time></trkpt><trkpt lat="45.2346583" lon="9.0289912"><ele>66.0</ele><time>2026-03-22T08:02:59.588Z</time></trkpt><trkpt lat="45.2347047" lon="9.028884"><ele>66.0</ele><time>2026-03-22T08:03:02.574Z</time></trkpt><trkpt lat="45.2347453" lon="9.0287944"><ele>66.0</ele><time>2026-03-22T08:03:05.594Z</time></trkpt><trkpt lat="45.234786" lon="9.0286876"><ele>66.0</ele><time>2026-03-22T08:03:08.581Z</time></trkpt><trkpt lat="45.2348259" lon="9.028604"><ele>66.0</ele><time>2026-03-22T08:03:11.591Z</time></trkpt><trkpt lat="45.2348794" lon="9.0285468"><ele>66.0</ele><time>2026-03-22T08:03:14.58Z</time></trkpt><trkpt lat="45.2349618" lon="9.0285208"><ele>66.0</ele><time>2026-03-22T08:03:17.569Z</time></trkpt><trkpt lat="45.2350348" lon="9.0285067"><ele>66.0</ele><time>2026-03-22T08:03:20.657Z</time></trkpt><trkpt lat="45.23511" lon="9.0285164"><ele>66.0</ele><time>2026-03-22T08:03:23.577Z</time></trkpt><trkpt lat="45.2351732" lon="9.0285574"><ele>66.0</ele><time>2026-03-22T08:03:26.585Z</time></trkpt><trkpt lat="45.2352017" lon="9.0286667"><ele>66.0</ele><time>2026-03-22T08:03:30.574Z</time></trkpt><trkpt lat="45.235213" lon="9.028764"><ele>66.0</ele><time>2026-03-22T08:03:33.579Z</time></trkpt><trkpt lat="45.2352282" lon="9.0288839"><ele>66.0</ele><time>2026-03-22T08:03:36.577Z</time></trkpt><trkpt lat="45.2352701" lon="9.02899"><ele>66.0</ele><time>2026-03-22T08:03:39.576Z</time></trkpt><trkpt lat="45.2352999" lon="9.0290946"><ele>66.0</ele><time>2026-03-22T08:03:42.578Z</time></trkpt><trkpt lat="45.2353551" lon="9.0291728"><ele>66.0</ele><time>2026-03-22T08:03:45.569Z</time></trkpt><trkpt lat="45.2354412" lon="9.0292096"><ele>66.0</ele><time>2026-03-22T08:03:48.581Z</time></trkpt><trkpt lat="45.2355266" lon="9.029224"><ele>66.0</ele><time>2026-03-22T08:03:51.579Z</time></trkpt><trkpt lat="45.235606" lon="9.0292313"><ele>66.0</ele><time>2026-03-22T08:03:54.583Z</time></trkpt><trkpt lat="45.2356757" lon="9.0292397"><ele>66.5</ele><time>2026-03-22T08:03:57.576Z</time></trkpt><trkpt lat="45.2357521" lon="9.0292674"><ele>67.0</ele><time>2026-03-22T08:04:00.579Z</time></trkpt><trkpt lat="45.2358248" lon="9.0292472"><ele>67.5</ele><time>2026-03-22T08:04:03.571Z</time></trkpt><trkpt lat="45.2359002" lon="9.0292215"><ele>68.0</ele><time>2026-03-22T08:04:06.573Z</time></trkpt><trkpt lat="45.2359644" lon="9.0292259"><ele>68.5</ele><time>2026-03-22T08:04:08.575Z</time></trkpt><trkpt lat="45.2360528" lon="9.0292189"><ele>69.0</ele><time>2026-03-22T08:04:11.581Z</time></trkpt><trkpt lat="45.2361216" lon="9.029221"><ele>69.0</ele><time>2026-03-22T08:04:13.596Z</time></trkpt><trkpt lat="45.2361851" lon="9.0292268"><ele>69.0</ele><time>2026-03-22T08:04:15.57Z</time></trkpt><trkpt lat="45.2362633" lon="9.0292456"><ele>69.0</ele><time>2026-03-22T08:04:18.569Z</time></trkpt><trkpt lat="45.2363408" lon="9.0292802"><ele>69.0</ele><time>2026-03-22T08:04:21.577Z</time></trkpt><trkpt lat="45.2364043" lon="9.0292876"><ele>69.0</ele><time>2026-03-22T08:04:24.581Z</time></trkpt><trkpt lat="45.2364765" lon="9.0292904"><ele>69.0</ele><time>2026-03-22T08:04:27.579Z</time></trkpt><trkpt lat="45.2365407" lon="9.0293044"><ele>69.0</ele><time>2026-03-22T08:04:30.601Z</time></trkpt><trkpt lat="45.2366154" lon="9.0292741"><ele>68.85714285714286</ele><time>2026-03-22T08:04:33.601Z</time></trkpt><trkpt lat="45.2366559" lon="9.0291985"><ele>68.71428571428572</ele><time>2026-03-22T08:04:36.589Z</time></trkpt><trkpt lat="45.2367267" lon="9.0291735"><ele>68.57142857142857</ele><time>2026-03-22T08:04:38.584Z</time></trkpt><trkpt lat="45.2368005" lon="9.0291455"><ele>68.42857142857143</ele><time>2026-03-22T08:04:41.597Z</time></trkpt><trkpt lat="45.2368743" lon="9.0291748"><ele>68.28571428571428</ele><time>2026-03-22T08:04:45.594Z</time></trkpt><trkpt lat="45.2369427" lon="9.0291457"><ele>68.14285714285714</ele><time>2026-03-22T08:04:49.588Z</time></trkpt><trkpt lat="45.2370173" lon="9.0290872"><ele>68.0</ele><time>2026-03-22T08:04:52.597Z</time></trkpt><trkpt lat="45.2370961" lon="9.0290768"><ele>67.99999999999999</ele><time>2026-03-22T08:04:56.589Z</time></trkpt><trkpt lat="45.2371429" lon="9.029148"><ele>68.0</ele><time>2026-03-22T08:05:00.595Z</time></trkpt><trkpt lat="45.2372117" lon="9.029135"><ele>68.0</ele><time>2026-03-22T08:05:07.596Z</time></trkpt><trkpt lat="45.2372533" lon="9.02923"><ele>68.0</ele><time>2026-03-22T08:05:10.601Z</time></trkpt><trkpt lat="45.2372672" lon="9.0293268"><ele>68.0</ele><time>2026-03-22T08:05:14.598Z</time></trkpt><trkpt lat="45.2372875" lon="9.0294153"><ele>67.99999999999999</ele><time>2026-03-22T08:05:17.594Z</time></trkpt><trkpt lat="45.2372993" lon="9.0295058"><ele>68.0</ele><time>2026-03-22T08:05:20.603Z</time></trkpt><trkpt lat="45.237332" lon="9.0296169"><ele>68.14285714285714</ele><time>2026-03-22T08:05:24.596Z</time></trkpt><trkpt lat="45.2373452" lon="9.0297172"><ele>68.28571428571428</ele><time>2026-03-22T08:05:28.593Z</time></trkpt><trkpt lat="45.2373882" lon="9.0297993"><ele>68.42857142857143</ele><time>2026-03-22T08:05:34.57Z</time></trkpt><trkpt lat="45.2374536" lon="9.0297922"><ele>68.57142857142857</ele><time>2026-03-22T08:05:37.576Z</time></trkpt><trkpt lat="45.2374884" lon="9.029684"><ele>68.71428571428572</ele><time>2026-03-22T08:05:41.597Z</time></trkpt><trkpt lat="45.2375157" lon="9.0295983"><ele>68.85714285714286</ele><time>2026-03-22T08:05:44.572Z</time></trkpt><trkpt lat="45.2375861" lon="9.029536"><ele>69.0</ele><time>2026-03-22T08:05:48.591Z</time></trkpt><trkpt lat="45.2376495" lon="9.0295304"><ele>69.0</ele><time>2026-03-22T08:05:51.597Z</time></trkpt><trkpt lat="45.2377262" lon="9.0295031"><ele>69.0</ele><time>2026-03-22T08:05:54.591Z</time></trkpt><trkpt lat="45.2378022" lon="9.0294971"><ele>69.0</ele><time>2026-03-22T08:05:57.598Z</time></trkpt><trkpt lat="45.2378814" lon="9.0294947"><ele>69.0</ele><time>2026-03-22T08:06:00.594Z</time></trkpt><trkpt lat="45.2379595" lon="9.0294873"><ele>69.0</ele><time>2026-03-22T08:06:03.59Z</time></trkpt><trkpt lat="45.238046" lon="9.0294647"><ele>69.0</ele><time>2026-03-22T08:06:06.595Z</time></trkpt><trkpt lat="45.2381105" lon="9.0294459"><ele>68.66666666666667</ele><time>2026-03-22T08:06:09.603Z</time></trkpt><trkpt lat="45.2381888" lon="9.0294252"><ele>68.33333333333333</ele><time>2026-03-22T08:06:12.654Z</time></trkpt><trkpt lat="45.2382781" lon="9.0294052"><ele>68.0</ele><time>2026-03-22T08:06:15.585Z</time></trkpt><trkpt lat="45.2383431" lon="9.0293826"><ele>67.66666666666666</ele><time>2026-03-22T08:06:18.572Z</time></trkpt><trkpt lat="45.2383988" lon="9.0293386"><ele>67.33333333333333</ele><time>2026-03-22T08:06:21.571Z</time></trkpt><trkpt lat="45.2384714" lon="9.0292863"><ele>67.0</ele><time>2026-03-22T08:06:24.593Z</time></trkpt><trkpt lat="45.2385529" lon="9.0292457"><ele>67.0</ele><time>2026-03-22T08:06:27.571Z</time></trkpt><trkpt lat="45.2386352" lon="9.0292162"><ele>67.0</ele><time>2026-03-22T08:06:30.584Z</time></trkpt><trkpt lat="45.2387184" lon="9.0291931"><ele>67.0</ele><time>2026-03-22T08:06:33.572Z</time></trkpt><trkpt lat="45.2387999" lon="9.0291635"><ele>67.0</ele><time>2026-03-22T08:06:36.572Z</time></trkpt><trkpt lat="45.2388844" lon="9.0291236"><ele>67.0</ele><time>2026-03-22T08:06:39.582Z</time></trkpt><trkpt lat="45.238967" lon="9.029085"><ele>67.0</ele><time>2026-03-22T08:06:42.575Z</time></trkpt><trkpt lat="45.2390266" lon="9.0290495"><ele>66.83333333333333</ele><time>2026-03-22T08:06:44.574Z</time></trkpt><trkpt lat="45.2390898" lon="9.0290205"><ele>66.66666666666666</ele><time>2026-03-22T08:06:46.578Z</time></trkpt><trkpt lat="45.239177" lon="9.0290133"><ele>66.5</ele><time>2026-03-22T08:06:49.574Z</time></trkpt><trkpt lat="45.2392476" lon="9.0290856"><ele>66.33333333333333</ele><time>2026-03-22T08:06:52.574Z</time></trkpt><trkpt lat="45.2392887" lon="9.0292003"><ele>66.16666666666667</ele><time>2026-03-22T08:06:55.579Z</time></trkpt><trkpt lat="45.2393204" lon="9.0293183"><ele>66.0</ele><time>2026-03-22T08:06:58.574Z</time></trkpt><trkpt lat="45.2393451" lon="9.0294359"><ele>66.28571428571428</ele><time>2026-03-22T08:07:01.584Z</time></trkpt><trkpt lat="45.2393676" lon="9.0295525"><ele>66.57142857142857</ele><time>2026-03-22T08:07:04.576Z</time></trkpt><trkpt lat="45.239397" lon="9.0296654"><ele>66.85714285714286</ele><time>2026-03-22T08:07:07.584Z</time></trkpt><trkpt lat="45.2394123" lon="9.0297856"><ele>67.14285714285714</ele><time>2026-03-22T08:07:10.579Z</time></trkpt><trkpt lat="45.239426" lon="9.0298737"><ele>67.42857142857143</ele><time>2026-03-22T08:07:12.572Z</time></trkpt><trkpt lat="45.2394423" lon="9.0299601"><ele>67.71428571428571</ele><time>2026-03-22T08:07:14.573Z</time></trkpt><trkpt lat="45.2394549" lon="9.03005"><ele>68.0</ele><time>2026-03-22T08:07:16.575Z</time></trkpt><trkpt lat="45.2394731" lon="9.030175"><ele>69.33333333333334</ele><time>2026-03-22T08:07:19.577Z</time></trkpt><trkpt lat="45.2394895" lon="9.03027"><ele>70.66666666666667</ele><time>2026-03-22T08:07:21.581Z</time></trkpt><trkpt lat="45.2395017" lon="9.0303601"><ele>72.0</ele><time>2026-03-22T08:07:23.574Z</time></trkpt><trkpt lat="45.2395199" lon="9.0304855"><ele>73.33333333333333</ele><time>2026-03-22T08:07:26.598Z</time></trkpt><trkpt lat="45.2395443" lon="9.0306158"><ele>74.66666666666666</ele><time>2026-03-22T08:07:29.583Z</time></trkpt><trkpt lat="45.2395537" lon="9.0307051"><ele>76.0</ele><time>2026-03-22T08:07:31.578Z</time></trkpt><trkpt lat="45.2395763" lon="9.0308317"><ele>76.85714285714285</ele><time>2026-03-22T08:07:34.597Z</time></trkpt><trkpt lat="45.2396141" lon="9.0309345"><ele>77.71428571428572</ele><time>2026-03-22T08:07:37.576Z</time></trkpt><trkpt lat="45.2396644" lon="9.03099"><ele>78.57142857142857</ele><time>2026-03-22T08:07:39.579Z</time></trkpt><trkpt lat="45.2397241" lon="9.0310387"><ele>79.42857142857142</ele><time>2026-03-22T08:07:41.579Z</time></trkpt><trkpt lat="45.2397822" lon="9.0310872"><ele>80.28571428571428</ele><time>2026-03-22T08:07:43.577Z</time></trkpt><trkpt lat="45.2398566" lon="9.0311559"><ele>81.14285714285714</ele><time>2026-03-22T08:07:46.569Z</time></trkpt><trkpt lat="45.2399119" lon="9.0312123"><ele>82.0</ele><time>2026-03-22T08:07:48.578Z</time></trkpt><trkpt lat="45.2399883" lon="9.031293"><ele>82.0</ele><time>2026-03-22T08:07:51.575Z</time></trkpt><trkpt lat="45.2400392" lon="9.0313554"><ele>82.0</ele><time>2026-03-22T08:07:53.582Z</time></trkpt><trkpt lat="45.2400991" lon="9.031449"><ele>82.0</ele><time>2026-03-22T08:07:56.575Z</time></trkpt><trkpt lat="45.2401647" lon="9.0315373"><ele>82.0</ele><time>2026-03-22T08:07:59.581Z</time></trkpt><trkpt lat="45.2402357" lon="9.031607"><ele>82.0</ele><time>2026-03-22T08:08:02.642Z</time></trkpt><trkpt lat="45.2403029" lon="9.0316613"><ele>82.0</ele><time>2026-03-22T08:08:05.577Z</time></trkpt><trkpt lat="45.2403706" lon="9.0316017"><ele>82.0</ele><time>2026-03-22T08:08:08.575Z</time></trkpt><trkpt lat="45.2404173" lon="9.0315404"><ele>82.0</ele><time>2026-03-22T08:08:10.575Z</time></trkpt><trkpt lat="45.2404812" lon="9.0314363"><ele>82.0</ele><time>2026-03-22T08:08:13.587Z</time></trkpt><trkpt lat="45.2405349" lon="9.0313409"><ele>82.0</ele><time>2026-03-22T08:08:16.649Z</time></trkpt><trkpt lat="45.2405838" lon="9.0312397"><ele>82.0</ele><time>2026-03-22T08:08:19.579Z</time></trkpt><trkpt lat="45.2406236" lon="9.0311625"><ele>82.0</ele><time>2026-03-22T08:08:21.577Z</time></trkpt><trkpt lat="45.2406738" lon="9.0310954"><ele>82.0</ele><time>2026-03-22T08:08:23.591Z</time></trkpt><trkpt lat="45.2407207" lon="9.031032"><ele>82.0</ele><time>2026-03-22T08:08:25.578Z</time></trkpt><trkpt lat="45.2407734" lon="9.0309755"><ele>82.0</ele><time>2026-03-22T08:08:27.641Z</time></trkpt><trkpt lat="45.2408331" lon="9.0309217"><ele>82.0</ele><time>2026-03-22T08:08:29.642Z</time></trkpt><trkpt lat="45.2409097" lon="9.0308499"><ele>82.0</ele><time>2026-03-22T08:08:32.58Z</time></trkpt><trkpt lat="45.240993" lon="9.0307828"><ele>82.0</ele><time>2026-03-22T08:08:35.575Z</time></trkpt><trkpt lat="45.2410486" lon="9.0307354"><ele>80.83333333333333</ele><time>2026-03-22T08:08:37.589Z</time></trkpt><trkpt lat="45.2411002" lon="9.0306735"><ele>79.66666666666666</ele><time>2026-03-22T08:08:39.574Z</time></trkpt><trkpt lat="45.2411716" lon="9.0305897"><ele>78.5</ele><time>2026-03-22T08:08:42.585Z</time></trkpt><trkpt lat="45.2412458" lon="9.0305111"><ele>77.33333333333333</ele><time>2026-03-22T08:08:45.579Z</time></trkpt><trkpt lat="45.2413212" lon="9.0304321"><ele>76.16666666666667</ele><time>2026-03-22T08:08:48.587Z</time></trkpt><trkpt lat="45.2413725" lon="9.0303685"><ele>75.0</ele><time>2026-03-22T08:08:50.578Z</time></trkpt><trkpt lat="45.2414218" lon="9.0303042"><ele>75.28571428571428</ele><time>2026-03-22T08:08:52.575Z</time></trkpt><trkpt lat="45.2414765" lon="9.0302352"><ele>75.57142857142857</ele><time>2026-03-22T08:08:54.636Z</time></trkpt><trkpt lat="45.2415303" lon="9.0301639"><ele>75.85714285714286</ele><time>2026-03-22T08:08:56.578Z</time></trkpt><trkpt lat="45.2415854" lon="9.0301033"><ele>76.14285714285714</ele><time>2026-03-22T08:08:58.576Z</time></trkpt><trkpt lat="45.2416449" lon="9.03006"><ele>76.42857142857143</ele><time>2026-03-22T08:09:00.574Z</time></trkpt><trkpt lat="45.2417024" lon="9.0300144"><ele>76.71428571428571</ele><time>2026-03-22T08:09:02.577Z</time></trkpt><trkpt lat="45.2417637" lon="9.0299791"><ele>77.0</ele><time>2026-03-22T08:09:04.573Z</time></trkpt><trkpt lat="45.2418317" lon="9.0299337"><ele>77.0</ele><time>2026-03-22T08:09:06.587Z</time></trkpt><trkpt lat="45.2419057" lon="9.0298929"><ele>77.0</ele><time>2026-03-22T08:09:08.578Z</time></trkpt><trkpt lat="45.2419659" lon="9.029856"><ele>77.0</ele><time>2026-03-22T08:09:10.658Z</time></trkpt><trkpt lat="45.2420301" lon="9.0298251"><ele>77.0</ele><time>2026-03-22T08:09:12.57Z</time></trkpt><trkpt lat="45.2420915" lon="9.0297823"><ele>77.0</ele><time>2026-03-22T08:09:14.58Z</time></trkpt><trkpt lat="45.2421553" lon="9.029736"><ele>77.0</ele><time>2026-03-22T08:09:16.574Z</time></trkpt><trkpt lat="45.2422293" lon="9.0296846"><ele>77.0</ele><time>2026-03-22T08:09:18.585Z</time></trkpt><trkpt lat="45.2423027" lon="9.0296377"><ele>77.0</ele><time>2026-03-22T08:09:20.579Z</time></trkpt><trkpt lat="45.2423715" lon="9.0295882"><ele>77.0</ele><time>2026-03-22T08:09:22.573Z</time></trkpt><trkpt lat="45.2424477" lon="9.0295342"><ele>77.0</ele><time>2026-03-22T08:09:24.58Z</time></trkpt><trkpt lat="45.2425087" lon="9.0295032"><ele>77.0</ele><time>2026-03-22T08:09:26.589Z</time></trkpt><trkpt lat="45.2425653" lon="9.029463"><ele>77.0</ele><time>2026-03-22T08:09:28.599Z</time></trkpt><trkpt lat="45.2426212" lon="9.0294174"><ele>77.0</ele><time>2026-03-22T08:09:30.602Z</time></trkpt><trkpt lat="45.2426763" lon="9.0293647"><ele>77.0</ele><time>2026-03-22T08:09:32.591Z</time></trkpt><trkpt lat="45.2427346" lon="9.0293145"><ele>77.0</ele><time>2026-03-22T08:09:34.601Z</time></trkpt><trkpt lat="45.242794" lon="9.0292666"><ele>77.0</ele><time>2026-03-22T08:09:36.636Z</time></trkpt><trkpt lat="45.2428757" lon="9.0291976"><ele>77.0</ele><time>2026-03-22T08:09:39.581Z</time></trkpt><trkpt lat="45.2429367" lon="9.0290941"><ele>77.0</ele><time>2026-03-22T08:09:42.595Z</time></trkpt><trkpt lat="45.2429379" lon="9.0289991"><ele>77.0</ele><time>2026-03-22T08:09:44.599Z</time></trkpt><trkpt lat="45.2429266" lon="9.0289016"><ele>77.0</ele><time>2026-03-22T08:09:46.575Z</time></trkpt><trkpt lat="45.2429107" lon="9.0288123"><ele>77.0</ele><time>2026-03-22T08:09:48.648Z</time></trkpt><trkpt lat="45.2429" lon="9.0286771"><ele>77.0</ele><time>2026-03-22T08:09:51.581Z</time></trkpt><trkpt lat="45.2428973" lon="9.028567"><ele>77.0</ele><time>2026-03-22T08:09:53.571Z</time></trkpt><trkpt lat="45.242916" lon="9.0284687"><ele>77.0</ele><time>2026-03-22T08:09:55.582Z</time></trkpt><trkpt lat="45.2429556" lon="9.0283792"><ele>77.0</ele><time>2026-03-22T08:09:57.526Z</time></trkpt><trkpt lat="45.2430035" lon="9.0283071"><ele>77.0</ele><time>2026-03-22T08:09:59.576Z</time></trkpt><trkpt lat="45.2430431" lon="9.0282357"><ele>76.66666666666667</ele><time>2026-03-22T08:10:01.579Z</time></trkpt><trkpt lat="45.2430817" lon="9.0281588"><ele>76.33333333333334</ele><time>2026-03-22T08:10:03.587Z</time></trkpt><trkpt lat="45.2431188" lon="9.0280742"><ele>76.0</ele><time>2026-03-22T08:10:05.575Z</time></trkpt><trkpt lat="45.2431637" lon="9.0279935"><ele>75.66666666666667</ele><time>2026-03-22T08:10:07.568Z</time></trkpt><trkpt lat="45.2432405" lon="9.0278764"><ele>75.33333333333333</ele><time>2026-03-22T08:10:10.576Z</time></trkpt><trkpt lat="45.2432901" lon="9.0278017"><ele>75.0</ele><time>2026-03-22T08:10:12.522Z</time></trkpt><trkpt lat="45.2433419" lon="9.0277398"><ele>75.83333333333333</ele><time>2026-03-22T08:10:14.578Z</time></trkpt><trkpt lat="45.2434056" lon="9.0276557"><ele>76.66666666666667</ele><time>2026-03-22T08:10:17.59Z</time></trkpt><trkpt lat="45.2434682" lon="9.0275676"><ele>77.5</ele><time>2026-03-22T08:10:20.582Z</time></trkpt><trkpt lat="45.243528" lon="9.0275157"><ele>78.33333333333334</ele><time>2026-03-22T08:10:22.569Z</time></trkpt><trkpt lat="45.2435987" lon="9.0275099"><ele>79.16666666666667</ele><time>2026-03-22T08:10:24.578Z</time></trkpt><trkpt lat="45.2436646" lon="9.0275327"><ele>80.0</ele><time>2026-03-22T08:10:26.585Z</time></trkpt><trkpt lat="45.2437361" lon="9.0275696"><ele>80.0</ele><time>2026-03-22T08:10:28.58Z</time></trkpt><trkpt lat="45.2437993" lon="9.0276159"><ele>80.0</ele><time>2026-03-22T08:10:30.583Z</time></trkpt><trkpt lat="45.2438595" lon="9.0276675"><ele>80.0</ele><time>2026-03-22T08:10:32.579Z</time></trkpt><trkpt lat="45.2439196" lon="9.027726"><ele>80.0</ele><time>2026-03-22T08:10:34.589Z</time></trkpt><trkpt lat="45.243978" lon="9.0277886"><ele>80.0</ele><time>2026-03-22T08:10:36.58Z</time></trkpt><trkpt lat="45.2440336" lon="9.0278515"><ele>80.0</ele><time>2026-03-22T08:10:38.574Z</time></trkpt><trkpt lat="45.2440889" lon="9.0279117"><ele>80.0</ele><time>2026-03-22T08:10:40.587Z</time></trkpt><trkpt lat="45.2441498" lon="9.0279717"><ele>80.0</ele><time>2026-03-22T08:10:42.657Z</time></trkpt><trkpt lat="45.2442057" lon="9.0280276"><ele>80.0</ele><time>2026-03-22T08:10:44.585Z</time></trkpt><trkpt lat="45.2442672" lon="9.0280862"><ele>80.0</ele><time>2026-03-22T08:10:46.582Z</time></trkpt><trkpt lat="45.2443275" lon="9.0281363"><ele>80.0</ele><time>2026-03-22T08:10:48.579Z</time></trkpt><trkpt lat="45.2443876" lon="9.0281923"><ele>80.0</ele><time>2026-03-22T08:10:50.583Z</time></trkpt><trkpt lat="45.2444518" lon="9.0282397"><ele>80.0</ele><time>2026-03-22T08:10:52.582Z</time></trkpt><trkpt lat="45.2445146" lon="9.028288"><ele>80.0</ele><time>2026-03-22T08:10:54.576Z</time></trkpt><trkpt lat="45.2445734" lon="9.0283317"><ele>80.0</ele><time>2026-03-22T08:10:56.583Z</time></trkpt><trkpt lat="45.2446302" lon="9.0283834"><ele>80.0</ele><time>2026-03-22T08:10:58.578Z</time></trkpt><trkpt lat="45.2446875" lon="9.0284376"><ele>80.0</ele><time>2026-03-22T08:11:00.589Z</time></trkpt><trkpt lat="45.2447413" lon="9.0284903"><ele>80.0</ele><time>2026-03-22T08:11:02.578Z</time></trkpt><trkpt lat="45.2448061" lon="9.0285424"><ele>80.0</ele><time>2026-03-22T08:11:04.58Z</time></trkpt><trkpt lat="45.244864" lon="9.0285872"><ele>80.0</ele><time>2026-03-22T08:11:06.578Z</time></trkpt><trkpt lat="45.2449208" lon="9.028635"><ele>80.0</ele><time>2026-03-22T08:11:08.582Z</time></trkpt><trkpt lat="45.2449837" lon="9.0286896"><ele>80.14285714285714</ele><time>2026-03-22T08:11:10.577Z</time></trkpt><trkpt lat="45.2450453" lon="9.0287382"><ele>80.28571428571429</ele><time>2026-03-22T08:11:12.575Z</time></trkpt><trkpt lat="45.2451089" lon="9.0287868"><ele>80.42857142857143</ele><time>2026-03-22T08:11:14.577Z</time></trkpt><trkpt lat="45.2451671" lon="9.0288409"><ele>80.57142857142857</ele><time>2026-03-22T08:11:16.575Z</time></trkpt><trkpt lat="45.2452267" lon="9.0289009"><ele>80.71428571428571</ele><time>2026-03-22T08:11:18.57Z</time></trkpt><trkpt lat="45.2452903" lon="9.0289511"><ele>80.85714285714286</ele><time>2026-03-22T08:11:20.575Z</time></trkpt><trkpt lat="45.2453518" lon="9.0290097"><ele>81.0</ele><time>2026-03-22T08:11:22.578Z</time></trkpt><trkpt lat="45.2454168" lon="9.0290547"><ele>81.0</ele><time>2026-03-22T08:11:24.583Z</time></trkpt><trkpt lat="45.2454819" lon="9.0291152"><ele>81.0</ele><time>2026-03-22T08:11:26.584Z</time></trkpt><trkpt lat="45.2455445" lon="9.0291796"><ele>81.0</ele><time>2026-03-22T08:11:28.58Z</time></trkpt><trkpt lat="45.2456082" lon="9.0292371"><ele>81.0</ele><time>2026-03-22T08:11:30.58Z</time></trkpt><trkpt lat="45.2456773" lon="9.0292958"><ele>81.0</ele><time>2026-03-22T08:11:32.579Z</time></trkpt><trkpt lat="45.2457402" lon="9.0293456"><ele>81.0</ele><time>2026-03-22T08:11:34.65Z</time></trkpt><trkpt lat="45.2458021" lon="9.0293911"><ele>81.42857142857143</ele><time>2026-03-22T08:11:36.634Z</time></trkpt><trkpt lat="45.2458763" lon="9.0294597"><ele>81.85714285714286</ele><time>2026-03-22T08:11:39.572Z</time></trkpt><trkpt lat="45.2459438" lon="9.0294778"><ele>82.28571428571428</ele><time>2026-03-22T08:11:42.592Z</time></trkpt><trkpt lat="45.2460066" lon="9.0294043"><ele>82.71428571428572</ele><time>2026-03-22T08:11:45.586Z</time></trkpt><trkpt lat="45.2460493" lon="9.02933"><ele>83.14285714285714</ele><time>2026-03-22T08:11:47.584Z</time></trkpt><trkpt lat="45.2460861" lon="9.0292553"><ele>83.57142857142857</ele><time>2026-03-22T08:11:49.573Z</time></trkpt><trkpt lat="45.2461236" lon="9.0291722"><ele>84.0</ele><time>2026-03-22T08:11:51.572Z</time></trkpt><trkpt lat="45.2461525" lon="9.0290893"><ele>84.0</ele><time>2026-03-22T08:11:53.576Z</time></trkpt><trkpt lat="45.246178" lon="9.0290028"><ele>84.0</ele><time>2026-03-22T08:11:55.601Z</time></trkpt><trkpt lat="45.2462075" lon="9.0289183"><ele>84.0</ele><time>2026-03-22T08:11:57.587Z</time></trkpt><trkpt lat="45.2462321" lon="9.0288302"><ele>84.0</ele><time>2026-03-22T08:11:59.573Z</time></trkpt><trkpt lat="45.2462626" lon="9.0287013"><ele>84.0</ele><time>2026-03-22T08:12:02.583Z</time></trkpt><trkpt lat="45.2462878" lon="9.0286095"><ele>84.0</ele><time>2026-03-22T08:12:04.574Z</time></trkpt><trkpt lat="45.246316" lon="9.0285213"><ele>84.0</ele><time>2026-03-22T08:12:06.573Z</time></trkpt><trkpt lat="45.2463449" lon="9.028426"><ele>84.0</ele><time>2026-03-22T08:12:08.574Z</time></trkpt><trkpt lat="45.2463655" lon="9.0283406"><ele>84.0</ele><time>2026-03-22T08:12:10.578Z</time></trkpt><trkpt lat="45.2463835" lon="9.0282497"><ele>84.0</ele><time>2026-03-22T08:12:12.574Z</time></trkpt><trkpt lat="45.246408" lon="9.028156"><ele>84.0</ele><time>2026-03-22T08:12:14.572Z</time></trkpt><trkpt lat="45.2464322" lon="9.0280653"><ele>84.0</ele><time>2026-03-22T08:12:16.574Z</time></trkpt><trkpt lat="45.2464503" lon="9.0279773"><ele>84.0</ele><time>2026-03-22T08:12:18.588Z</time></trkpt><trkpt lat="45.246473" lon="9.0278886"><ele>84.0</ele><time>2026-03-22T08:12:20.587Z</time></trkpt><trkpt lat="45.2464896" lon="9.0277865"><ele>84.42857142857143</ele><time>2026-03-22T08:12:22.579Z</time></trkpt><trkpt lat="45.2465079" lon="9.0276982"><ele>84.85714285714286</ele><time>2026-03-22T08:12:24.583Z</time></trkpt><trkpt lat="45.2465318" lon="9.0276133"><ele>85.28571428571428</ele><time>2026-03-22T08:12:26.576Z</time></trkpt><trkpt lat="45.2465521" lon="9.027524"><ele>85.71428571428572</ele><time>2026-03-22T08:12:28.583Z</time></trkpt><trkpt lat="45.2465656" lon="9.0274287"><ele>86.14285714285714</ele><time>2026-03-22T08:12:30.579Z</time></trkpt><trkpt lat="45.2465823" lon="9.027334"><ele>86.57142857142857</ele><time>2026-03-22T08:12:32.576Z</time></trkpt><trkpt lat="45.246593" lon="9.0272363"><ele>87.0</ele><time>2026-03-22T08:12:34.578Z</time></trkpt><trkpt lat="45.2465993" lon="9.0271445"><ele>87.0</ele><time>2026-03-22T08:12:36.572Z</time></trkpt><trkpt lat="45.2466283" lon="9.0270289"><ele>87.0</ele><time>2026-03-22T08:12:38.576Z</time></trkpt><trkpt lat="45.2466479" lon="9.0269229"><ele>87.0</ele><time>2026-03-22T08:12:40.581Z</time></trkpt><trkpt lat="45.246669" lon="9.0268313"><ele>87.0</ele><time>2026-03-22T08:12:42.581Z</time></trkpt><trkpt lat="45.24669" lon="9.0267461"><ele>87.0</ele><time>2026-03-22T08:12:44.575Z</time></trkpt><trkpt lat="45.2467155" lon="9.026656"><ele>87.0</ele><time>2026-03-22T08:12:46.575Z</time></trkpt><trkpt lat="45.2467446" lon="9.026565"><ele>87.0</ele><time>2026-03-22T08:12:48.575Z</time></trkpt><trkpt lat="45.2467774" lon="9.0264804"><ele>86.57142857142857</ele><time>2026-03-22T08:12:50.58Z</time></trkpt><trkpt lat="45.2468309" lon="9.0264139"><ele>86.14285714285714</ele><time>2026-03-22T08:12:52.662Z</time></trkpt><trkpt lat="45.2468893" lon="9.0263776"><ele>85.71428571428572</ele><time>2026-03-22T08:12:54.573Z</time></trkpt><trkpt lat="45.2469628" lon="9.0263854"><ele>85.28571428571428</ele><time>2026-03-22T08:12:56.584Z</time></trkpt><trkpt lat="45.2470326" lon="9.0264181"><ele>84.85714285714286</ele><time>2026-03-22T08:12:58.572Z</time></trkpt><trkpt lat="45.2470946" lon="9.0264566"><ele>84.42857142857143</ele><time>2026-03-22T08:13:00.579Z</time></trkpt><trkpt lat="45.2471598" lon="9.0265039"><ele>84.0</ele><time>2026-03-22T08:13:02.578Z</time></trkpt><trkpt lat="45.2472247" lon="9.0265449"><ele>84.0</ele><time>2026-03-22T08:13:04.575Z</time></trkpt><trkpt lat="45.2472884" lon="9.0265919"><ele>84.0</ele><time>2026-03-22T08:13:06.577Z</time></trkpt><trkpt lat="45.2473532" lon="9.0266378"><ele>84.0</ele><time>2026-03-22T08:13:08.579Z</time></trkpt><trkpt lat="45.247415" lon="9.0266912"><ele>84.0</ele><time>2026-03-22T08:13:10.577Z</time></trkpt><trkpt lat="45.2474756" lon="9.0267408"><ele>84.0</ele><time>2026-03-22T08:13:12.583Z</time></trkpt><trkpt lat="45.2475391" lon="9.026782"><ele>84.0</ele><time>2026-03-22T08:13:14.582Z</time></trkpt><trkpt lat="45.2475989" lon="9.0268257"><ele>84.0</ele><time>2026-03-22T08:13:16.573Z</time></trkpt><trkpt lat="45.2476609" lon="9.026878"><ele>84.57142857142857</ele><time>2026-03-22T08:13:18.575Z</time></trkpt><trkpt lat="45.2477158" lon="9.0269371"><ele>85.14285714285714</ele><time>2026-03-22T08:13:20.577Z</time></trkpt><trkpt lat="45.2477758" lon="9.0269921"><ele>85.71428571428572</ele><time>2026-03-22T08:13:22.577Z</time></trkpt><trkpt lat="45.2478331" lon="9.0270465"><ele>86.28571428571428</ele><time>2026-03-22T08:13:24.576Z</time></trkpt><trkpt lat="45.2478903" lon="9.027101"><ele>86.85714285714286</ele><time>2026-03-22T08:13:26.577Z</time></trkpt><trkpt lat="45.2479538" lon="9.0271493"><ele>87.42857142857143</ele><time>2026-03-22T08:13:28.577Z</time></trkpt><trkpt lat="45.2480146" lon="9.0271983"><ele>88.0</ele><time>2026-03-22T08:13:30.574Z</time></trkpt><trkpt lat="45.2480778" lon="9.0272474"><ele>88.0</ele><time>2026-03-22T08:13:32.578Z</time></trkpt><trkpt lat="45.2481407" lon="9.0273014"><ele>88.0</ele><time>2026-03-22T08:13:34.581Z</time></trkpt><trkpt lat="45.2481985" lon="9.0273563"><ele>88.0</ele><time>2026-03-22T08:13:36.581Z</time></trkpt><trkpt lat="45.2482605" lon="9.0274108"><ele>88.0</ele><time>2026-03-22T08:13:38.573Z</time></trkpt><trkpt lat="45.2483247" lon="9.0274698"><ele>88.0</ele><time>2026-03-22T08:13:40.576Z</time></trkpt><trkpt lat="45.248389" lon="9.0275149"><ele>88.0</ele><time>2026-03-22T08:13:42.569Z</time></trkpt><trkpt lat="45.2484541" lon="9.0275561"><ele>88.0</ele><time>2026-03-22T08:13:44.579Z</time></trkpt><trkpt lat="45.2485308" lon="9.027609"><ele>88.0</ele><time>2026-03-22T08:13:46.584Z</time></trkpt><trkpt lat="45.2485965" lon="9.0276478"><ele>88.0</ele><time>2026-03-22T08:13:48.573Z</time></trkpt><trkpt lat="45.2486661" lon="9.0276926"><ele>88.0</ele><time>2026-03-22T08:13:50.574Z</time></trkpt><trkpt lat="45.2487404" lon="9.027724"><ele>88.0</ele><time>2026-03-22T08:13:52.571Z</time></trkpt><trkpt lat="45.2488154" lon="9.0277451"><ele>88.0</ele><time>2026-03-22T08:13:54.576Z</time></trkpt><trkpt lat="45.2488818" lon="9.027764"><ele>88.0</ele><time>2026-03-22T08:13:56.571Z</time></trkpt><trkpt lat="45.2489514" lon="9.0277818"><ele>88.0</ele><time>2026-03-22T08:13:58.572Z</time></trkpt><trkpt lat="45.2490481" lon="9.0277896"><ele>88.0</ele><time>2026-03-22T08:14:01.586Z</time></trkpt><trkpt lat="45.2491234" lon="9.0277866"><ele>88.0</ele><time>2026-03-22T08:14:03.574Z</time></trkpt><trkpt lat="45.2491956" lon="9.0278074"><ele>88.0</ele><time>2026-03-22T08:14:05.572Z</time></trkpt><trkpt lat="45.2492742" lon="9.0277871"><ele>88.0</ele><time>2026-03-22T08:14:07.577Z</time></trkpt><trkpt lat="45.2493469" lon="9.0277778"><ele>88.0</ele><time>2026-03-22T08:14:09.583Z</time></trkpt><trkpt lat="45.2494278" lon="9.0277388"><ele>88.0</ele><time>2026-03-22T08:14:11.59Z</time></trkpt><trkpt lat="45.249495" lon="9.0277084"><ele>88.0</ele><time>2026-03-22T08:14:13.636Z</time></trkpt><trkpt lat="45.2495664" lon="9.0276681"><ele>88.0</ele><time>2026-03-22T08:14:15.58Z</time></trkpt><trkpt lat="45.2496383" lon="9.0276259"><ele>88.0</ele><time>2026-03-22T08:14:17.572Z</time></trkpt><trkpt lat="45.2497051" lon="9.0275935"><ele>88.0</ele><time>2026-03-22T08:14:19.582Z</time></trkpt><trkpt lat="45.2497698" lon="9.0275563"><ele>88.0</ele><time>2026-03-22T08:14:21.58Z</time></trkpt><trkpt lat="45.2498335" lon="9.0275117"><ele>88.0</ele><time>2026-03-22T08:14:23.583Z</time></trkpt><trkpt lat="45.2498928" lon="9.0274499"><ele>88.0</ele><time>2026-03-22T08:14:25.571Z</time></trkpt><trkpt lat="45.2499571" lon="9.027382"><ele>88.0</ele><time>2026-03-22T08:14:27.584Z</time></trkpt><trkpt lat="45.250018" lon="9.0273108"><ele>88.0</ele><time>2026-03-22T08:14:29.579Z</time></trkpt><trkpt lat="45.2500731" lon="9.0272594"><ele>88.0</ele><time>2026-03-22T08:14:31.583Z</time></trkpt><trkpt lat="45.2501328" lon="9.0272008"><ele>88.0</ele><time>2026-03-22T08:14:33.585Z</time></trkpt><trkpt lat="45.250182" lon="9.0271283"><ele>88.0</ele><time>2026-03-22T08:14:35.571Z</time></trkpt><trkpt lat="45.2502476" lon="9.0270583"><ele>88.0</ele><time>2026-03-22T08:14:37.584Z</time></trkpt><trkpt lat="45.2503155" lon="9.0269906"><ele>88.0</ele><time>2026-03-22T08:14:39.574Z</time></trkpt><trkpt lat="45.2503728" lon="9.0269289"><ele>88.0</ele><time>2026-03-22T08:14:41.576Z</time></trkpt><trkpt lat="45.2504365" lon="9.0268703"><ele>88.0</ele><time>2026-03-22T08:14:43.564Z</time></trkpt><trkpt lat="45.250506" lon="9.0268059"><ele>88.0</ele><time>2026-03-22T08:14:45.584Z</time></trkpt><trkpt lat="45.2505673" lon="9.0267322"><ele>88.0</ele><time>2026-03-22T08:14:47.576Z</time></trkpt><trkpt lat="45.2506269" lon="9.0266739"><ele>88.0</ele><time>2026-03-22T08:14:49.642Z</time></trkpt><trkpt lat="45.250691" lon="9.0266"><ele>88.0</ele><time>2026-03-22T08:14:51.579Z</time></trkpt><trkpt lat="45.2507556" lon="9.0265295"><ele>88.0</ele><time>2026-03-22T08:14:53.578Z</time></trkpt><trkpt lat="45.250816" lon="9.0264672"><ele>88.0</ele><time>2026-03-22T08:14:55.576Z</time></trkpt><trkpt lat="45.2508811" lon="9.0264027"><ele>88.0</ele><time>2026-03-22T08:14:57.577Z</time></trkpt><trkpt lat="45.2509486" lon="9.0263296"><ele>88.0</ele><time>2026-03-22T08:14:59.581Z</time></trkpt><trkpt lat="45.2510064" lon="9.0262663"><ele>88.0</ele><time>2026-03-22T08:15:01.582Z</time></trkpt><trkpt lat="45.251067" lon="9.0262084"><ele>88.0</ele><time>2026-03-22T08:15:03.579Z</time></trkpt><trkpt lat="45.2511344" lon="9.0261285"><ele>88.0</ele><time>2026-03-22T08:15:05.573Z</time></trkpt><trkpt lat="45.2511917" lon="9.0260586"><ele>88.0</ele><time>2026-03-22T08:15:07.58Z</time></trkpt><trkpt lat="45.2512499" lon="9.0259962"><ele>88.0</ele><time>2026-03-22T08:15:09.57Z</time></trkpt><trkpt lat="45.2513146" lon="9.025916"><ele>88.0</ele><time>2026-03-22T08:15:11.58Z</time></trkpt><trkpt lat="45.2513748" lon="9.0258353"><ele>88.0</ele><time>2026-03-22T08:15:13.576Z</time></trkpt><trkpt lat="45.2514425" lon="9.025765"><ele>88.0</ele><time>2026-03-22T08:15:15.598Z</time></trkpt><trkpt lat="45.2515087" lon="9.0257027"><ele>88.0</ele><time>2026-03-22T08:15:17.652Z</time></trkpt><trkpt lat="45.2515786" lon="9.0256264"><ele>88.0</ele><time>2026-03-22T08:15:19.575Z</time></trkpt><trkpt lat="45.2516462" lon="9.0255517"><ele>88.0</ele><time>2026-03-22T08:15:21.578Z</time></trkpt><trkpt lat="45.2517118" lon="9.0254662"><ele>88.0</ele><time>2026-03-22T08:15:23.574Z</time></trkpt><trkpt lat="45.2517789" lon="9.0253976"><ele>88.0</ele><time>2026-03-22T08:15:25.58Z</time></trkpt><trkpt lat="45.2518437" lon="9.0253349"><ele>88.0</ele><time>2026-03-22T08:15:27.582Z</time></trkpt><trkpt lat="45.2519169" lon="9.0252753"><ele>88.0</ele><time>2026-03-22T08:15:29.566Z</time></trkpt><trkpt lat="45.2519962" lon="9.025238"><ele>88.0</ele><time>2026-03-22T08:15:31.584Z</time></trkpt><trkpt lat="45.2520685" lon="9.0251843"><ele>88.0</ele><time>2026-03-22T08:15:33.567Z</time></trkpt><trkpt lat="45.252136" lon="9.0251321"><ele>88.0</ele><time>2026-03-22T08:15:35.58Z</time></trkpt><trkpt lat="45.2522128" lon="9.0250795"><ele>88.0</ele><time>2026-03-22T08:15:37.583Z</time></trkpt><trkpt lat="45.2522806" lon="9.02501"><ele>88.5</ele><time>2026-03-22T08:15:39.576Z</time></trkpt><trkpt lat="45.252348" lon="9.0249501"><ele>89.0</ele><time>2026-03-22T08:15:41.573Z</time></trkpt><trkpt lat="45.2524017" lon="9.0248725"><ele>89.5</ele><time>2026-03-22T08:15:43.642Z</time></trkpt><trkpt lat="45.2524512" lon="9.0247864"><ele>90.0</ele><time>2026-03-22T08:15:45.565Z</time></trkpt><trkpt lat="45.2524994" lon="9.0247065"><ele>90.5</ele><time>2026-03-22T08:15:47.574Z</time></trkpt><trkpt lat="45.2525471" lon="9.0246078"><ele>91.0</ele><time>2026-03-22T08:15:49.582Z</time></trkpt><trkpt lat="45.2525897" lon="9.0245256"><ele>91.0</ele><time>2026-03-22T08:15:51.569Z</time></trkpt><trkpt lat="45.252629" lon="9.0244418"><ele>91.0</ele><time>2026-03-22T08:15:53.57Z</time></trkpt><trkpt lat="45.2526741" lon="9.0243583"><ele>91.0</ele><time>2026-03-22T08:15:55.579Z</time></trkpt><trkpt lat="45.252717" lon="9.0242705"><ele>91.0</ele><time>2026-03-22T08:15:57.591Z</time></trkpt><trkpt lat="45.2527585" lon="9.0241818"><ele>91.0</ele><time>2026-03-22T08:15:59.574Z</time></trkpt><trkpt lat="45.2528054" lon="9.0240889"><ele>91.0</ele><time>2026-03-22T08:16:01.577Z</time></trkpt><trkpt lat="45.2528556" lon="9.0240114"><ele>91.0</ele><time>2026-03-22T08:16:03.59Z</time></trkpt><trkpt lat="45.2529039" lon="9.0239285"><ele>91.0</ele><time>2026-03-22T08:16:05.58Z</time></trkpt><trkpt lat="45.2529537" lon="9.0238415"><ele>91.0</ele><time>2026-03-22T08:16:07.574Z</time></trkpt><trkpt lat="45.253013" lon="9.0237622"><ele>91.0</ele><time>2026-03-22T08:16:09.574Z</time></trkpt><trkpt lat="45.2530656" lon="9.0237042"><ele>91.0</ele><time>2026-03-22T08:16:11.569Z</time></trkpt><trkpt lat="45.2531382" lon="9.0236256"><ele>91.0</ele><time>2026-03-22T08:16:14.564Z</time></trkpt><trkpt lat="45.2531917" lon="9.0235549"><ele>91.0</ele><time>2026-03-22T08:16:16.57Z</time></trkpt><trkpt lat="45.2532315" lon="9.0234787"><ele>91.0</ele><time>2026-03-22T08:16:18.573Z</time></trkpt><trkpt lat="45.2533004" lon="9.0234195"><ele>91.0</ele><time>2026-03-22T08:16:21.569Z</time></trkpt><trkpt lat="45.2533636" lon="9.0233276"><ele>91.0</ele><time>2026-03-22T08:16:24.581Z</time></trkpt><trkpt lat="45.2534126" lon="9.023253"><ele>91.0</ele><time>2026-03-22T08:16:26.572Z</time></trkpt><trkpt lat="45.2534511" lon="9.023167"><ele>91.0</ele><time>2026-03-22T08:16:28.579Z</time></trkpt><trkpt lat="45.2534918" lon="9.0230804"><ele>90.66666666666666</ele><time>2026-03-22T08:16:30.578Z</time></trkpt><trkpt lat="45.2535378" lon="9.0229862"><ele>90.33333333333333</ele><time>2026-03-22T08:16:32.577Z</time></trkpt><trkpt lat="45.2535889" lon="9.022893"><ele>90.0</ele><time>2026-03-22T08:16:34.578Z</time></trkpt><trkpt lat="45.2536411" lon="9.0228011"><ele>89.66666666666667</ele><time>2026-03-22T08:16:36.574Z</time></trkpt><trkpt lat="45.2536959" lon="9.0226977"><ele>89.33333333333334</ele><time>2026-03-22T08:16:38.574Z</time></trkpt><trkpt lat="45.2537457" lon="9.0226039"><ele>89.0</ele><time>2026-03-22T08:16:40.578Z</time></trkpt><trkpt lat="45.2538018" lon="9.0225107"><ele>89.0</ele><time>2026-03-22T08:16:42.575Z</time></trkpt><trkpt lat="45.2538427" lon="9.0224178"><ele>89.0</ele><time>2026-03-22T08:16:44.573Z</time></trkpt><trkpt lat="45.2538922" lon="9.0223294"><ele>89.0</ele><time>2026-03-22T08:16:46.572Z</time></trkpt><trkpt lat="45.2539452" lon="9.0222452"><ele>89.0</ele><time>2026-03-22T08:16:48.575Z</time></trkpt><trkpt lat="45.2539952" lon="9.0221408"><ele>89.0</ele><time>2026-03-22T08:16:50.577Z</time></trkpt><trkpt lat="45.2540357" lon="9.0220447"><ele>89.0</ele><time>2026-03-22T08:16:52.57Z</time></trkpt><trkpt lat="45.2540893" lon="9.0219574"><ele>89.0</ele><time>2026-03-22T08:16:54.575Z</time></trkpt><trkpt lat="45.2541333" lon="9.021863"><ele>89.0</ele><time>2026-03-22T08:16:56.582Z</time></trkpt><trkpt lat="45.2541655" lon="9.0217735"><ele>89.0</ele><time>2026-03-22T08:16:58.573Z</time></trkpt><trkpt lat="45.2542053" lon="9.0216794"><ele>89.0</ele><time>2026-03-22T08:17:00.585Z</time></trkpt><trkpt lat="45.2542498" lon="9.0215797"><ele>89.0</ele><time>2026-03-22T08:17:02.582Z</time></trkpt><trkpt lat="45.2542872" lon="9.0214777"><ele>89.0</ele><time>2026-03-22T08:17:04.573Z</time></trkpt><trkpt lat="45.2543279" lon="9.0213778"><ele>89.14285714285714</ele><time>2026-03-22T08:17:06.576Z</time></trkpt><trkpt lat="45.254356" lon="9.0212712"><ele>89.28571428571428</ele><time>2026-03-22T08:17:08.571Z</time></trkpt><trkpt lat="45.2543294" lon="9.0211851"><ele>89.42857142857142</ele><time>2026-03-22T08:17:10.573Z</time></trkpt><trkpt lat="45.2542698" lon="9.0211192"><ele>89.57142857142857</ele><time>2026-03-22T08:17:12.578Z</time></trkpt><trkpt lat="45.2542106" lon="9.0210665"><ele>89.71428571428572</ele><time>2026-03-22T08:17:14.571Z</time></trkpt><trkpt lat="45.2541386" lon="9.0210147"><ele>89.85714285714285</ele><time>2026-03-22T08:17:16.57Z</time></trkpt><trkpt lat="45.2540735" lon="9.0209799"><ele>90.0</ele><time>2026-03-22T08:17:18.575Z</time></trkpt><trkpt lat="45.2540029" lon="9.0209354"><ele>89.83333333333333</ele><time>2026-03-22T08:17:20.574Z</time></trkpt><trkpt lat="45.2539318" lon="9.0208907"><ele>89.66666666666667</ele><time>2026-03-22T08:17:22.579Z</time></trkpt><trkpt lat="45.2538645" lon="9.0208426"><ele>89.5</ele><time>2026-03-22T08:17:24.569Z</time></trkpt><trkpt lat="45.2537936" lon="9.0207936"><ele>89.33333333333334</ele><time>2026-03-22T08:17:26.58Z</time></trkpt><trkpt lat="45.2537288" lon="9.0207518"><ele>89.16666666666667</ele><time>2026-03-22T08:17:28.571Z</time></trkpt><trkpt lat="45.2536599" lon="9.020708"><ele>89.0</ele><time>2026-03-22T08:17:30.58Z</time></trkpt><trkpt lat="45.2535959" lon="9.0206531"><ele>89.0</ele><time>2026-03-22T08:17:32.587Z</time></trkpt><trkpt lat="45.2535265" lon="9.0206021"><ele>89.0</ele><time>2026-03-22T08:17:34.571Z</time></trkpt><trkpt lat="45.2534579" lon="9.0205416"><ele>89.0</ele><time>2026-03-22T08:17:36.574Z</time></trkpt><trkpt lat="45.2533953" lon="9.0204782"><ele>89.0</ele><time>2026-03-22T08:17:38.574Z</time></trkpt><trkpt lat="45.2533237" lon="9.0204229"><ele>89.0</ele><time>2026-03-22T08:17:40.571Z</time></trkpt><trkpt lat="45.2532584" lon="9.0203765"><ele>89.0</ele><time>2026-03-22T08:17:42.579Z</time></trkpt><trkpt lat="45.2532022" lon="9.0203262"><ele>89.0</ele><time>2026-03-22T08:17:44.572Z</time></trkpt><trkpt lat="45.253137" lon="9.0202643"><ele>89.0</ele><time>2026-03-22T08:17:46.653Z</time></trkpt><trkpt lat="45.253069" lon="9.0202043"><ele>89.0</ele><time>2026-03-22T08:17:48.578Z</time></trkpt><trkpt lat="45.2530008" lon="9.0201354"><ele>89.0</ele><time>2026-03-22T08:17:50.575Z</time></trkpt><trkpt lat="45.2529368" lon="9.0200696"><ele>89.0</ele><time>2026-03-22T08:17:52.568Z</time></trkpt><trkpt lat="45.2528679" lon="9.0200029"><ele>89.0</ele><time>2026-03-22T08:17:54.577Z</time></trkpt><trkpt lat="45.2528142" lon="9.0199132"><ele>89.0</ele><time>2026-03-22T08:17:56.581Z</time></trkpt><trkpt lat="45.2527581" lon="9.0198239"><ele>89.0</ele><time>2026-03-22T08:17:58.583Z</time></trkpt><trkpt lat="45.252711" lon="9.0197339"><ele>89.0</ele><time>2026-03-22T08:18:00.577Z</time></trkpt><trkpt lat="45.252665" lon="9.0196494"><ele>89.0</ele><time>2026-03-22T08:18:02.574Z</time></trkpt><trkpt lat="45.2526112" lon="9.0195559"><ele>89.0</ele><time>2026-03-22T08:18:04.58Z</time></trkpt><trkpt lat="45.2525655" lon="9.0194643"><ele>89.0</ele><time>2026-03-22T08:18:06.577Z</time></trkpt><trkpt lat="45.2525172" lon="9.0193739"><ele>89.0</ele><time>2026-03-22T08:18:08.578Z</time></trkpt><trkpt lat="45.2524586" lon="9.0192856"><ele>89.0</ele><time>2026-03-22T08:18:10.645Z</time></trkpt><trkpt lat="45.2524109" lon="9.0191996"><ele>89.0</ele><time>2026-03-22T08:18:12.574Z</time></trkpt><trkpt lat="45.2523652" lon="9.0191146"><ele>89.0</ele><time>2026-03-22T08:18:14.574Z</time></trkpt><trkpt lat="45.2523152" lon="9.0190316"><ele>89.0</ele><time>2026-03-22T08:18:16.575Z</time></trkpt><trkpt lat="45.2522665" lon="9.0189298"><ele>89.0</ele><time>2026-03-22T08:18:18.577Z</time></trkpt><trkpt lat="45.2522144" lon="9.018839"><ele>89.0</ele><time>2026-03-22T08:18:20.577Z</time></trkpt><trkpt lat="45.2521686" lon="9.0187598"><ele>89.0</ele><time>2026-03-22T08:18:22.58Z</time></trkpt><trkpt lat="45.2521282" lon="9.0186769"><ele>89.0</ele><time>2026-03-22T08:18:24.648Z</time></trkpt><trkpt lat="45.252071" lon="9.0185935"><ele>89.0</ele><time>2026-03-22T08:18:26.582Z</time></trkpt><trkpt lat="45.2520201" lon="9.0185046"><ele>89.0</ele><time>2026-03-22T08:18:28.576Z</time></trkpt><trkpt lat="45.2519672" lon="9.0184153"><ele>89.0</ele><time>2026-03-22T08:18:30.583Z</time></trkpt><trkpt lat="45.251923" lon="9.0183368"><ele>89.0</ele><time>2026-03-22T08:18:32.581Z</time></trkpt><trkpt lat="45.2518627" lon="9.0182373"><ele>89.0</ele><time>2026-03-22T08:18:35.574Z</time></trkpt><trkpt lat="45.2518161" lon="9.0181658"><ele>89.0</ele><time>2026-03-22T08:18:37.642Z</time></trkpt><trkpt lat="45.2517566" lon="9.01808"><ele>89.0</ele><time>2026-03-22T08:18:39.573Z</time></trkpt><trkpt lat="45.2517101" lon="9.0179862"><ele>89.0</ele><time>2026-03-22T08:18:41.58Z</time></trkpt><trkpt lat="45.2516559" lon="9.0178724"><ele>89.0</ele><time>2026-03-22T08:18:43.599Z</time></trkpt><trkpt lat="45.2516092" lon="9.0177575"><ele>89.0</ele><time>2026-03-22T08:18:45.573Z</time></trkpt><trkpt lat="45.2515694" lon="9.017656"><ele>89.0</ele><time>2026-03-22T08:18:47.574Z</time></trkpt><trkpt lat="45.2515373" lon="9.0175554"><ele>89.0</ele><time>2026-03-22T08:18:49.572Z</time></trkpt><trkpt lat="45.2515002" lon="9.0174657"><ele>89.0</ele><time>2026-03-22T08:18:51.647Z</time></trkpt><trkpt lat="45.2514673" lon="9.0173784"><ele>89.0</ele><time>2026-03-22T08:18:53.728Z</time></trkpt><trkpt lat="45.2514274" lon="9.0172738"><ele>89.0</ele><time>2026-03-22T08:18:55.569Z</time></trkpt><trkpt lat="45.2513932" lon="9.0171519"><ele>88.5</ele><time>2026-03-22T08:18:57.581Z</time></trkpt><trkpt lat="45.2513606" lon="9.0170399"><ele>88.0</ele><time>2026-03-22T08:18:59.59Z</time></trkpt><trkpt lat="45.25132" lon="9.0169279"><ele>87.5</ele><time>2026-03-22T08:19:01.567Z</time></trkpt><trkpt lat="45.2512817" lon="9.0168191"><ele>87.0</ele><time>2026-03-22T08:19:03.575Z</time></trkpt><trkpt lat="45.2512528" lon="9.0167235"><ele>86.5</ele><time>2026-03-22T08:19:05.656Z</time></trkpt><trkpt lat="45.2512232" lon="9.0166438"><ele>86.0</ele><time>2026-03-22T08:19:07.588Z</time></trkpt><trkpt lat="45.2511923" lon="9.0165593"><ele>86.0</ele><time>2026-03-22T08:19:09.574Z</time></trkpt><trkpt lat="45.2511487" lon="9.0164559"><ele>86.0</ele><time>2026-03-22T08:19:11.584Z</time></trkpt><trkpt lat="45.2511109" lon="9.0163697"><ele>86.0</ele><time>2026-03-22T08:19:13.575Z</time></trkpt><trkpt lat="45.2510673" lon="9.016278"><ele>86.0</ele><time>2026-03-22T08:19:15.573Z</time></trkpt><trkpt lat="45.2510248" lon="9.0161749"><ele>86.0</ele><time>2026-03-22T08:19:17.583Z</time></trkpt><trkpt lat="45.2509874" lon="9.0160787"><ele>86.0</ele><time>2026-03-22T08:19:19.585Z</time></trkpt><trkpt lat="45.2509445" lon="9.0159889"><ele>86.0</ele><time>2026-03-22T08:19:21.574Z</time></trkpt><trkpt lat="45.2509192" lon="9.0158756"><ele>86.0</ele><time>2026-03-22T08:19:23.584Z</time></trkpt><trkpt lat="45.2508892" lon="9.0157709"><ele>86.0</ele><time>2026-03-22T08:19:25.582Z</time></trkpt><trkpt lat="45.2508494" lon="9.0156602"><ele>86.0</ele><time>2026-03-22T08:19:27.601Z</time></trkpt><trkpt lat="45.2508031" lon="9.0155342"><ele>86.0</ele><time>2026-03-22T08:19:29.568Z</time></trkpt><trkpt lat="45.2507563" lon="9.0154404"><ele>86.0</ele><time>2026-03-22T08:19:31.576Z</time></trkpt><trkpt lat="45.2507149" lon="9.0153212"><ele>86.0</ele><time>2026-03-22T08:19:33.571Z</time></trkpt><trkpt lat="45.2506775" lon="9.0152209"><ele>86.0</ele><time>2026-03-22T08:19:35.588Z</time></trkpt><trkpt lat="45.2506497" lon="9.0151295"><ele>86.0</ele><time>2026-03-22T08:19:37.577Z</time></trkpt><trkpt lat="45.2506075" lon="9.0150275"><ele>86.0</ele><time>2026-03-22T08:19:39.573Z</time></trkpt><trkpt lat="45.2505713" lon="9.0149262"><ele>86.0</ele><time>2026-03-22T08:19:41.582Z</time></trkpt><trkpt lat="45.2505393" lon="9.0148397"><ele>86.0</ele><time>2026-03-22T08:19:43.571Z</time></trkpt><trkpt lat="45.2505091" lon="9.014744"><ele>86.0</ele><time>2026-03-22T08:19:45.567Z</time></trkpt><trkpt lat="45.2504742" lon="9.0146388"><ele>86.0</ele><time>2026-03-22T08:19:47.58Z</time></trkpt><trkpt lat="45.2504353" lon="9.0145421"><ele>86.0</ele><time>2026-03-22T08:19:49.576Z</time></trkpt><trkpt lat="45.2503981" lon="9.0144422"><ele>86.0</ele><time>2026-03-22T08:19:51.584Z</time></trkpt><trkpt lat="45.2503555" lon="9.0143267"><ele>86.0</ele><time>2026-03-22T08:19:53.582Z</time></trkpt><trkpt lat="45.2503143" lon="9.0142128"><ele>86.0</ele><time>2026-03-22T08:19:55.574Z</time></trkpt><trkpt lat="45.2502803" lon="9.0141095"><ele>86.16666666666667</ele><time>2026-03-22T08:19:57.571Z</time></trkpt><trkpt lat="45.2502315" lon="9.0140066"><ele>86.33333333333334</ele><time>2026-03-22T08:19:59.579Z</time></trkpt><trkpt lat="45.2501941" lon="9.0139014"><ele>86.5</ele><time>2026-03-22T08:20:01.583Z</time></trkpt><trkpt lat="45.2501479" lon="9.0137905"><ele>86.66666666666667</ele><time>2026-03-22T08:20:04.578Z</time></trkpt><trkpt lat="45.2501095" lon="9.0137104"><ele>86.83333333333333</ele><time>2026-03-22T08:20:06.57Z</time></trkpt><trkpt lat="45.2500445" lon="9.0136445"><ele>87.0</ele><time>2026-03-22T08:20:08.574Z</time></trkpt><trkpt lat="45.2499885" lon="9.0135905"><ele>87.0</ele><time>2026-03-22T08:20:10.572Z</time></trkpt><trkpt lat="45.2499255" lon="9.0135285"><ele>87.0</ele><time>2026-03-22T08:20:12.577Z</time></trkpt><trkpt lat="45.2498619" lon="9.0134566"><ele>87.0</ele><time>2026-03-22T08:20:15.648Z</time></trkpt><trkpt lat="45.2498675" lon="9.0133564"><ele>87.0</ele><time>2026-03-22T08:20:17.605Z</time></trkpt><trkpt lat="45.2498968" lon="9.0132536"><ele>87.0</ele><time>2026-03-22T08:20:19.566Z</time></trkpt><trkpt lat="45.2499416" lon="9.0131668"><ele>87.0</ele><time>2026-03-22T08:20:21.568Z</time></trkpt><trkpt lat="45.2500074" lon="9.0130674"><ele>86.66666666666667</ele><time>2026-03-22T08:20:23.577Z</time></trkpt><trkpt lat="45.250083" lon="9.0129868"><ele>86.33333333333333</ele><time>2026-03-22T08:20:25.57Z</time></trkpt><trkpt lat="45.2501375" lon="9.0129041"><ele>86.0</ele><time>2026-03-22T08:20:27.569Z</time></trkpt><trkpt lat="45.2501888" lon="9.0128129"><ele>85.66666666666666</ele><time>2026-03-22T08:20:29.574Z</time></trkpt><trkpt lat="45.2502563" lon="9.0127332"><ele>85.33333333333333</ele><time>2026-03-22T08:20:31.581Z</time></trkpt><trkpt lat="45.2503375" lon="9.0126835"><ele>85.0</ele><time>2026-03-22T08:20:33.575Z</time></trkpt><trkpt lat="45.2504242" lon="9.0126572"><ele>85.0</ele><time>2026-03-22T08:20:35.574Z</time></trkpt><trkpt lat="45.2505124" lon="9.0126601"><ele>85.0</ele><time>2026-03-22T08:20:37.567Z</time></trkpt><trkpt lat="45.2505978" lon="9.012675"><ele>85.0</ele><time>2026-03-22T08:20:39.576Z</time></trkpt><trkpt lat="45.2506864" lon="9.0126817"><ele>85.0</ele><time>2026-03-22T08:20:41.577Z</time></trkpt><trkpt lat="45.2507703" lon="9.0126823"><ele>85.0</ele><time>2026-03-22T08:20:43.574Z</time></trkpt><trkpt lat="45.2508559" lon="9.0127029"><ele>85.0</ele><time>2026-03-22T08:20:45.571Z</time></trkpt><trkpt lat="45.2509317" lon="9.0127289"><ele>85.66666666666666</ele><time>2026-03-22T08:20:47.572Z</time></trkpt><trkpt lat="45.2510122" lon="9.0127512"><ele>86.33333333333333</ele><time>2026-03-22T08:20:49.596Z</time></trkpt><trkpt lat="45.251081" lon="9.0128161"><ele>87.0</ele><time>2026-03-22T08:20:51.572Z</time></trkpt><trkpt lat="45.2511436" lon="9.0129"><ele>87.66666666666667</ele><time>2026-03-22T08:20:53.577Z</time></trkpt><trkpt lat="45.2512072" lon="9.0129822"><ele>88.33333333333334</ele><time>2026-03-22T08:20:55.581Z</time></trkpt><trkpt lat="45.251274" lon="9.0130407"><ele>89.0</ele><time>2026-03-22T08:20:57.581Z</time></trkpt><trkpt lat="45.2513365" lon="9.0130952"><ele>89.0</ele><time>2026-03-22T08:20:59.588Z</time></trkpt><trkpt lat="45.2514013" lon="9.0131542"><ele>89.0</ele><time>2026-03-22T08:21:01.572Z</time></trkpt><trkpt lat="45.2514678" lon="9.0132029"><ele>89.0</ele><time>2026-03-22T08:21:03.578Z</time></trkpt><trkpt lat="45.2515382" lon="9.0132523"><ele>89.0</ele><time>2026-03-22T08:21:05.571Z</time></trkpt><trkpt lat="45.2516099" lon="9.0132894"><ele>89.0</ele><time>2026-03-22T08:21:07.63Z</time></trkpt><trkpt lat="45.2516891" lon="9.0133368"><ele>89.0</ele><time>2026-03-22T08:21:09.725Z</time></trkpt><trkpt lat="45.2517533" lon="9.0133756"><ele>89.14285714285714</ele><time>2026-03-22T08:21:11.575Z</time></trkpt><trkpt lat="45.2518182" lon="9.0134082"><ele>89.28571428571428</ele><time>2026-03-22T08:21:13.567Z</time></trkpt><trkpt lat="45.2518935" lon="9.0134374"><ele>89.42857142857142</ele><time>2026-03-22T08:21:15.572Z</time></trkpt><trkpt lat="45.2519796" lon="9.0134502"><ele>89.57142857142857</ele><time>2026-03-22T08:21:17.576Z</time></trkpt><trkpt lat="45.2520564" lon="9.0134626"><ele>89.71428571428572</ele><time>2026-03-22T08:21:19.576Z</time></trkpt><trkpt lat="45.2521266" lon="9.0134841"><ele>89.85714285714285</ele><time>2026-03-22T08:21:21.576Z</time></trkpt><trkpt lat="45.2521889" lon="9.01351"><ele>90.0</ele><time>2026-03-22T08:21:23.592Z</time></trkpt><trkpt lat="45.2522863" lon="9.0135268"><ele>90.42857142857143</ele><time>2026-03-22T08:21:26.578Z</time></trkpt><trkpt lat="45.2523645" lon="9.0135378"><ele>90.85714285714286</ele><time>2026-03-22T08:21:28.576Z</time></trkpt><trkpt lat="45.2524318" lon="9.0135404"><ele>91.28571428571429</ele><time>2026-03-22T08:21:30.579Z</time></trkpt><trkpt lat="45.2525029" lon="9.01354"><ele>91.71428571428572</ele><time>2026-03-22T08:21:32.574Z</time></trkpt><trkpt lat="45.2525755" lon="9.0135142"><ele>92.14285714285714</ele><time>2026-03-22T08:21:34.572Z</time></trkpt><trkpt lat="45.2526459" lon="9.01347"><ele>92.57142857142858</ele><time>2026-03-22T08:21:36.579Z</time></trkpt><trkpt lat="45.2526973" lon="9.0134095"><ele>93.0</ele><time>2026-03-22T08:21:38.575Z</time></trkpt><trkpt lat="45.2527654" lon="9.0133577"><ele>93.0</ele><time>2026-03-22T08:21:40.573Z</time></trkpt><trkpt lat="45.2528331" lon="9.0133109"><ele>93.0</ele><time>2026-03-22T08:21:42.571Z</time></trkpt><trkpt lat="45.2529007" lon="9.0132478"><ele>93.0</ele><time>2026-03-22T08:21:44.576Z</time></trkpt><trkpt lat="45.252962" lon="9.0131616"><ele>93.0</ele><time>2026-03-22T08:21:46.576Z</time></trkpt><trkpt lat="45.2530614" lon="9.0131347"><ele>93.0</ele><time>2026-03-22T08:21:48.576Z</time></trkpt><trkpt lat="45.2531408" lon="9.0131227"><ele>93.0</ele><time>2026-03-22T08:21:50.58Z</time></trkpt><trkpt lat="45.2532566" lon="9.013152"><ele>92.83333333333333</ele><time>2026-03-22T08:21:52.576Z</time></trkpt><trkpt lat="45.2533555" lon="9.0131892"><ele>92.66666666666667</ele><time>2026-03-22T08:21:54.585Z</time></trkpt><trkpt lat="45.2534312" lon="9.0132491"><ele>92.5</ele><time>2026-03-22T08:21:56.578Z</time></trkpt><trkpt lat="45.2534947" lon="9.0133049"><ele>92.33333333333334</ele><time>2026-03-22T08:21:58.577Z</time></trkpt><trkpt lat="45.2535564" lon="9.013358"><ele>92.16666666666667</ele><time>2026-03-22T08:22:00.571Z</time></trkpt><trkpt lat="45.2536176" lon="9.0134171"><ele>92.0</ele><time>2026-03-22T08:22:02.573Z</time></trkpt><trkpt lat="45.2536805" lon="9.0134715"><ele>92.5</ele><time>2026-03-22T08:22:04.57Z</time></trkpt><trkpt lat="45.2537559" lon="9.0135146"><ele>93.0</ele><time>2026-03-22T08:22:06.572Z</time></trkpt><trkpt lat="45.253824" lon="9.0135554"><ele>93.5</ele><time>2026-03-22T08:22:08.569Z</time></trkpt><trkpt lat="45.2539003" lon="9.013587"><ele>94.0</ele><time>2026-03-22T08:22:10.577Z</time></trkpt><trkpt lat="45.2539832" lon="9.0136283"><ele>94.5</ele><time>2026-03-22T08:22:12.574Z</time></trkpt><trkpt lat="45.2540592" lon="9.0136826"><ele>95.0</ele><time>2026-03-22T08:22:14.574Z</time></trkpt><trkpt lat="45.2541354" lon="9.0137414"><ele>93.66666666666667</ele><time>2026-03-22T08:22:16.574Z</time></trkpt><trkpt lat="45.2542049" lon="9.0137946"><ele>92.33333333333334</ele><time>2026-03-22T08:22:18.572Z</time></trkpt><trkpt lat="45.2542734" lon="9.0138479"><ele>91.0</ele><time>2026-03-22T08:22:20.579Z</time></trkpt><trkpt lat="45.2543416" lon="9.0138926"><ele>89.66666666666667</ele><time>2026-03-22T08:22:22.577Z</time></trkpt><trkpt lat="45.2544137" lon="9.0139537"><ele>88.33333333333333</ele><time>2026-03-22T08:22:24.601Z</time></trkpt><trkpt lat="45.2544786" lon="9.0139935"><ele>87.0</ele><time>2026-03-22T08:22:26.568Z</time></trkpt><trkpt lat="45.2545694" lon="9.0139972"><ele>87.0</ele><time>2026-03-22T08:22:29.583Z</time></trkpt><trkpt lat="45.2546378" lon="9.0139933"><ele>87.0</ele><time>2026-03-22T08:22:31.575Z</time></trkpt><trkpt lat="45.2547129" lon="9.0139777"><ele>87.0</ele><time>2026-03-22T08:22:33.573Z</time></trkpt><trkpt lat="45.2547851" lon="9.0139483"><ele>87.0</ele><time>2026-03-22T08:22:35.568Z</time></trkpt><trkpt lat="45.2548594" lon="9.0139141"><ele>87.0</ele><time>2026-03-22T08:22:37.576Z</time></trkpt><trkpt lat="45.2549295" lon="9.0138672"><ele>87.0</ele><time>2026-03-22T08:22:39.571Z</time></trkpt><trkpt lat="45.2550061" lon="9.0138141"><ele>87.0</ele><time>2026-03-22T08:22:41.58Z</time></trkpt><trkpt lat="45.2550797" lon="9.0137673"><ele>87.0</ele><time>2026-03-22T08:22:43.58Z</time></trkpt><trkpt lat="45.2551466" lon="9.0137252"><ele>87.0</ele><time>2026-03-22T08:22:45.574Z</time></trkpt><trkpt lat="45.2552139" lon="9.0136794"><ele>87.0</ele><time>2026-03-22T08:22:47.571Z</time></trkpt><trkpt lat="45.2552913" lon="9.013644"><ele>87.0</ele><time>2026-03-22T08:22:49.573Z</time></trkpt><trkpt lat="45.2553633" lon="9.013609"><ele>87.0</ele><time>2026-03-22T08:22:51.571Z</time></trkpt><trkpt lat="45.255428" lon="9.0135685"><ele>87.0</ele><time>2026-03-22T08:22:53.577Z</time></trkpt><trkpt lat="45.2554917" lon="9.0135315"><ele>87.0</ele><time>2026-03-22T08:22:55.589Z</time></trkpt><trkpt lat="45.2555596" lon="9.0134976"><ele>87.0</ele><time>2026-03-22T08:22:57.575Z</time></trkpt><trkpt lat="45.2556287" lon="9.0134625"><ele>87.0</ele><time>2026-03-22T08:22:59.577Z</time></trkpt><trkpt lat="45.2556969" lon="9.0134272"><ele>87.0</ele><time>2026-03-22T08:23:01.575Z</time></trkpt><trkpt lat="45.2557715" lon="9.0133794"><ele>87.0</ele><time>2026-03-22T08:23:03.57Z</time></trkpt><trkpt lat="45.2558461" lon="9.0133329"><ele>87.14285714285714</ele><time>2026-03-22T08:23:05.573Z</time></trkpt><trkpt lat="45.2559151" lon="9.013263"><ele>87.28571428571429</ele><time>2026-03-22T08:23:07.581Z</time></trkpt><trkpt lat="45.2559806" lon="9.0132096"><ele>87.42857142857143</ele><time>2026-03-22T08:23:09.578Z</time></trkpt><trkpt lat="45.2560494" lon="9.0131615"><ele>87.57142857142857</ele><time>2026-03-22T08:23:11.583Z</time></trkpt><trkpt lat="45.2561051" lon="9.013103"><ele>87.71428571428571</ele><time>2026-03-22T08:23:13.573Z</time></trkpt><trkpt lat="45.2561579" lon="9.0130457"><ele>87.85714285714286</ele><time>2026-03-22T08:23:15.576Z</time></trkpt><trkpt lat="45.2562154" lon="9.012978"><ele>88.0</ele><time>2026-03-22T08:23:17.572Z</time></trkpt><trkpt lat="45.2562661" lon="9.0128793"><ele>88.0</ele><time>2026-03-22T08:23:19.578Z</time></trkpt><trkpt lat="45.2563138" lon="9.0127847"><ele>88.0</ele><time>2026-03-22T08:23:21.585Z</time></trkpt><trkpt lat="45.2563792" lon="9.0126903"><ele>88.0</ele><time>2026-03-22T08:23:23.576Z</time></trkpt><trkpt lat="45.256437" lon="9.0125924"><ele>88.0</ele><time>2026-03-22T08:23:25.579Z</time></trkpt><trkpt lat="45.2564906" lon="9.0125035"><ele>88.0</ele><time>2026-03-22T08:23:27.583Z</time></trkpt><trkpt lat="45.2565388" lon="9.0124077"><ele>88.0</ele><time>2026-03-22T08:23:29.576Z</time></trkpt><trkpt lat="45.256589" lon="9.0123224"><ele>88.0</ele><time>2026-03-22T08:23:31.573Z</time></trkpt><trkpt lat="45.2566462" lon="9.0122403"><ele>88.0</ele><time>2026-03-22T08:23:33.565Z</time></trkpt><trkpt lat="45.2566953" lon="9.0121565"><ele>88.0</ele><time>2026-03-22T08:23:35.57Z</time></trkpt><trkpt lat="45.2567516" lon="9.0120695"><ele>88.0</ele><time>2026-03-22T08:23:37.573Z</time></trkpt><trkpt lat="45.2568009" lon="9.0119832"><ele>88.0</ele><time>2026-03-22T08:23:39.569Z</time></trkpt><trkpt lat="45.2568506" lon="9.011892"><ele>88.0</ele><time>2026-03-22T08:23:41.577Z</time></trkpt><trkpt lat="45.2568957" lon="9.0117966"><ele>88.0</ele><time>2026-03-22T08:23:43.575Z</time></trkpt><trkpt lat="45.2569394" lon="9.0116975"><ele>88.0</ele><time>2026-03-22T08:23:45.574Z</time></trkpt><trkpt lat="45.2570031" lon="9.0115995"><ele>88.0</ele><time>2026-03-22T08:23:47.575Z</time></trkpt><trkpt lat="45.2570635" lon="9.011519"><ele>88.0</ele><time>2026-03-22T08:23:49.57Z</time></trkpt><trkpt lat="45.2571131" lon="9.0114528"><ele>88.0</ele><time>2026-03-22T08:23:51.583Z</time></trkpt><trkpt lat="45.2571702" lon="9.0113937"><ele>88.0</ele><time>2026-03-22T08:23:53.584Z</time></trkpt><trkpt lat="45.2572355" lon="9.0113305"><ele>88.33333333333333</ele><time>2026-03-22T08:23:55.572Z</time></trkpt><trkpt lat="45.257302" lon="9.0112829"><ele>88.66666666666666</ele><time>2026-03-22T08:23:57.573Z</time></trkpt><trkpt lat="45.257368" lon="9.0112269"><ele>89.0</ele><time>2026-03-22T08:23:59.58Z</time></trkpt><trkpt lat="45.2574341" lon="9.0111678"><ele>89.33333333333333</ele><time>2026-03-22T08:24:01.568Z</time></trkpt><trkpt lat="45.2574982" lon="9.0111001"><ele>89.66666666666667</ele><time>2026-03-22T08:24:03.637Z</time></trkpt><trkpt lat="45.2575604" lon="9.0110307"><ele>90.0</ele><time>2026-03-22T08:24:05.578Z</time></trkpt><trkpt lat="45.257622" lon="9.0109781"><ele>90.0</ele><time>2026-03-22T08:24:07.573Z</time></trkpt><trkpt lat="45.2576819" lon="9.0109121"><ele>90.0</ele><time>2026-03-22T08:24:09.578Z</time></trkpt><trkpt lat="45.2577432" lon="9.010849"><ele>90.0</ele><time>2026-03-22T08:24:11.578Z</time></trkpt><trkpt lat="45.257805" lon="9.010785"><ele>90.0</ele><time>2026-03-22T08:24:13.577Z</time></trkpt><trkpt lat="45.2578671" lon="9.0107266"><ele>90.0</ele><time>2026-03-22T08:24:15.58Z</time></trkpt><trkpt lat="45.2579224" lon="9.0106473"><ele>90.0</ele><time>2026-03-22T08:24:17.582Z</time></trkpt><trkpt lat="45.2579823" lon="9.0105866"><ele>90.14285714285714</ele><time>2026-03-22T08:24:19.578Z</time></trkpt><trkpt lat="45.2580411" lon="9.0105267"><ele>90.28571428571429</ele><time>2026-03-22T08:24:21.589Z</time></trkpt><trkpt lat="45.2581009" lon="9.0104706"><ele>90.42857142857143</ele><time>2026-03-22T08:24:23.583Z</time></trkpt><trkpt lat="45.2581716" lon="9.0104058"><ele>90.57142857142857</ele><time>2026-03-22T08:24:25.576Z</time></trkpt><trkpt lat="45.2582245" lon="9.0103525"><ele>90.71428571428572</ele><time>2026-03-22T08:24:27.576Z</time></trkpt><trkpt lat="45.2582837" lon="9.0102941"><ele>90.85714285714286</ele><time>2026-03-22T08:24:29.58Z</time></trkpt><trkpt lat="45.2583392" lon="9.0102432"><ele>91.0</ele><time>2026-03-22T08:24:31.575Z</time></trkpt><trkpt lat="45.2583983" lon="9.0101717"><ele>91.0</ele><time>2026-03-22T08:24:33.576Z</time></trkpt><trkpt lat="45.2584647" lon="9.0100989"><ele>91.0</ele><time>2026-03-22T08:24:35.579Z</time></trkpt><trkpt lat="45.2585179" lon="9.0100246"><ele>91.0</ele><time>2026-03-22T08:24:37.588Z</time></trkpt><trkpt lat="45.2585773" lon="9.0099438"><ele>91.0</ele><time>2026-03-22T08:24:39.574Z</time></trkpt><trkpt lat="45.2586417" lon="9.0098782"><ele>91.0</ele><time>2026-03-22T08:24:41.574Z</time></trkpt><trkpt lat="45.2587103" lon="9.0098241"><ele>91.0</ele><time>2026-03-22T08:24:43.586Z</time></trkpt><trkpt lat="45.2587856" lon="9.0097559"><ele>91.0</ele><time>2026-03-22T08:24:45.576Z</time></trkpt><trkpt lat="45.2588519" lon="9.0096896"><ele>91.0</ele><time>2026-03-22T08:24:47.575Z</time></trkpt><trkpt lat="45.2589259" lon="9.0096313"><ele>91.0</ele><time>2026-03-22T08:24:49.575Z</time></trkpt><trkpt lat="45.258992" lon="9.0095685"><ele>91.0</ele><time>2026-03-22T08:24:51.577Z</time></trkpt><trkpt lat="45.2590637" lon="9.0095055"><ele>91.0</ele><time>2026-03-22T08:24:53.575Z</time></trkpt><trkpt lat="45.2591361" lon="9.0094549"><ele>91.0</ele><time>2026-03-22T08:24:55.596Z</time></trkpt><trkpt lat="45.2592149" lon="9.0094128"><ele>91.0</ele><time>2026-03-22T08:24:57.649Z</time></trkpt><trkpt lat="45.2592835" lon="9.0093663"><ele>91.0</ele><time>2026-03-22T08:24:59.578Z</time></trkpt><trkpt lat="45.2593487" lon="9.0093141"><ele>91.0</ele><time>2026-03-22T08:25:01.582Z</time></trkpt><trkpt lat="45.2594278" lon="9.0092815"><ele>91.0</ele><time>2026-03-22T08:25:03.572Z</time></trkpt><trkpt lat="45.2595041" lon="9.0092184"><ele>91.0</ele><time>2026-03-22T08:25:05.573Z</time></trkpt><trkpt lat="45.2595613" lon="9.0091538"><ele>91.0</ele><time>2026-03-22T08:25:07.58Z</time></trkpt><trkpt lat="45.2595954" lon="9.0090774"><ele>90.85714285714286</ele><time>2026-03-22T08:25:09.569Z</time></trkpt><trkpt lat="45.2596297" lon="9.0089948"><ele>90.71428571428572</ele><time>2026-03-22T08:25:11.582Z</time></trkpt><trkpt lat="45.2596647" lon="9.0088948"><ele>90.57142857142857</ele><time>2026-03-22T08:25:13.653Z</time></trkpt><trkpt lat="45.259697" lon="9.0088019"><ele>90.42857142857143</ele><time>2026-03-22T08:25:15.581Z</time></trkpt><trkpt lat="45.2597297" lon="9.0087096"><ele>90.28571428571429</ele><time>2026-03-22T08:25:17.573Z</time></trkpt><trkpt lat="45.2597696" lon="9.0086144"><ele>90.14285714285714</ele><time>2026-03-22T08:25:19.574Z</time></trkpt><trkpt lat="45.2598148" lon="9.0085317"><ele>90.0</ele><time>2026-03-22T08:25:21.577Z</time></trkpt><trkpt lat="45.2598562" lon="9.0084512"><ele>89.66666666666667</ele><time>2026-03-22T08:25:23.579Z</time></trkpt><trkpt lat="45.2599033" lon="9.0083543"><ele>89.33333333333333</ele><time>2026-03-22T08:25:25.653Z</time></trkpt><trkpt lat="45.259947" lon="9.0082647"><ele>89.0</ele><time>2026-03-22T08:25:27.644Z</time></trkpt><trkpt lat="45.2599882" lon="9.0081694"><ele>88.66666666666666</ele><time>2026-03-22T08:25:29.582Z</time></trkpt><trkpt lat="45.2600247" lon="9.0080759"><ele>88.33333333333333</ele><time>2026-03-22T08:25:31.572Z</time></trkpt><trkpt lat="45.2600661" lon="9.0079899"><ele>88.0</ele><time>2026-03-22T08:25:33.58Z</time></trkpt><trkpt lat="45.260104" lon="9.0078964"><ele>88.0</ele><time>2026-03-22T08:25:35.572Z</time></trkpt><trkpt lat="45.26014" lon="9.0078008"><ele>88.0</ele><time>2026-03-22T08:25:37.58Z</time></trkpt><trkpt lat="45.2601856" lon="9.0076928"><ele>88.0</ele><time>2026-03-22T08:25:39.578Z</time></trkpt><trkpt lat="45.2602246" lon="9.0075761"><ele>88.0</ele><time>2026-03-22T08:25:41.57Z</time></trkpt><trkpt lat="45.260263" lon="9.0074939"><ele>88.0</ele><time>2026-03-22T08:25:43.572Z</time></trkpt><trkpt lat="45.2602956" lon="9.0074096"><ele>88.0</ele><time>2026-03-22T08:25:45.577Z</time></trkpt><trkpt lat="45.2603446" lon="9.0073063"><ele>88.42857142857143</ele><time>2026-03-22T08:25:47.582Z</time></trkpt><trkpt lat="45.2603892" lon="9.0072209"><ele>88.85714285714286</ele><time>2026-03-22T08:25:49.576Z</time></trkpt><trkpt lat="45.2604319" lon="9.0071377"><ele>89.28571428571428</ele><time>2026-03-22T08:25:51.579Z</time></trkpt><trkpt lat="45.2604799" lon="9.0070621"><ele>89.71428571428572</ele><time>2026-03-22T08:25:53.584Z</time></trkpt><trkpt lat="45.260525" lon="9.0069828"><ele>90.14285714285714</ele><time>2026-03-22T08:25:55.577Z</time></trkpt><trkpt lat="45.26057" lon="9.0068962"><ele>90.57142857142857</ele><time>2026-03-22T08:25:57.589Z</time></trkpt><trkpt lat="45.2606211" lon="9.0068145"><ele>91.0</ele><time>2026-03-22T08:25:59.581Z</time></trkpt><trkpt lat="45.2606696" lon="9.0067367"><ele>90.16666666666666</ele><time>2026-03-22T08:26:01.572Z</time></trkpt><trkpt lat="45.2607177" lon="9.0066603"><ele>89.33333333333333</ele><time>2026-03-22T08:26:03.578Z</time></trkpt><trkpt lat="45.260773" lon="9.0065897"><ele>88.5</ele><time>2026-03-22T08:26:05.572Z</time></trkpt><trkpt lat="45.2608225" lon="9.0064861"><ele>87.66666666666667</ele><time>2026-03-22T08:26:07.57Z</time></trkpt><trkpt lat="45.2608719" lon="9.0064109"><ele>86.83333333333334</ele><time>2026-03-22T08:26:09.581Z</time></trkpt><trkpt lat="45.2609216" lon="9.0063344"><ele>86.0</ele><time>2026-03-22T08:26:11.575Z</time></trkpt><trkpt lat="45.2609659" lon="9.0062576"><ele>86.00000000000001</ele><time>2026-03-22T08:26:13.593Z</time></trkpt><trkpt lat="45.2610161" lon="9.0061809"><ele>86.0</ele><time>2026-03-22T08:26:15.578Z</time></trkpt><trkpt lat="45.2610627" lon="9.0061093"><ele>86.0</ele><time>2026-03-22T08:26:17.591Z</time></trkpt><trkpt lat="45.2611147" lon="9.0060393"><ele>86.0</ele><time>2026-03-22T08:26:19.592Z</time></trkpt><trkpt lat="45.2611686" lon="9.0059516"><ele>86.0</ele><time>2026-03-22T08:26:21.572Z</time></trkpt><trkpt lat="45.2612197" lon="9.0058729"><ele>86.00000000000001</ele><time>2026-03-22T08:26:23.579Z</time></trkpt><trkpt lat="45.2612693" lon="9.0058031"><ele>86.0</ele><time>2026-03-22T08:26:25.571Z</time></trkpt><trkpt lat="45.2613218" lon="9.0057416"><ele>86.42857142857143</ele><time>2026-03-22T08:26:27.576Z</time></trkpt><trkpt lat="45.2613718" lon="9.0056857"><ele>86.85714285714286</ele><time>2026-03-22T08:26:29.569Z</time></trkpt><trkpt lat="45.2614228" lon="9.0056287"><ele>87.28571428571428</ele><time>2026-03-22T08:26:31.576Z</time></trkpt><trkpt lat="45.2614861" lon="9.0055801"><ele>87.71428571428572</ele><time>2026-03-22T08:26:33.567Z</time></trkpt><trkpt lat="45.2615518" lon="9.0054992"><ele>88.14285714285714</ele><time>2026-03-22T08:26:35.571Z</time></trkpt><trkpt lat="45.2616106" lon="9.005447"><ele>88.57142857142857</ele><time>2026-03-22T08:26:37.575Z</time></trkpt><trkpt lat="45.2616628" lon="9.0053884"><ele>89.0</ele><time>2026-03-22T08:26:39.566Z</time></trkpt><trkpt lat="45.2617214" lon="9.0053358"><ele>89.0</ele><time>2026-03-22T08:26:41.571Z</time></trkpt><trkpt lat="45.2617867" lon="9.0052628"><ele>89.0</ele><time>2026-03-22T08:26:43.57Z</time></trkpt><trkpt lat="45.2618714" lon="9.0051993"><ele>89.0</ele><time>2026-03-22T08:26:45.638Z</time></trkpt><trkpt lat="45.261934" lon="9.0051193"><ele>89.0</ele><time>2026-03-22T08:26:47.645Z</time></trkpt><trkpt lat="45.2619842" lon="9.0050296"><ele>89.0</ele><time>2026-03-22T08:26:49.573Z</time></trkpt><trkpt lat="45.262038" lon="9.0049605"><ele>89.0</ele><time>2026-03-22T08:26:51.577Z</time></trkpt><trkpt lat="45.2620927" lon="9.004875"><ele>88.71428571428571</ele><time>2026-03-22T08:26:53.583Z</time></trkpt><trkpt lat="45.2621449" lon="9.0047982"><ele>88.42857142857143</ele><time>2026-03-22T08:26:55.583Z</time></trkpt><trkpt lat="45.2621917" lon="9.0047144"><ele>88.14285714285714</ele><time>2026-03-22T08:26:57.573Z</time></trkpt><trkpt lat="45.2622413" lon="9.0046383"><ele>87.85714285714286</ele><time>2026-03-22T08:26:59.589Z</time></trkpt><trkpt lat="45.2622804" lon="9.0045565"><ele>87.57142857142857</ele><time>2026-03-22T08:27:01.583Z</time></trkpt><trkpt lat="45.2623265" lon="9.004475"><ele>87.28571428571428</ele><time>2026-03-22T08:27:03.574Z</time></trkpt><trkpt lat="45.2623693" lon="9.0043897"><ele>87.0</ele><time>2026-03-22T08:27:05.575Z</time></trkpt><trkpt lat="45.2624307" lon="9.0042858"><ele>87.66666666666667</ele><time>2026-03-22T08:27:07.572Z</time></trkpt><trkpt lat="45.262478" lon="9.0041855"><ele>88.33333333333333</ele><time>2026-03-22T08:27:09.576Z</time></trkpt><trkpt lat="45.2625251" lon="9.0041131"><ele>89.0</ele><time>2026-03-22T08:27:11.579Z</time></trkpt><trkpt lat="45.2625671" lon="9.0040093"><ele>89.66666666666666</ele><time>2026-03-22T08:27:13.582Z</time></trkpt><trkpt lat="45.2626132" lon="9.0039162"><ele>90.33333333333333</ele><time>2026-03-22T08:27:15.572Z</time></trkpt><trkpt lat="45.2626595" lon="9.0038489"><ele>91.0</ele><time>2026-03-22T08:27:17.588Z</time></trkpt><trkpt lat="45.2627303" lon="9.0037663"><ele>91.0</ele><time>2026-03-22T08:27:20.572Z</time></trkpt><trkpt lat="45.2627847" lon="9.0037153"><ele>91.0</ele><time>2026-03-22T08:27:22.572Z</time></trkpt><trkpt lat="45.2628393" lon="9.0036602"><ele>91.0</ele><time>2026-03-22T08:27:24.58Z</time></trkpt><trkpt lat="45.2628865" lon="9.0035795"><ele>91.0</ele><time>2026-03-22T08:27:26.579Z</time></trkpt><trkpt lat="45.262934" lon="9.0034991"><ele>91.0</ele><time>2026-03-22T08:27:28.572Z</time></trkpt><trkpt lat="45.2629844" lon="9.0034142"><ele>91.0</ele><time>2026-03-22T08:27:30.576Z</time></trkpt><trkpt lat="45.2630319" lon="9.0033344"><ele>91.0</ele><time>2026-03-22T08:27:32.575Z</time></trkpt><trkpt lat="45.2630885" lon="9.0032561"><ele>91.57142857142857</ele><time>2026-03-22T08:27:34.576Z</time></trkpt><trkpt lat="45.2631323" lon="9.0031834"><ele>92.14285714285714</ele><time>2026-03-22T08:27:36.577Z</time></trkpt><trkpt lat="45.2631772" lon="9.0031002"><ele>92.71428571428572</ele><time>2026-03-22T08:27:38.571Z</time></trkpt><trkpt lat="45.2632164" lon="9.0030236"><ele>93.28571428571428</ele><time>2026-03-22T08:27:40.58Z</time></trkpt><trkpt lat="45.2632646" lon="9.0029416"><ele>93.85714285714286</ele><time>2026-03-22T08:27:42.57Z</time></trkpt><trkpt lat="45.2633107" lon="9.0028675"><ele>94.42857142857143</ele><time>2026-03-22T08:27:44.583Z</time></trkpt><trkpt lat="45.2633553" lon="9.0027785"><ele>95.0</ele><time>2026-03-22T08:27:46.58Z</time></trkpt><trkpt lat="45.2634092" lon="9.0027222"><ele>95.0</ele><time>2026-03-22T08:27:48.572Z</time></trkpt><trkpt lat="45.2634712" lon="9.0026855"><ele>95.0</ele><time>2026-03-22T08:27:50.579Z</time></trkpt><trkpt lat="45.263536" lon="9.0026447"><ele>95.0</ele><time>2026-03-22T08:27:52.581Z</time></trkpt><trkpt lat="45.2635943" lon="9.0025913"><ele>95.0</ele><time>2026-03-22T08:27:54.578Z</time></trkpt><trkpt lat="45.2636541" lon="9.0025329"><ele>95.0</ele><time>2026-03-22T08:27:56.582Z</time></trkpt><trkpt lat="45.2637072" lon="9.0024632"><ele>95.0</ele><time>2026-03-22T08:27:58.579Z</time></trkpt><trkpt lat="45.2637562" lon="9.0023751"><ele>95.0</ele><time>2026-03-22T08:28:00.573Z</time></trkpt><trkpt lat="45.2638075" lon="9.0022902"><ele>94.66666666666667</ele><time>2026-03-22T08:28:02.579Z</time></trkpt><trkpt lat="45.2638474" lon="9.0021796"><ele>94.33333333333334</ele><time>2026-03-22T08:28:04.57Z</time></trkpt><trkpt lat="45.2638831" lon="9.0020799"><ele>94.0</ele><time>2026-03-22T08:28:06.577Z</time></trkpt><trkpt lat="45.2639189" lon="9.0019692"><ele>93.66666666666667</ele><time>2026-03-22T08:28:08.574Z</time></trkpt><trkpt lat="45.263953" lon="9.0018818"><ele>93.33333333333333</ele><time>2026-03-22T08:28:10.571Z</time></trkpt><trkpt lat="45.2639963" lon="9.0017904"><ele>93.0</ele><time>2026-03-22T08:28:12.577Z</time></trkpt><trkpt lat="45.2640399" lon="9.0017069"><ele>93.66666666666667</ele><time>2026-03-22T08:28:14.583Z</time></trkpt><trkpt lat="45.2640911" lon="9.0016145"><ele>94.33333333333334</ele><time>2026-03-22T08:28:16.575Z</time></trkpt><trkpt lat="45.2641354" lon="9.0015266"><ele>95.0</ele><time>2026-03-22T08:28:18.575Z</time></trkpt><trkpt lat="45.2641889" lon="9.0014337"><ele>95.66666666666667</ele><time>2026-03-22T08:28:20.581Z</time></trkpt><trkpt lat="45.2642405" lon="9.0013438"><ele>96.33333333333334</ele><time>2026-03-22T08:28:22.579Z</time></trkpt><trkpt lat="45.2642809" lon="9.0012562"><ele>97.0</ele><time>2026-03-22T08:28:24.579Z</time></trkpt><trkpt lat="45.2643283" lon="9.0011642"><ele>97.00000000000001</ele><time>2026-03-22T08:28:26.58Z</time></trkpt><trkpt lat="45.2643718" lon="9.0010603"><ele>97.0</ele><time>2026-03-22T08:28:28.582Z</time></trkpt><trkpt lat="45.2644189" lon="9.0009691"><ele>97.0</ele><time>2026-03-22T08:28:30.576Z</time></trkpt><trkpt lat="45.2644533" lon="9.0008801"><ele>97.0</ele><time>2026-03-22T08:28:32.573Z</time></trkpt><trkpt lat="45.2645021" lon="9.0007873"><ele>97.00000000000001</ele><time>2026-03-22T08:28:34.572Z</time></trkpt><trkpt lat="45.264555" lon="9.0006935"><ele>97.0</ele><time>2026-03-22T08:28:36.58Z</time></trkpt><trkpt lat="45.2646105" lon="9.0006018"><ele>96.66666666666667</ele><time>2026-03-22T08:28:38.577Z</time></trkpt><trkpt lat="45.2646631" lon="9.0005006"><ele>96.33333333333334</ele><time>2026-03-22T08:28:40.57Z</time></trkpt><trkpt lat="45.2647212" lon="9.0004111"><ele>96.0</ele><time>2026-03-22T08:28:42.58Z</time></trkpt><trkpt lat="45.264779" lon="9.0003131"><ele>95.66666666666667</ele><time>2026-03-22T08:28:44.585Z</time></trkpt><trkpt lat="45.2648321" lon="9.0002342"><ele>95.33333333333334</ele><time>2026-03-22T08:28:47.58Z</time></trkpt><trkpt lat="45.2648928" lon="9.0001968"><ele>95.0</ele><time>2026-03-22T08:28:52.578Z</time></trkpt><trkpt lat="45.2648911" lon="9.0000938"><ele>95.0</ele><time>2026-03-22T08:28:58.572Z</time></trkpt><trkpt lat="45.2649324" lon="8.9999831"><ele>95.0</ele><time>2026-03-22T08:29:01.59Z</time></trkpt><trkpt lat="45.2649741" lon="8.9998941"><ele>95.0</ele><time>2026-03-22T08:29:04.576Z</time></trkpt><trkpt lat="45.2650168" lon="8.9998098"><ele>95.0</ele><time>2026-03-22T08:29:07.577Z</time></trkpt><trkpt lat="45.265068" lon="8.9997564"><ele>95.0</ele><time>2026-03-22T08:29:10.575Z</time></trkpt><trkpt lat="45.2651381" lon="8.999654"><ele>95.0</ele><time>2026-03-22T08:29:13.578Z</time></trkpt><trkpt lat="45.2651789" lon="8.9995654"><ele>95.0</ele><time>2026-03-22T08:29:15.582Z</time></trkpt><trkpt lat="45.2652228" lon="8.9994766"><ele>95.0</ele><time>2026-03-22T08:29:17.573Z</time></trkpt><trkpt lat="45.2652639" lon="8.9994075"><ele>95.0</ele><time>2026-03-22T08:29:19.569Z</time></trkpt><trkpt lat="45.2653048" lon="8.9993159"><ele>95.0</ele><time>2026-03-22T08:29:22.581Z</time></trkpt><trkpt lat="45.2653509" lon="8.9992429"><ele>95.0</ele><time>2026-03-22T08:29:25.571Z</time></trkpt><trkpt lat="45.2653912" lon="8.9991232"><ele>95.0</ele><time>2026-03-22T08:29:28.58Z</time></trkpt><trkpt lat="45.2654382" lon="8.9990334"><ele>95.0</ele><time>2026-03-22T08:29:30.593Z</time></trkpt><trkpt lat="45.265479" lon="8.9989547"><ele>95.0</ele><time>2026-03-22T08:29:32.571Z</time></trkpt><trkpt lat="45.2655313" lon="8.998853"><ele>95.0</ele><time>2026-03-22T08:29:35.587Z</time></trkpt><trkpt lat="45.2655823" lon="8.9987475"><ele>95.0</ele><time>2026-03-22T08:29:38.569Z</time></trkpt><trkpt lat="45.2656384" lon="8.9986394"><ele>95.0</ele><time>2026-03-22T08:29:41.577Z</time></trkpt><trkpt lat="45.2656933" lon="8.9985319"><ele>95.0</ele><time>2026-03-22T08:29:44.578Z</time></trkpt><trkpt lat="45.265733" lon="8.9984563"><ele>95.0</ele><time>2026-03-22T08:29:46.579Z</time></trkpt><trkpt lat="45.2657656" lon="8.9983759"><ele>95.0</ele><time>2026-03-22T08:29:48.562Z</time></trkpt><trkpt lat="45.265807" lon="8.9983041"><ele>95.0</ele><time>2026-03-22T08:29:50.57Z</time></trkpt><trkpt lat="45.2658427" lon="8.9982033"><ele>95.0</ele><time>2026-03-22T08:29:53.571Z</time></trkpt><trkpt lat="45.2658025" lon="8.9981298"><ele>95.0</ele><time>2026-03-22T08:29:55.568Z</time></trkpt><trkpt lat="45.2657305" lon="8.9980756"><ele>95.0</ele><time>2026-03-22T08:29:57.581Z</time></trkpt><trkpt lat="45.2656636" lon="8.9980129"><ele>95.0</ele><time>2026-03-22T08:29:59.588Z</time></trkpt><trkpt lat="45.265599" lon="8.9979582"><ele>95.0</ele><time>2026-03-22T08:30:01.575Z</time></trkpt><trkpt lat="45.2655361" lon="8.9978899"><ele>95.0</ele><time>2026-03-22T08:30:03.572Z</time></trkpt><trkpt lat="45.2654647" lon="8.9978362"><ele>95.0</ele><time>2026-03-22T08:30:05.57Z</time></trkpt><trkpt lat="45.2653985" lon="8.9977778"><ele>95.0</ele><time>2026-03-22T08:30:07.583Z</time></trkpt><trkpt lat="45.2653438" lon="8.9977137"><ele>95.0</ele><time>2026-03-22T08:30:09.573Z</time></trkpt><trkpt lat="45.2652925" lon="8.997657"><ele>95.0</ele><time>2026-03-22T08:30:11.573Z</time></trkpt><trkpt lat="45.2652391" lon="8.9975971"><ele>95.0</ele><time>2026-03-22T08:30:13.58Z</time></trkpt><trkpt lat="45.265168" lon="8.9975109"><ele>94.85714285714286</ele><time>2026-03-22T08:30:16.573Z</time></trkpt><trkpt lat="45.2650987" lon="8.9974464"><ele>94.71428571428572</ele><time>2026-03-22T08:30:18.577Z</time></trkpt><trkpt lat="45.2650331" lon="8.9973852"><ele>94.57142857142857</ele><time>2026-03-22T08:30:20.577Z</time></trkpt><trkpt lat="45.2649782" lon="8.997307"><ele>94.42857142857143</ele><time>2026-03-22T08:30:22.576Z</time></trkpt><trkpt lat="45.2649253" lon="8.997257"><ele>94.28571428571428</ele><time>2026-03-22T08:30:24.58Z</time></trkpt><trkpt lat="45.264864" lon="8.9971978"><ele>94.14285714285714</ele><time>2026-03-22T08:30:26.579Z</time></trkpt><trkpt lat="45.264809" lon="8.9971464"><ele>94.0</ele><time>2026-03-22T08:30:28.577Z</time></trkpt><trkpt lat="45.2647401" lon="8.9970808"><ele>93.57142857142857</ele><time>2026-03-22T08:30:31.579Z</time></trkpt><trkpt lat="45.2646847" lon="8.9970338"><ele>93.14285714285714</ele><time>2026-03-22T08:30:33.573Z</time></trkpt><trkpt lat="45.2646327" lon="8.9969674"><ele>92.71428571428572</ele><time>2026-03-22T08:30:35.575Z</time></trkpt><trkpt lat="45.2645736" lon="8.9969028"><ele>92.28571428571428</ele><time>2026-03-22T08:30:37.577Z</time></trkpt><trkpt lat="45.2645179" lon="8.9968323"><ele>91.85714285714286</ele><time>2026-03-22T08:30:39.579Z</time></trkpt><trkpt lat="45.2644725" lon="8.9967467"><ele>91.42857142857143</ele><time>2026-03-22T08:30:41.577Z</time></trkpt><trkpt lat="45.2644281" lon="8.9966448"><ele>91.0</ele><time>2026-03-22T08:30:43.575Z</time></trkpt><trkpt lat="45.264405" lon="8.9965381"><ele>91.0</ele><time>2026-03-22T08:30:45.584Z</time></trkpt><trkpt lat="45.2643945" lon="8.9964288"><ele>91.0</ele><time>2026-03-22T08:30:47.576Z</time></trkpt><trkpt lat="45.2644165" lon="8.9963195"><ele>91.0</ele><time>2026-03-22T08:30:49.576Z</time></trkpt><trkpt lat="45.2644294" lon="8.9962036"><ele>91.0</ele><time>2026-03-22T08:30:51.571Z</time></trkpt><trkpt lat="45.2644543" lon="8.9960912"><ele>91.0</ele><time>2026-03-22T08:30:53.571Z</time></trkpt><trkpt lat="45.2644826" lon="8.9959917"><ele>91.0</ele><time>2026-03-22T08:30:55.578Z</time></trkpt><trkpt lat="45.2645156" lon="8.9958923"><ele>90.83333333333333</ele><time>2026-03-22T08:30:57.566Z</time></trkpt><trkpt lat="45.2645478" lon="8.9957839"><ele>90.66666666666666</ele><time>2026-03-22T08:30:59.574Z</time></trkpt><trkpt lat="45.2645765" lon="8.9956892"><ele>90.5</ele><time>2026-03-22T08:31:01.572Z</time></trkpt><trkpt lat="45.2646097" lon="8.9955846"><ele>90.33333333333333</ele><time>2026-03-22T08:31:03.576Z</time></trkpt><trkpt lat="45.2646311" lon="8.9954849"><ele>90.16666666666667</ele><time>2026-03-22T08:31:05.576Z</time></trkpt><trkpt lat="45.264622" lon="8.9953904"><ele>90.0</ele><time>2026-03-22T08:31:07.575Z</time></trkpt><trkpt lat="45.2645757" lon="8.9952868"><ele>90.0</ele><time>2026-03-22T08:31:10.568Z</time></trkpt><trkpt lat="45.2645091" lon="8.9952352"><ele>90.0</ele><time>2026-03-22T08:31:12.575Z</time></trkpt><trkpt lat="45.2644268" lon="8.9951726"><ele>90.0</ele><time>2026-03-22T08:31:14.579Z</time></trkpt><trkpt lat="45.2643278" lon="8.9950846"><ele>90.0</ele><time>2026-03-22T08:31:16.577Z</time></trkpt><trkpt lat="45.2642278" lon="8.9950003"><ele>90.0</ele><time>2026-03-22T08:31:18.584Z</time></trkpt><trkpt lat="45.2641286" lon="8.9949148"><ele>89.8</ele><time>2026-03-22T08:31:20.577Z</time></trkpt><trkpt lat="45.2640801" lon="8.9948568"><ele>89.6</ele><time>2026-03-22T08:31:21.572Z</time></trkpt><trkpt lat="45.2639844" lon="8.9947462"><ele>89.4</ele><time>2026-03-22T08:31:23.576Z</time></trkpt><trkpt lat="45.2638911" lon="8.9946312"><ele>89.2</ele><time>2026-03-22T08:31:25.58Z</time></trkpt><trkpt lat="45.2638295" lon="8.9945791"><ele>89.0</ele><time>2026-03-22T08:31:26.567Z</time></trkpt><trkpt lat="45.2637695" lon="8.9945218"><ele>88.71428571428571</ele><time>2026-03-22T08:31:27.591Z</time></trkpt><trkpt lat="45.263709" lon="8.9944636"><ele>88.42857142857143</ele><time>2026-03-22T08:31:28.575Z</time></trkpt><trkpt lat="45.2636448" lon="8.9943988"><ele>88.14285714285714</ele><time>2026-03-22T08:31:29.643Z</time></trkpt><trkpt lat="45.2635838" lon="8.9943408"><ele>87.85714285714286</ele><time>2026-03-22T08:31:30.574Z</time></trkpt><trkpt lat="45.2635334" lon="8.9942771"><ele>87.57142857142857</ele><time>2026-03-22T08:31:31.635Z</time></trkpt><trkpt lat="45.2634771" lon="8.9942152"><ele>87.28571428571428</ele><time>2026-03-22T08:31:32.573Z</time></trkpt><trkpt lat="45.263419" lon="8.9941539"><ele>87.0</ele><time>2026-03-22T08:31:33.578Z</time></trkpt><trkpt lat="45.2633555" lon="8.9940869"><ele>86.83333333333333</ele><time>2026-03-22T08:31:34.58Z</time></trkpt><trkpt lat="45.2632933" lon="8.9940105"><ele>86.66666666666667</ele><time>2026-03-22T08:31:35.58Z</time></trkpt><trkpt lat="45.2632353" lon="8.9939363"><ele>86.5</ele><time>2026-03-22T08:31:36.571Z</time></trkpt><trkpt lat="45.2631733" lon="8.9938746"><ele>86.33333333333334</ele><time>2026-03-22T08:31:37.589Z</time></trkpt><trkpt lat="45.2631191" lon="8.9938241"><ele>86.16666666666667</ele><time>2026-03-22T08:31:38.58Z</time></trkpt><trkpt lat="45.2630202" lon="8.9937717"><ele>86.0</ele><time>2026-03-22T08:31:40.577Z</time></trkpt><trkpt lat="45.2629141" lon="8.993704"><ele>85.0</ele><time>2026-03-22T08:31:42.573Z</time></trkpt><trkpt lat="45.2628191" lon="8.9936984"><ele>84.0</ele><time>2026-03-22T08:31:44.573Z</time></trkpt><trkpt lat="45.262738" lon="8.9937099"><ele>83.0</ele><time>2026-03-22T08:31:46.576Z</time></trkpt><trkpt lat="45.2626425" lon="8.993734"><ele>82.0</ele><time>2026-03-22T08:31:48.57Z</time></trkpt><trkpt lat="45.262568" lon="8.9937545"><ele>81.0</ele><time>2026-03-22T08:31:50.569Z</time></trkpt><trkpt lat="45.2624454" lon="8.9937727"><ele>81.0</ele><time>2026-03-22T08:31:52.566Z</time></trkpt><trkpt lat="45.2623249" lon="8.9938004"><ele>81.0</ele><time>2026-03-22T08:31:54.577Z</time></trkpt><trkpt lat="45.2622157" lon="8.9938269"><ele>81.0</ele><time>2026-03-22T08:31:56.579Z</time></trkpt><trkpt lat="45.2621213" lon="8.9938341"><ele>81.0</ele><time>2026-03-22T08:31:58.645Z</time></trkpt><trkpt lat="45.2620482" lon="8.9938067"><ele>81.0</ele><time>2026-03-22T08:32:00.576Z</time></trkpt><trkpt lat="45.2619454" lon="8.9937911"><ele>80.5</ele><time>2026-03-22T08:32:03.574Z</time></trkpt><trkpt lat="45.2618807" lon="8.9937971"><ele>80.0</ele><time>2026-03-22T08:32:05.578Z</time></trkpt><trkpt lat="45.2617932" lon="8.9938005"><ele>79.5</ele><time>2026-03-22T08:32:08.573Z</time></trkpt><trkpt lat="45.2617109" lon="8.9937801"><ele>79.0</ele><time>2026-03-22T08:32:11.572Z</time></trkpt><trkpt lat="45.2616474" lon="8.9937586"><ele>78.5</ele><time>2026-03-22T08:32:13.578Z</time></trkpt><trkpt lat="45.261583" lon="8.9937337"><ele>78.0</ele><time>2026-03-22T08:32:15.579Z</time></trkpt><trkpt lat="45.2615059" lon="8.9936806"><ele>78.14285714285715</ele><time>2026-03-22T08:32:18.574Z</time></trkpt><trkpt lat="45.2614318" lon="8.9936316"><ele>78.28571428571428</ele><time>2026-03-22T08:32:21.574Z</time></trkpt><trkpt lat="45.2613753" lon="8.9935772"><ele>78.42857142857143</ele><time>2026-03-22T08:32:23.57Z</time></trkpt><trkpt lat="45.2613162" lon="8.9935408"><ele>78.57142857142858</ele><time>2026-03-22T08:32:25.576Z</time></trkpt><trkpt lat="45.2612484" lon="8.9935102"><ele>78.71428571428572</ele><time>2026-03-22T08:32:27.573Z</time></trkpt><trkpt lat="45.2611773" lon="8.9934995"><ele>78.85714285714286</ele><time>2026-03-22T08:32:29.59Z</time></trkpt><trkpt lat="45.2611146" lon="8.9934681"><ele>79.0</ele><time>2026-03-22T08:32:31.592Z</time></trkpt><trkpt lat="45.2610438" lon="8.9934517"><ele>79.0</ele><time>2026-03-22T08:32:33.577Z</time></trkpt><trkpt lat="45.2609712" lon="8.993437"><ele>79.0</ele><time>2026-03-22T08:32:35.584Z</time></trkpt><trkpt lat="45.2608963" lon="8.9934317"><ele>79.0</ele><time>2026-03-22T08:32:37.563Z</time></trkpt><trkpt lat="45.2608057" lon="8.9934035"><ele>79.0</ele><time>2026-03-22T08:32:40.581Z</time></trkpt><trkpt lat="45.260739" lon="8.9933725"><ele>79.0</ele><time>2026-03-22T08:32:42.576Z</time></trkpt><trkpt lat="45.2606587" lon="8.9933472"><ele>79.0</ele><time>2026-03-22T08:32:44.582Z</time></trkpt><trkpt lat="45.2605689" lon="8.9933258"><ele>78.28571428571429</ele><time>2026-03-22T08:32:46.576Z</time></trkpt><trkpt lat="45.2604874" lon="8.9932881"><ele>77.57142857142857</ele><time>2026-03-22T08:32:48.581Z</time></trkpt><trkpt lat="45.2604146" lon="8.9932543"><ele>76.85714285714286</ele><time>2026-03-22T08:32:50.575Z</time></trkpt><trkpt lat="45.2603496" lon="8.993235"><ele>76.14285714285714</ele><time>2026-03-22T08:32:52.581Z</time></trkpt><trkpt lat="45.2602874" lon="8.9932177"><ele>75.42857142857143</ele><time>2026-03-22T08:32:54.57Z</time></trkpt><trkpt lat="45.2602164" lon="8.9932209"><ele>74.71428571428572</ele><time>2026-03-22T08:32:56.579Z</time></trkpt><trkpt lat="45.2601504" lon="8.9932199"><ele>74.0</ele><time>2026-03-22T08:32:58.576Z</time></trkpt><trkpt lat="45.2600806" lon="8.9932255"><ele>74.0</ele><time>2026-03-22T08:33:00.582Z</time></trkpt><trkpt lat="45.2600116" lon="8.9932284"><ele>74.0</ele><time>2026-03-22T08:33:02.574Z</time></trkpt><trkpt lat="45.2599449" lon="8.9932445"><ele>74.0</ele><time>2026-03-22T08:33:04.575Z</time></trkpt><trkpt lat="45.2598769" lon="8.9932542"><ele>74.0</ele><time>2026-03-22T08:33:06.576Z</time></trkpt><trkpt lat="45.2598074" lon="8.9932919"><ele>74.0</ele><time>2026-03-22T08:33:08.566Z</time></trkpt><trkpt lat="45.2597557" lon="8.9933487"><ele>74.0</ele><time>2026-03-22T08:33:10.577Z</time></trkpt><trkpt lat="45.259714" lon="8.9934175"><ele>74.0</ele><time>2026-03-22T08:33:12.586Z</time></trkpt><trkpt lat="45.2596629" lon="8.9934742"><ele>75.0</ele><time>2026-03-22T08:33:14.578Z</time></trkpt><trkpt lat="45.2596019" lon="8.9935629"><ele>76.0</ele><time>2026-03-22T08:33:17.638Z</time></trkpt><trkpt lat="45.2595491" lon="8.9936228"><ele>77.0</ele><time>2026-03-22T08:33:19.578Z</time></trkpt><trkpt lat="45.2594786" lon="8.9936999"><ele>78.0</ele><time>2026-03-22T08:33:22.571Z</time></trkpt><trkpt lat="45.2594023" lon="8.9937581"><ele>79.0</ele><time>2026-03-22T08:33:25.567Z</time></trkpt><trkpt lat="45.2593141" lon="8.9937779"><ele>80.0</ele><time>2026-03-22T08:33:28.574Z</time></trkpt><trkpt lat="45.2592447" lon="8.9937923"><ele>80.0</ele><time>2026-03-22T08:33:30.569Z</time></trkpt><trkpt lat="45.259167" lon="8.9938039"><ele>80.0</ele><time>2026-03-22T08:33:32.573Z</time></trkpt><trkpt lat="45.2590857" lon="8.9938214"><ele>80.0</ele><time>2026-03-22T08:33:34.58Z</time></trkpt><trkpt lat="45.2589982" lon="8.9938404"><ele>80.0</ele><time>2026-03-22T08:33:36.581Z</time></trkpt><trkpt lat="45.2589174" lon="8.9938508"><ele>80.0</ele><time>2026-03-22T08:33:38.572Z</time></trkpt><trkpt lat="45.2588393" lon="8.9938585"><ele>80.0</ele><time>2026-03-22T08:33:40.574Z</time></trkpt><trkpt lat="45.2587783" lon="8.9938919"><ele>79.71428571428571</ele><time>2026-03-22T08:33:42.581Z</time></trkpt><trkpt lat="45.2587136" lon="8.9939711"><ele>79.42857142857143</ele><time>2026-03-22T08:33:45.572Z</time></trkpt><trkpt lat="45.2586755" lon="8.99406"><ele>79.14285714285714</ele><time>2026-03-22T08:33:47.571Z</time></trkpt><trkpt lat="45.2586443" lon="8.9941385"><ele>78.85714285714286</ele><time>2026-03-22T08:33:49.585Z</time></trkpt><trkpt lat="45.258619" lon="8.9942296"><ele>78.57142857142857</ele><time>2026-03-22T08:33:51.578Z</time></trkpt><trkpt lat="45.2585947" lon="8.9943438"><ele>78.28571428571429</ele><time>2026-03-22T08:33:54.575Z</time></trkpt><trkpt lat="45.2585833" lon="8.9944328"><ele>78.0</ele><time>2026-03-22T08:33:56.573Z</time></trkpt><trkpt lat="45.2585519" lon="8.9945362"><ele>78.0</ele><time>2026-03-22T08:33:58.576Z</time></trkpt><trkpt lat="45.2585167" lon="8.9946325"><ele>78.0</ele><time>2026-03-22T08:34:00.578Z</time></trkpt><trkpt lat="45.2584751" lon="8.9947155"><ele>78.0</ele><time>2026-03-22T08:34:02.571Z</time></trkpt><trkpt lat="45.2584274" lon="8.9947875"><ele>78.0</ele><time>2026-03-22T08:34:04.574Z</time></trkpt><trkpt lat="45.2583397" lon="8.9948306"><ele>78.0</ele><time>2026-03-22T08:34:07.574Z</time></trkpt><trkpt lat="45.2582707" lon="8.9948184"><ele>78.0</ele><time>2026-03-22T08:34:09.647Z</time></trkpt><trkpt lat="45.2582033" lon="8.9947841"><ele>78.0</ele><time>2026-03-22T08:34:11.647Z</time></trkpt><trkpt lat="45.2581329" lon="8.994771"><ele>78.0</ele><time>2026-03-22T08:34:13.58Z</time></trkpt><trkpt lat="45.2580603" lon="8.9947543"><ele>78.0</ele><time>2026-03-22T08:34:15.578Z</time></trkpt><trkpt lat="45.2579838" lon="8.9947501"><ele>78.0</ele><time>2026-03-22T08:34:17.577Z</time></trkpt><trkpt lat="45.2579033" lon="8.9947432"><ele>78.0</ele><time>2026-03-22T08:34:19.577Z</time></trkpt><trkpt lat="45.2578318" lon="8.9947265"><ele>78.0</ele><time>2026-03-22T08:34:21.575Z</time></trkpt><trkpt lat="45.2577627" lon="8.9947101"><ele>78.0</ele><time>2026-03-22T08:34:23.571Z</time></trkpt><trkpt lat="45.257695" lon="8.9946842"><ele>77.57142857142857</ele><time>2026-03-22T08:34:25.585Z</time></trkpt><trkpt lat="45.2576261" lon="8.9946702"><ele>77.14285714285714</ele><time>2026-03-22T08:34:27.572Z</time></trkpt><trkpt lat="45.2575527" lon="8.9946443"><ele>76.71428571428571</ele><time>2026-03-22T08:34:29.578Z</time></trkpt><trkpt lat="45.2574936" lon="8.9946097"><ele>76.28571428571428</ele><time>2026-03-22T08:34:31.587Z</time></trkpt><trkpt lat="45.2573996" lon="8.9945791"><ele>75.85714285714286</ele><time>2026-03-22T08:34:34.574Z</time></trkpt><trkpt lat="45.257331" lon="8.9945573"><ele>75.42857142857142</ele><time>2026-03-22T08:34:36.584Z</time></trkpt><trkpt lat="45.2572597" lon="8.9945408"><ele>75.0</ele><time>2026-03-22T08:34:38.645Z</time></trkpt><trkpt lat="45.257185" lon="8.9945253"><ele>74.14285714285714</ele><time>2026-03-22T08:34:40.578Z</time></trkpt><trkpt lat="45.2571159" lon="8.9944955"><ele>73.28571428571428</ele><time>2026-03-22T08:34:42.574Z</time></trkpt><trkpt lat="45.2570504" lon="8.9944554"><ele>72.42857142857143</ele><time>2026-03-22T08:34:44.58Z</time></trkpt><trkpt lat="45.2569876" lon="8.9944165"><ele>71.57142857142857</ele><time>2026-03-22T08:34:46.587Z</time></trkpt><trkpt lat="45.256927" lon="8.9943797"><ele>70.71428571428572</ele><time>2026-03-22T08:34:48.578Z</time></trkpt><trkpt lat="45.2568695" lon="8.9943325"><ele>69.85714285714286</ele><time>2026-03-22T08:34:50.582Z</time></trkpt><trkpt lat="45.2567946" lon="8.9942727"><ele>69.0</ele><time>2026-03-22T08:34:53.572Z</time></trkpt><trkpt lat="45.2567204" lon="8.9942034"><ele>69.33333333333333</ele><time>2026-03-22T08:34:56.572Z</time></trkpt><trkpt lat="45.2566631" lon="8.9941537"><ele>69.66666666666667</ele><time>2026-03-22T08:34:58.572Z</time></trkpt><trkpt lat="45.2565793" lon="8.9941419"><ele>70.0</ele><time>2026-03-22T08:35:00.568Z</time></trkpt><trkpt lat="45.2564963" lon="8.9941115"><ele>70.33333333333334</ele><time>2026-03-22T08:35:02.569Z</time></trkpt><trkpt lat="45.2564259" lon="8.9940721"><ele>70.66666666666667</ele><time>2026-03-22T08:35:04.578Z</time></trkpt><trkpt lat="45.256359" lon="8.994031"><ele>71.0</ele><time>2026-03-22T08:35:06.578Z</time></trkpt><trkpt lat="45.256287" lon="8.9939914"><ele>71.5</ele><time>2026-03-22T08:35:08.581Z</time></trkpt><trkpt lat="45.2562153" lon="8.9939575"><ele>72.0</ele><time>2026-03-22T08:35:10.574Z</time></trkpt><trkpt lat="45.2561396" lon="8.993918"><ele>72.5</ele><time>2026-03-22T08:35:12.576Z</time></trkpt><trkpt lat="45.256072" lon="8.9938921"><ele>73.0</ele><time>2026-03-22T08:35:14.576Z</time></trkpt><trkpt lat="45.255996" lon="8.9938736"><ele>73.5</ele><time>2026-03-22T08:35:16.57Z</time></trkpt><trkpt lat="45.2559164" lon="8.9938445"><ele>74.0</ele><time>2026-03-22T08:35:18.569Z</time></trkpt><trkpt lat="45.2558197" lon="8.9938298"><ele>74.0</ele><time>2026-03-22T08:35:20.57Z</time></trkpt><trkpt lat="45.2557507" lon="8.9937821"><ele>74.0</ele><time>2026-03-22T08:35:22.569Z</time></trkpt><trkpt lat="45.255686" lon="8.9937452"><ele>74.0</ele><time>2026-03-22T08:35:24.569Z</time></trkpt><trkpt lat="45.2556141" lon="8.9937103"><ele>74.0</ele><time>2026-03-22T08:35:26.567Z</time></trkpt><trkpt lat="45.2555312" lon="8.9936805"><ele>74.0</ele><time>2026-03-22T08:35:28.575Z</time></trkpt><trkpt lat="45.2554584" lon="8.9936595"><ele>74.0</ele><time>2026-03-22T08:35:30.569Z</time></trkpt><trkpt lat="45.255384" lon="8.9936205"><ele>74.28571428571429</ele><time>2026-03-22T08:35:32.573Z</time></trkpt><trkpt lat="45.2553145" lon="8.9935783"><ele>74.57142857142857</ele><time>2026-03-22T08:35:34.581Z</time></trkpt><trkpt lat="45.2552517" lon="8.9935543"><ele>74.85714285714286</ele><time>2026-03-22T08:35:36.583Z</time></trkpt><trkpt lat="45.2551877" lon="8.9935288"><ele>75.14285714285714</ele><time>2026-03-22T08:35:38.573Z</time></trkpt><trkpt lat="45.2551253" lon="8.9935011"><ele>75.42857142857143</ele><time>2026-03-22T08:35:40.573Z</time></trkpt><trkpt lat="45.2550376" lon="8.9934476"><ele>75.71428571428571</ele><time>2026-03-22T08:35:43.587Z</time></trkpt><trkpt lat="45.2549703" lon="8.9934056"><ele>76.0</ele><time>2026-03-22T08:35:45.576Z</time></trkpt><trkpt lat="45.2549015" lon="8.9933704"><ele>76.0</ele><time>2026-03-22T08:35:47.581Z</time></trkpt><trkpt lat="45.2548359" lon="8.9933482"><ele>76.0</ele><time>2026-03-22T08:35:49.594Z</time></trkpt><trkpt lat="45.2547428" lon="8.9933143"><ele>76.0</ele><time>2026-03-22T08:35:52.573Z</time></trkpt><trkpt lat="45.254678" lon="8.9932656"><ele>76.0</ele><time>2026-03-22T08:35:54.573Z</time></trkpt><trkpt lat="45.2546113" lon="8.9932056"><ele>76.0</ele><time>2026-03-22T08:35:56.573Z</time></trkpt><trkpt lat="45.2545429" lon="8.9931541"><ele>76.0</ele><time>2026-03-22T08:35:58.582Z</time></trkpt><trkpt lat="45.2544811" lon="8.9931127"><ele>76.0</ele><time>2026-03-22T08:36:00.574Z</time></trkpt><trkpt lat="45.2544209" lon="8.9930779"><ele>76.0</ele><time>2026-03-22T08:36:02.577Z</time></trkpt><trkpt lat="45.2543588" lon="8.9930262"><ele>76.0</ele><time>2026-03-22T08:36:06.578Z</time></trkpt><trkpt lat="45.2542794" lon="8.9929868"><ele>76.0</ele><time>2026-03-22T08:36:10.653Z</time></trkpt><trkpt lat="45.2542157" lon="8.9929258"><ele>76.0</ele><time>2026-03-22T08:36:13.574Z</time></trkpt><trkpt lat="45.2541498" lon="8.9928272"><ele>76.0</ele><time>2026-03-22T08:36:16.57Z</time></trkpt><trkpt lat="45.2541089" lon="8.9927299"><ele>76.0</ele><time>2026-03-22T08:36:19.575Z</time></trkpt><trkpt lat="45.2540857" lon="8.9926438"><ele>76.0</ele><time>2026-03-22T08:36:21.577Z</time></trkpt><trkpt lat="45.2540616" lon="8.9925182"><ele>76.0</ele><time>2026-03-22T08:36:24.577Z</time></trkpt><trkpt lat="45.2540345" lon="8.992409"><ele>76.0</ele><time>2026-03-22T08:36:27.574Z</time></trkpt><trkpt lat="45.2539943" lon="8.9922949"><ele>76.0</ele><time>2026-03-22T08:36:30.583Z</time></trkpt><trkpt lat="45.2539632" lon="8.9921838"><ele>76.0</ele><time>2026-03-22T08:36:32.575Z</time></trkpt><trkpt lat="45.2539261" lon="8.9920731"><ele>75.66666666666666</ele><time>2026-03-22T08:36:34.581Z</time></trkpt><trkpt lat="45.2538723" lon="8.9919742"><ele>75.33333333333333</ele><time>2026-03-22T08:36:36.577Z</time></trkpt><trkpt lat="45.2538077" lon="8.9918871"><ele>75.0</ele><time>2026-03-22T08:36:38.572Z</time></trkpt><trkpt lat="45.2537467" lon="8.9918059"><ele>74.66666666666667</ele><time>2026-03-22T08:36:40.567Z</time></trkpt><trkpt lat="45.2536961" lon="8.9917422"><ele>74.33333333333334</ele><time>2026-03-22T08:36:42.574Z</time></trkpt><trkpt lat="45.2536337" lon="8.9916902"><ele>74.0</ele><time>2026-03-22T08:36:44.577Z</time></trkpt><trkpt lat="45.2535723" lon="8.9916534"><ele>73.83333333333334</ele><time>2026-03-22T08:36:46.572Z</time></trkpt><trkpt lat="45.2535136" lon="8.9916011"><ele>73.66666666666667</ele><time>2026-03-22T08:36:48.582Z</time></trkpt><trkpt lat="45.2534377" lon="8.9915701"><ele>73.5</ele><time>2026-03-22T08:36:50.656Z</time></trkpt><trkpt lat="45.253363" lon="8.9915311"><ele>73.33333333333333</ele><time>2026-03-22T08:36:52.58Z</time></trkpt><trkpt lat="45.2532897" lon="8.9915171"><ele>73.16666666666666</ele><time>2026-03-22T08:36:54.575Z</time></trkpt><trkpt lat="45.2532202" lon="8.9915168"><ele>73.0</ele><time>2026-03-22T08:36:56.575Z</time></trkpt><trkpt lat="45.2531274" lon="8.9915363"><ele>73.14285714285714</ele><time>2026-03-22T08:36:59.575Z</time></trkpt><trkpt lat="45.2530416" lon="8.991577"><ele>73.28571428571429</ele><time>2026-03-22T08:37:02.579Z</time></trkpt><trkpt lat="45.2529739" lon="8.9916171"><ele>73.42857142857143</ele><time>2026-03-22T08:37:04.651Z</time></trkpt><trkpt lat="45.2529075" lon="8.991634"><ele>73.57142857142857</ele><time>2026-03-22T08:37:06.572Z</time></trkpt><trkpt lat="45.2528323" lon="8.9916621"><ele>73.71428571428571</ele><time>2026-03-22T08:37:08.576Z</time></trkpt><trkpt lat="45.2527606" lon="8.9916903"><ele>73.85714285714286</ele><time>2026-03-22T08:37:10.577Z</time></trkpt><trkpt lat="45.2526986" lon="8.9917178"><ele>74.0</ele><time>2026-03-22T08:37:12.575Z</time></trkpt><trkpt lat="45.2526338" lon="8.9917422"><ele>74.0</ele><time>2026-03-22T08:37:14.575Z</time></trkpt><trkpt lat="45.2525674" lon="8.9917625"><ele>74.0</ele><time>2026-03-22T08:37:16.572Z</time></trkpt><trkpt lat="45.2524728" lon="8.9918171"><ele>74.0</ele><time>2026-03-22T08:37:19.578Z</time></trkpt><trkpt lat="45.2524044" lon="8.9918403"><ele>74.0</ele><time>2026-03-22T08:37:21.572Z</time></trkpt><trkpt lat="45.2523282" lon="8.9918457"><ele>74.0</ele><time>2026-03-22T08:37:23.573Z</time></trkpt><trkpt lat="45.2522605" lon="8.9918632"><ele>74.0</ele><time>2026-03-22T08:37:25.578Z</time></trkpt><trkpt lat="45.2521965" lon="8.9918812"><ele>74.0</ele><time>2026-03-22T08:37:27.581Z</time></trkpt><trkpt lat="45.2521024" lon="8.991899"><ele>74.0</ele><time>2026-03-22T08:37:30.574Z</time></trkpt><trkpt lat="45.2520333" lon="8.9919208"><ele>74.0</ele><time>2026-03-22T08:37:32.584Z</time></trkpt><trkpt lat="45.2519368" lon="8.9919616"><ele>74.0</ele><time>2026-03-22T08:37:35.569Z</time></trkpt><trkpt lat="45.251864" lon="8.991981"><ele>74.0</ele><time>2026-03-22T08:37:37.576Z</time></trkpt><trkpt lat="45.2517879" lon="8.991995"><ele>74.0</ele><time>2026-03-22T08:37:39.573Z</time></trkpt><trkpt lat="45.2517219" lon="8.9920053"><ele>74.0</ele><time>2026-03-22T08:37:41.572Z</time></trkpt><trkpt lat="45.2516436" lon="8.9920093"><ele>74.0</ele><time>2026-03-22T08:37:43.578Z</time></trkpt><trkpt lat="45.2515744" lon="8.991993"><ele>74.0</ele><time>2026-03-22T08:37:45.575Z</time></trkpt><trkpt lat="45.2514962" lon="8.9919895"><ele>74.0</ele><time>2026-03-22T08:37:47.58Z</time></trkpt><trkpt lat="45.2514304" lon="8.9920108"><ele>74.0</ele><time>2026-03-22T08:37:49.591Z</time></trkpt><trkpt lat="45.251364" lon="8.9920408"><ele>74.0</ele><time>2026-03-22T08:37:51.586Z</time></trkpt><trkpt lat="45.2512703" lon="8.9920834"><ele>74.16666666666667</ele><time>2026-03-22T08:37:54.573Z</time></trkpt><trkpt lat="45.2512019" lon="8.9921184"><ele>74.33333333333334</ele><time>2026-03-22T08:37:56.579Z</time></trkpt><trkpt lat="45.2511281" lon="8.992147"><ele>74.5</ele><time>2026-03-22T08:37:58.571Z</time></trkpt><trkpt lat="45.2510488" lon="8.9921739"><ele>74.66666666666667</ele><time>2026-03-22T08:38:00.569Z</time></trkpt><trkpt lat="45.2509667" lon="8.9921943"><ele>74.83333333333333</ele><time>2026-03-22T08:38:02.633Z</time></trkpt><trkpt lat="45.2508908" lon="8.992209"><ele>75.0</ele><time>2026-03-22T08:38:04.581Z</time></trkpt><trkpt lat="45.2508156" lon="8.9922293"><ele>75.0</ele><time>2026-03-22T08:38:06.572Z</time></trkpt><trkpt lat="45.2507363" lon="8.9922534"><ele>75.0</ele><time>2026-03-22T08:38:08.578Z</time></trkpt><trkpt lat="45.2506534" lon="8.9922595"><ele>75.0</ele><time>2026-03-22T08:38:10.574Z</time></trkpt><trkpt lat="45.2505705" lon="8.9922527"><ele>75.0</ele><time>2026-03-22T08:38:12.576Z</time></trkpt><trkpt lat="45.2504939" lon="8.9922819"><ele>75.0</ele><time>2026-03-22T08:38:15.57Z</time></trkpt><trkpt lat="45.2504379" lon="8.9923856"><ele>75.0</ele><time>2026-03-22T08:38:18.575Z</time></trkpt><trkpt lat="45.2504" lon="8.9924687"><ele>74.5</ele><time>2026-03-22T08:38:20.576Z</time></trkpt><trkpt lat="45.2503576" lon="8.992589"><ele>74.0</ele><time>2026-03-22T08:38:23.573Z</time></trkpt><trkpt lat="45.2503383" lon="8.9926814"><ele>73.5</ele><time>2026-03-22T08:38:25.568Z</time></trkpt><trkpt lat="45.2503167" lon="8.9927748"><ele>73.0</ele><time>2026-03-22T08:38:27.585Z</time></trkpt><trkpt lat="45.2502742" lon="8.992897"><ele>72.5</ele><time>2026-03-22T08:38:30.575Z</time></trkpt><trkpt lat="45.250239" lon="8.9929712"><ele>72.0</ele><time>2026-03-22T08:38:32.57Z</time></trkpt><trkpt lat="45.2501896" lon="8.9930511"><ele>72.0</ele><time>2026-03-22T08:38:34.57Z</time></trkpt><trkpt lat="45.2501266" lon="8.9931068"><ele>72.0</ele><time>2026-03-22T08:38:36.573Z</time></trkpt><trkpt lat="45.2500621" lon="8.9931708"><ele>72.0</ele><time>2026-03-22T08:38:38.569Z</time></trkpt><trkpt lat="45.2500038" lon="8.9932535"><ele>72.0</ele><time>2026-03-22T08:38:40.576Z</time></trkpt><trkpt lat="45.2499424" lon="8.9933415"><ele>72.0</ele><time>2026-03-22T08:38:42.58Z</time></trkpt><trkpt lat="45.2498756" lon="8.9934089"><ele>72.0</ele><time>2026-03-22T08:38:44.575Z</time></trkpt><trkpt lat="45.2497939" lon="8.9934755"><ele>72.33333333333333</ele><time>2026-03-22T08:38:46.584Z</time></trkpt><trkpt lat="45.2497253" lon="8.9935612"><ele>72.66666666666667</ele><time>2026-03-22T08:38:48.574Z</time></trkpt><trkpt lat="45.249666" lon="8.993622"><ele>73.0</ele><time>2026-03-22T08:38:50.572Z</time></trkpt><trkpt lat="45.2495964" lon="8.9936962"><ele>73.33333333333334</ele><time>2026-03-22T08:38:52.58Z</time></trkpt><trkpt lat="45.2495492" lon="8.9937653"><ele>73.66666666666667</ele><time>2026-03-22T08:38:54.577Z</time></trkpt><trkpt lat="45.2494765" lon="8.9938524"><ele>74.0</ele><time>2026-03-22T08:38:56.567Z</time></trkpt><trkpt lat="45.2494266" lon="8.9939097"><ele>74.0</ele><time>2026-03-22T08:38:58.582Z</time></trkpt><trkpt lat="45.2493518" lon="8.9939628"><ele>74.0</ele><time>2026-03-22T08:39:00.578Z</time></trkpt><trkpt lat="45.2492975" lon="8.9940139"><ele>74.0</ele><time>2026-03-22T08:39:02.577Z</time></trkpt><trkpt lat="45.2492218" lon="8.9940708"><ele>74.0</ele><time>2026-03-22T08:39:04.579Z</time></trkpt><trkpt lat="45.2491503" lon="8.9941001"><ele>74.0</ele><time>2026-03-22T08:39:06.579Z</time></trkpt><trkpt lat="45.2490843" lon="8.994141"><ele>74.0</ele><time>2026-03-22T08:39:08.577Z</time></trkpt><trkpt lat="45.2490095" lon="8.9942504"><ele>73.66666666666667</ele><time>2026-03-22T08:39:10.581Z</time></trkpt><trkpt lat="45.2489363" lon="8.9942968"><ele>73.33333333333334</ele><time>2026-03-22T08:39:12.579Z</time></trkpt><trkpt lat="45.2488803" lon="8.9943464"><ele>73.0</ele><time>2026-03-22T08:39:14.574Z</time></trkpt><trkpt lat="45.2488005" lon="8.9944147"><ele>72.66666666666667</ele><time>2026-03-22T08:39:17.577Z</time></trkpt><trkpt lat="45.2487332" lon="8.9944584"><ele>72.33333333333333</ele><time>2026-03-22T08:39:19.575Z</time></trkpt><trkpt lat="45.2486587" lon="8.9945158"><ele>72.0</ele><time>2026-03-22T08:39:22.578Z</time></trkpt><trkpt lat="45.2485978" lon="8.9945979"><ele>72.0</ele><time>2026-03-22T08:39:24.582Z</time></trkpt><trkpt lat="45.2485135" lon="8.9947084"><ele>72.0</ele><time>2026-03-22T08:39:26.577Z</time></trkpt><trkpt lat="45.248448" lon="8.9947577"><ele>72.0</ele><time>2026-03-22T08:39:28.583Z</time></trkpt><trkpt lat="45.2483495" lon="8.9948281"><ele>72.0</ele><time>2026-03-22T08:39:30.579Z</time></trkpt><trkpt lat="45.2483002" lon="8.9948856"><ele>72.0</ele><time>2026-03-22T08:39:32.647Z</time></trkpt><trkpt lat="45.2482382" lon="8.9949411"><ele>72.0</ele><time>2026-03-22T08:39:34.574Z</time></trkpt><trkpt lat="45.2481735" lon="8.9950176"><ele>72.28571428571429</ele><time>2026-03-22T08:39:36.578Z</time></trkpt><trkpt lat="45.2481177" lon="8.9950753"><ele>72.57142857142857</ele><time>2026-03-22T08:39:38.587Z</time></trkpt><trkpt lat="45.2480495" lon="8.9951266"><ele>72.85714285714286</ele><time>2026-03-22T08:39:40.567Z</time></trkpt><trkpt lat="45.2479832" lon="8.9951631"><ele>73.14285714285714</ele><time>2026-03-22T08:39:42.572Z</time></trkpt><trkpt lat="45.2479248" lon="8.9952031"><ele>73.42857142857143</ele><time>2026-03-22T08:39:44.572Z</time></trkpt><trkpt lat="45.247861" lon="8.9952488"><ele>73.71428571428572</ele><time>2026-03-22T08:39:46.638Z</time></trkpt><trkpt lat="45.2477941" lon="8.9953078"><ele>74.0</ele><time>2026-03-22T08:39:48.582Z</time></trkpt><trkpt lat="45.2477284" lon="8.9953625"><ele>74.0</ele><time>2026-03-22T08:39:50.574Z</time></trkpt><trkpt lat="45.2476686" lon="8.9954167"><ele>74.0</ele><time>2026-03-22T08:39:52.573Z</time></trkpt><trkpt lat="45.2476085" lon="8.9954737"><ele>74.0</ele><time>2026-03-22T08:39:54.562Z</time></trkpt><trkpt lat="45.2475526" lon="8.9955158"><ele>74.0</ele><time>2026-03-22T08:39:56.573Z</time></trkpt><trkpt lat="45.2474939" lon="8.9955641"><ele>74.0</ele><time>2026-03-22T08:39:58.581Z</time></trkpt><trkpt lat="45.2474393" lon="8.9956126"><ele>74.0</ele><time>2026-03-22T08:40:00.658Z</time></trkpt><trkpt lat="45.247385" lon="8.9956701"><ele>74.0</ele><time>2026-03-22T08:40:02.576Z</time></trkpt><trkpt lat="45.2473252" lon="8.9957418"><ele>74.33333333333334</ele><time>2026-03-22T08:40:04.578Z</time></trkpt><trkpt lat="45.2472495" lon="8.9958026"><ele>74.66666666666667</ele><time>2026-03-22T08:40:06.571Z</time></trkpt><trkpt lat="45.2471788" lon="8.9958555"><ele>75.0</ele><time>2026-03-22T08:40:08.588Z</time></trkpt><trkpt lat="45.2471127" lon="8.9959176"><ele>75.33333333333333</ele><time>2026-03-22T08:40:10.577Z</time></trkpt><trkpt lat="45.247052" lon="8.9959728"><ele>75.66666666666666</ele><time>2026-03-22T08:40:12.574Z</time></trkpt><trkpt lat="45.2469791" lon="8.9960419"><ele>76.0</ele><time>2026-03-22T08:40:15.589Z</time></trkpt><trkpt lat="45.2468997" lon="8.9961"><ele>76.0</ele><time>2026-03-22T08:40:18.572Z</time></trkpt><trkpt lat="45.2468368" lon="8.996141"><ele>76.0</ele><time>2026-03-22T08:40:20.57Z</time></trkpt><trkpt lat="45.2467682" lon="8.9961875"><ele>76.0</ele><time>2026-03-22T08:40:22.577Z</time></trkpt><trkpt lat="45.2466893" lon="8.9962404"><ele>76.0</ele><time>2026-03-22T08:40:24.583Z</time></trkpt><trkpt lat="45.2466264" lon="8.9962952"><ele>76.0</ele><time>2026-03-22T08:40:26.575Z</time></trkpt><trkpt lat="45.2465679" lon="8.9963897"><ele>76.0</ele><time>2026-03-22T08:40:28.586Z</time></trkpt><trkpt lat="45.2464849" lon="8.9964778"><ele>75.83333333333333</ele><time>2026-03-22T08:40:30.576Z</time></trkpt><trkpt lat="45.2464066" lon="8.996521"><ele>75.66666666666666</ele><time>2026-03-22T08:40:32.575Z</time></trkpt><trkpt lat="45.2463334" lon="8.9965606"><ele>75.5</ele><time>2026-03-22T08:40:33.578Z</time></trkpt><trkpt lat="45.2462771" lon="8.9966361"><ele>75.33333333333333</ele><time>2026-03-22T08:40:35.578Z</time></trkpt><trkpt lat="45.2462202" lon="8.996691"><ele>75.16666666666667</ele><time>2026-03-22T08:40:37.567Z</time></trkpt><trkpt lat="45.2461375" lon="8.9966562"><ele>75.0</ele><time>2026-03-22T08:40:40.577Z</time></trkpt><trkpt lat="45.2460808" lon="8.9965514"><ele>74.66666666666667</ele><time>2026-03-22T08:40:42.578Z</time></trkpt><trkpt lat="45.2460137" lon="8.9964605"><ele>74.33333333333333</ele><time>2026-03-22T08:40:44.578Z</time></trkpt><trkpt lat="45.2459745" lon="8.9963585"><ele>74.0</ele><time>2026-03-22T08:40:46.573Z</time></trkpt><trkpt lat="45.2459211" lon="8.9962723"><ele>73.66666666666666</ele><time>2026-03-22T08:40:48.575Z</time></trkpt><trkpt lat="45.2458715" lon="8.9962112"><ele>73.33333333333333</ele><time>2026-03-22T08:40:50.578Z</time></trkpt><trkpt lat="45.2458175" lon="8.9961595"><ele>73.0</ele><time>2026-03-22T08:40:52.57Z</time></trkpt><trkpt lat="45.2457639" lon="8.9960937"><ele>73.0</ele><time>2026-03-22T08:40:54.574Z</time></trkpt><trkpt lat="45.2457104" lon="8.9960028"><ele>73.0</ele><time>2026-03-22T08:40:56.576Z</time></trkpt><trkpt lat="45.2456689" lon="8.9959112"><ele>73.0</ele><time>2026-03-22T08:40:58.578Z</time></trkpt><trkpt lat="45.2455812" lon="8.9958767"><ele>73.0</ele><time>2026-03-22T08:41:01.571Z</time></trkpt><trkpt lat="45.2455142" lon="8.9959425"><ele>73.0</ele><time>2026-03-22T08:41:03.578Z</time></trkpt><trkpt lat="45.2454739" lon="8.996046"><ele>73.0</ele><time>2026-03-22T08:41:05.576Z</time></trkpt><trkpt lat="45.2454371" lon="8.9961495"><ele>72.5</ele><time>2026-03-22T08:41:07.643Z</time></trkpt><trkpt lat="45.2453875" lon="8.996222"><ele>72.0</ele><time>2026-03-22T08:41:09.581Z</time></trkpt><trkpt lat="45.2453329" lon="8.996301"><ele>71.5</ele><time>2026-03-22T08:41:11.581Z</time></trkpt><trkpt lat="45.2452592" lon="8.9963901"><ele>71.0</ele><time>2026-03-22T08:41:13.566Z</time></trkpt><trkpt lat="45.2452062" lon="8.9964764"><ele>70.5</ele><time>2026-03-22T08:41:15.581Z</time></trkpt><trkpt lat="45.245158" lon="8.9965435"><ele>70.0</ele><time>2026-03-22T08:41:17.575Z</time></trkpt><trkpt lat="45.245077" lon="8.9965816"><ele>70.0</ele><time>2026-03-22T08:41:19.573Z</time></trkpt><trkpt lat="45.2449957" lon="8.9966026"><ele>70.0</ele><time>2026-03-22T08:41:21.575Z</time></trkpt><trkpt lat="45.2449221" lon="8.9966642"><ele>70.0</ele><time>2026-03-22T08:41:24.584Z</time></trkpt><trkpt lat="45.2448505" lon="8.9967216"><ele>70.0</ele><time>2026-03-22T08:41:27.574Z</time></trkpt><trkpt lat="45.2447947" lon="8.9967637"><ele>70.0</ele><time>2026-03-22T08:41:29.58Z</time></trkpt><trkpt lat="45.2447369" lon="8.9968153"><ele>70.0</ele><time>2026-03-22T08:41:31.577Z</time></trkpt><trkpt lat="45.2446486" lon="8.9968822"><ele>70.28571428571429</ele><time>2026-03-22T08:41:34.57Z</time></trkpt><trkpt lat="45.2445884" lon="8.9969254"><ele>70.57142857142857</ele><time>2026-03-22T08:41:36.574Z</time></trkpt><trkpt lat="45.2445276" lon="8.9969761"><ele>70.85714285714286</ele><time>2026-03-22T08:41:38.571Z</time></trkpt><trkpt lat="45.2444625" lon="8.997037"><ele>71.14285714285714</ele><time>2026-03-22T08:41:40.585Z</time></trkpt><trkpt lat="45.2444107" lon="8.9970962"><ele>71.42857142857143</ele><time>2026-03-22T08:41:42.574Z</time></trkpt><trkpt lat="45.2443492" lon="8.9971681"><ele>71.71428571428572</ele><time>2026-03-22T08:41:44.57Z</time></trkpt><trkpt lat="45.2442896" lon="8.9972454"><ele>72.0</ele><time>2026-03-22T08:41:46.57Z</time></trkpt><trkpt lat="45.2442249" lon="8.9973216"><ele>72.0</ele><time>2026-03-22T08:41:48.574Z</time></trkpt><trkpt lat="45.2441541" lon="8.997382"><ele>72.0</ele><time>2026-03-22T08:41:50.572Z</time></trkpt><trkpt lat="45.2441237" lon="8.9974701"><ele>72.0</ele><time>2026-03-22T08:41:52.577Z</time></trkpt><trkpt lat="45.2440886" lon="8.9975592"><ele>72.0</ele><time>2026-03-22T08:41:54.582Z</time></trkpt><trkpt lat="45.2440634" lon="8.9976491"><ele>72.0</ele><time>2026-03-22T08:41:56.578Z</time></trkpt><trkpt lat="45.2440423" lon="8.9977566"><ele>72.0</ele><time>2026-03-22T08:41:58.582Z</time></trkpt><trkpt lat="45.2440412" lon="8.9978694"><ele>72.0</ele><time>2026-03-22T08:42:00.574Z</time></trkpt><trkpt lat="45.2440389" lon="8.9979979"><ele>72.0</ele><time>2026-03-22T08:42:02.647Z</time></trkpt><trkpt lat="45.2440272" lon="8.9981341"><ele>72.0</ele><time>2026-03-22T08:42:04.588Z</time></trkpt><trkpt lat="45.2439996" lon="8.9982189"><ele>72.0</ele><time>2026-03-22T08:42:06.58Z</time></trkpt><trkpt lat="45.2439554" lon="8.9983104"><ele>72.0</ele><time>2026-03-22T08:42:09.569Z</time></trkpt><trkpt lat="45.2439082" lon="8.9983787"><ele>72.0</ele><time>2026-03-22T08:42:11.582Z</time></trkpt><trkpt lat="45.2438621" lon="8.9984427"><ele>72.14285714285715</ele><time>2026-03-22T08:42:13.574Z</time></trkpt><trkpt lat="45.2438167" lon="8.9985063"><ele>72.28571428571429</ele><time>2026-03-22T08:42:15.653Z</time></trkpt><trkpt lat="45.2437757" lon="8.9985947"><ele>72.42857142857143</ele><time>2026-03-22T08:42:17.574Z</time></trkpt><trkpt lat="45.2437206" lon="8.9986741"><ele>72.57142857142858</ele><time>2026-03-22T08:42:19.563Z</time></trkpt><trkpt lat="45.2436615" lon="8.9987624"><ele>72.71428571428572</ele><time>2026-03-22T08:42:21.58Z</time></trkpt><trkpt lat="45.2436243" lon="8.9988516"><ele>72.85714285714286</ele><time>2026-03-22T08:42:23.588Z</time></trkpt><trkpt lat="45.2435908" lon="8.9989412"><ele>73.0</ele><time>2026-03-22T08:42:25.596Z</time></trkpt><trkpt lat="45.2435374" lon="8.9990254"><ele>73.0</ele><time>2026-03-22T08:42:27.574Z</time></trkpt><trkpt lat="45.2434791" lon="8.9991076"><ele>73.0</ele><time>2026-03-22T08:42:29.645Z</time></trkpt><trkpt lat="45.2434353" lon="8.9991738"><ele>73.0</ele><time>2026-03-22T08:42:31.585Z</time></trkpt><trkpt lat="45.2433834" lon="8.9992453"><ele>73.0</ele><time>2026-03-22T08:42:33.573Z</time></trkpt><trkpt lat="45.2433322" lon="8.9993147"><ele>73.0</ele><time>2026-03-22T08:42:35.578Z</time></trkpt><trkpt lat="45.243282" lon="8.9993712"><ele>73.0</ele><time>2026-03-22T08:42:37.578Z</time></trkpt><trkpt lat="45.2432168" lon="8.9994136"><ele>73.0</ele><time>2026-03-22T08:42:39.57Z</time></trkpt><trkpt lat="45.2431422" lon="8.9994587"><ele>73.0</ele><time>2026-03-22T08:42:41.574Z</time></trkpt><trkpt lat="45.24306" lon="8.9994911"><ele>73.0</ele><time>2026-03-22T08:42:43.651Z</time></trkpt><trkpt lat="45.242987" lon="8.999542"><ele>73.0</ele><time>2026-03-22T08:42:45.574Z</time></trkpt><trkpt lat="45.2429053" lon="8.9995789"><ele>73.0</ele><time>2026-03-22T08:42:47.578Z</time></trkpt><trkpt lat="45.2428343" lon="8.999605"><ele>73.0</ele><time>2026-03-22T08:42:49.578Z</time></trkpt><trkpt lat="45.2427653" lon="8.9996308"><ele>73.0</ele><time>2026-03-22T08:42:51.573Z</time></trkpt><trkpt lat="45.2426776" lon="8.9996603"><ele>73.0</ele><time>2026-03-22T08:42:54.565Z</time></trkpt><trkpt lat="45.2425863" lon="8.9996799"><ele>73.0</ele><time>2026-03-22T08:42:57.651Z</time></trkpt><trkpt lat="45.2425226" lon="8.9996877"><ele>73.0</ele><time>2026-03-22T08:42:59.575Z</time></trkpt><trkpt lat="45.2424461" lon="8.9997125"><ele>73.0</ele><time>2026-03-22T08:43:01.569Z</time></trkpt><trkpt lat="45.2423611" lon="8.9997611"><ele>73.0</ele><time>2026-03-22T08:43:03.575Z</time></trkpt><trkpt lat="45.2422742" lon="8.9998023"><ele>73.0</ele><time>2026-03-22T08:43:05.577Z</time></trkpt><trkpt lat="45.242194" lon="8.9998263"><ele>72.66666666666666</ele><time>2026-03-22T08:43:07.586Z</time></trkpt><trkpt lat="45.2421164" lon="8.9998643"><ele>72.33333333333333</ele><time>2026-03-22T08:43:09.573Z</time></trkpt><trkpt lat="45.2420544" lon="8.9999134"><ele>72.0</ele><time>2026-03-22T08:43:11.573Z</time></trkpt><trkpt lat="45.2419806" lon="8.9999589"><ele>71.66666666666667</ele><time>2026-03-22T08:43:13.579Z</time></trkpt><trkpt lat="45.2419147" lon="9.0000238"><ele>71.33333333333334</ele><time>2026-03-22T08:43:15.575Z</time></trkpt><trkpt lat="45.2418549" lon="9.0001198"><ele>71.0</ele><time>2026-03-22T08:43:17.578Z</time></trkpt><trkpt lat="45.2418096" lon="9.0002271"><ele>71.0</ele><time>2026-03-22T08:43:19.583Z</time></trkpt><trkpt lat="45.2417828" lon="9.0003516"><ele>71.0</ele><time>2026-03-22T08:43:21.579Z</time></trkpt><trkpt lat="45.2417771" lon="9.0004553"><ele>71.0</ele><time>2026-03-22T08:43:23.648Z</time></trkpt><trkpt lat="45.2417874" lon="9.0005803"><ele>71.0</ele><time>2026-03-22T08:43:26.566Z</time></trkpt><trkpt lat="45.2417924" lon="9.0006973"><ele>71.0</ele><time>2026-03-22T08:43:29.572Z</time></trkpt><trkpt lat="45.241761" lon="9.000779"><ele>71.0</ele><time>2026-03-22T08:43:31.575Z</time></trkpt><trkpt lat="45.2417301" lon="9.0008665"><ele>71.14285714285714</ele><time>2026-03-22T08:43:33.582Z</time></trkpt><trkpt lat="45.2416861" lon="9.0009842"><ele>71.28571428571428</ele><time>2026-03-22T08:43:36.576Z</time></trkpt><trkpt lat="45.2416385" lon="9.0010464"><ele>71.42857142857143</ele><time>2026-03-22T08:43:38.571Z</time></trkpt><trkpt lat="45.2416018" lon="9.0011332"><ele>71.57142857142857</ele><time>2026-03-22T08:43:40.578Z</time></trkpt><trkpt lat="45.2415577" lon="9.0012088"><ele>71.71428571428572</ele><time>2026-03-22T08:43:42.569Z</time></trkpt><trkpt lat="45.24151" lon="9.0012982"><ele>71.85714285714286</ele><time>2026-03-22T08:43:44.566Z</time></trkpt><trkpt lat="45.2414667" lon="9.0013689"><ele>72.0</ele><time>2026-03-22T08:43:46.569Z</time></trkpt><trkpt lat="45.2414049" lon="9.0014471"><ele>72.0</ele><time>2026-03-22T08:43:48.574Z</time></trkpt><trkpt lat="45.2413273" lon="9.0014955"><ele>72.0</ele><time>2026-03-22T08:43:50.57Z</time></trkpt><trkpt lat="45.2412549" lon="9.0015088"><ele>72.0</ele><time>2026-03-22T08:43:52.575Z</time></trkpt><trkpt lat="45.2411749" lon="9.0015346"><ele>72.0</ele><time>2026-03-22T08:43:54.576Z</time></trkpt><trkpt lat="45.2410933" lon="9.0015609"><ele>72.0</ele><time>2026-03-22T08:43:56.575Z</time></trkpt><trkpt lat="45.2410253" lon="9.0015915"><ele>72.0</ele><time>2026-03-22T08:43:58.577Z</time></trkpt><trkpt lat="45.2409597" lon="9.0016161"><ele>72.0</ele><time>2026-03-22T08:44:00.575Z</time></trkpt><trkpt lat="45.2408936" lon="9.0016467"><ele>72.0</ele><time>2026-03-22T08:44:02.575Z</time></trkpt><trkpt lat="45.2408285" lon="9.0016777"><ele>72.0</ele><time>2026-03-22T08:44:04.578Z</time></trkpt><trkpt lat="45.2407691" lon="9.0017193"><ele>72.0</ele><time>2026-03-22T08:44:06.58Z</time></trkpt><trkpt lat="45.2407033" lon="9.0018017"><ele>72.0</ele><time>2026-03-22T08:44:09.576Z</time></trkpt><trkpt lat="45.2406612" lon="9.0019184"><ele>72.0</ele><time>2026-03-22T08:44:12.577Z</time></trkpt><trkpt lat="45.2406287" lon="9.0020369"><ele>72.28571428571429</ele><time>2026-03-22T08:44:15.569Z</time></trkpt><trkpt lat="45.2406014" lon="9.0021479"><ele>72.57142857142857</ele><time>2026-03-22T08:44:18.573Z</time></trkpt><trkpt lat="45.24057" lon="9.0022291"><ele>72.85714285714286</ele><time>2026-03-22T08:44:20.573Z</time></trkpt><trkpt lat="45.240533" lon="9.0023144"><ele>73.14285714285714</ele><time>2026-03-22T08:44:22.58Z</time></trkpt><trkpt lat="45.2404701" lon="9.0023682"><ele>73.42857142857143</ele><time>2026-03-22T08:44:25.573Z</time></trkpt><trkpt lat="45.2403813" lon="9.0023796"><ele>73.71428571428572</ele><time>2026-03-22T08:44:28.575Z</time></trkpt><trkpt lat="45.2403162" lon="9.0023591"><ele>74.0</ele><time>2026-03-22T08:44:30.578Z</time></trkpt><trkpt lat="45.2402386" lon="9.002361"><ele>74.0</ele><time>2026-03-22T08:44:33.578Z</time></trkpt><trkpt lat="45.2401913" lon="9.0024268"><ele>74.0</ele><time>2026-03-22T08:44:36.568Z</time></trkpt><trkpt lat="45.2401603" lon="9.0025113"><ele>74.0</ele><time>2026-03-22T08:44:38.573Z</time></trkpt><trkpt lat="45.2400691" lon="9.002545"><ele>74.0</ele><time>2026-03-22T08:44:41.563Z</time></trkpt><trkpt lat="45.239991" lon="9.0025796"><ele>74.0</ele><time>2026-03-22T08:44:44.563Z</time></trkpt><trkpt lat="45.2399257" lon="9.002615"><ele>74.0</ele><time>2026-03-22T08:44:47.636Z</time></trkpt><trkpt lat="45.23985" lon="9.0026564"><ele>74.0</ele><time>2026-03-22T08:44:50.571Z</time></trkpt><trkpt lat="45.2398054" lon="9.0027408"><ele>74.0</ele><time>2026-03-22T08:44:53.574Z</time></trkpt><trkpt lat="45.2397336" lon="9.0027876"><ele>74.0</ele><time>2026-03-22T08:44:56.578Z</time></trkpt><trkpt lat="45.2396548" lon="9.0028185"><ele>74.0</ele><time>2026-03-22T08:44:59.578Z</time></trkpt><trkpt lat="45.2395687" lon="9.0028339"><ele>74.0</ele><time>2026-03-22T08:45:02.574Z</time></trkpt><trkpt lat="45.2395032" lon="9.0028357"><ele>74.0</ele><time>2026-03-22T08:45:04.571Z</time></trkpt><trkpt lat="45.2394187" lon="9.0028501"><ele>74.0</ele><time>2026-03-22T08:45:07.573Z</time></trkpt><trkpt lat="45.2393626" lon="9.0028968"><ele>74.0</ele><time>2026-03-22T08:45:10.575Z</time></trkpt><trkpt lat="45.239289" lon="9.0028937"><ele>74.0</ele><time>2026-03-22T08:45:14.569Z</time></trkpt><trkpt lat="45.2392276" lon="9.0029449"><ele>74.0</ele><time>2026-03-22T08:45:17.592Z</time></trkpt><trkpt lat="45.2391673" lon="9.0030114"><ele>74.0</ele><time>2026-03-22T08:45:20.601Z</time></trkpt><trkpt lat="45.2390923" lon="9.003016"><ele>74.0</ele><time>2026-03-22T08:45:24.577Z</time></trkpt><trkpt lat="45.2390261" lon="9.0029771"><ele>74.0</ele><time>2026-03-22T08:45:27.597Z</time></trkpt><trkpt lat="45.2389709" lon="9.0030282"><ele>73.57142857142857</ele><time>2026-03-22T08:45:30.598Z</time></trkpt><trkpt lat="45.2388933" lon="9.0030458"><ele>73.14285714285714</ele><time>2026-03-22T08:45:34.571Z</time></trkpt><trkpt lat="45.2388272" lon="9.0030384"><ele>72.71428571428571</ele><time>2026-03-22T08:45:36.578Z</time></trkpt><trkpt lat="45.238767" lon="9.0030079"><ele>72.28571428571428</ele><time>2026-03-22T08:45:38.573Z</time></trkpt><trkpt lat="45.2386892" lon="9.0029719"><ele>71.85714285714285</ele><time>2026-03-22T08:45:41.573Z</time></trkpt><trkpt lat="45.2386234" lon="9.0029367"><ele>71.42857142857143</ele><time>2026-03-22T08:45:44.567Z</time></trkpt><trkpt lat="45.2385476" lon="9.0029304"><ele>71.0</ele><time>2026-03-22T08:45:48.574Z</time></trkpt><trkpt lat="45.2384696" lon="9.0029351"><ele>71.0</ele><time>2026-03-22T08:45:51.579Z</time></trkpt><trkpt lat="45.238397" lon="9.0029185"><ele>71.0</ele><time>2026-03-22T08:45:54.577Z</time></trkpt><trkpt lat="45.2383258" lon="9.0029276"><ele>71.0</ele><time>2026-03-22T08:45:58.583Z</time></trkpt><trkpt lat="45.2382746" lon="9.0029998"><ele>71.0</ele><time>2026-03-22T08:46:01.58Z</time></trkpt><trkpt lat="45.2382122" lon="9.0030801"><ele>71.0</ele><time>2026-03-22T08:46:04.572Z</time></trkpt><trkpt lat="45.2381583" lon="9.0031753"><ele>71.0</ele><time>2026-03-22T08:46:07.57Z</time></trkpt><trkpt lat="45.2381012" lon="9.0032505"><ele>70.83333333333334</ele><time>2026-03-22T08:46:10.572Z</time></trkpt><trkpt lat="45.2380497" lon="9.0033083"><ele>70.66666666666667</ele><time>2026-03-22T08:46:12.571Z</time></trkpt><trkpt lat="45.23799" lon="9.0033923"><ele>70.5</ele><time>2026-03-22T08:46:15.57Z</time></trkpt><trkpt lat="45.2379305" lon="9.0034681"><ele>70.33333333333333</ele><time>2026-03-22T08:46:18.571Z</time></trkpt><trkpt lat="45.2378687" lon="9.0035298"><ele>70.16666666666666</ele><time>2026-03-22T08:46:20.577Z</time></trkpt><trkpt lat="45.2378084" lon="9.0035821"><ele>70.0</ele><time>2026-03-22T08:46:22.644Z</time></trkpt><trkpt lat="45.2377414" lon="9.0036485"><ele>70.0</ele><time>2026-03-22T08:46:24.58Z</time></trkpt><trkpt lat="45.2376717" lon="9.0037002"><ele>70.0</ele><time>2026-03-22T08:46:26.579Z</time></trkpt><trkpt lat="45.2376099" lon="9.0037473"><ele>70.0</ele><time>2026-03-22T08:46:28.581Z</time></trkpt><trkpt lat="45.2375353" lon="9.0038297"><ele>70.0</ele><time>2026-03-22T08:46:31.571Z</time></trkpt><trkpt lat="45.2374864" lon="9.003889"><ele>70.0</ele><time>2026-03-22T08:46:33.647Z</time></trkpt><trkpt lat="45.2374348" lon="9.0039413"><ele>70.0</ele><time>2026-03-22T08:46:35.579Z</time></trkpt><trkpt lat="45.2373787" lon="9.004001"><ele>70.0</ele><time>2026-03-22T08:46:37.57Z</time></trkpt><trkpt lat="45.2373246" lon="9.0040664"><ele>69.28571428571429</ele><time>2026-03-22T08:46:39.579Z</time></trkpt><trkpt lat="45.2372674" lon="9.0041336"><ele>68.57142857142857</ele><time>2026-03-22T08:46:41.578Z</time></trkpt><trkpt lat="45.2372089" lon="9.0041919"><ele>67.85714285714286</ele><time>2026-03-22T08:46:43.573Z</time></trkpt><trkpt lat="45.2371578" lon="9.0042488"><ele>67.14285714285714</ele><time>2026-03-22T08:46:45.577Z</time></trkpt><trkpt lat="45.2370952" lon="9.004319"><ele>66.42857142857143</ele><time>2026-03-22T08:46:47.582Z</time></trkpt><trkpt lat="45.2370446" lon="9.004388"><ele>65.71428571428572</ele><time>2026-03-22T08:46:49.567Z</time></trkpt><trkpt lat="45.2370132" lon="9.004478"><ele>65.0</ele><time>2026-03-22T08:46:51.575Z</time></trkpt><trkpt lat="45.236981" lon="9.0045583"><ele>65.0</ele><time>2026-03-22T08:46:53.578Z</time></trkpt><trkpt lat="45.2369277" lon="9.0046709"><ele>65.0</ele><time>2026-03-22T08:46:56.575Z</time></trkpt><trkpt lat="45.2368953" lon="9.004754"><ele>65.0</ele><time>2026-03-22T08:46:58.575Z</time></trkpt><trkpt lat="45.2368579" lon="9.0048412"><ele>65.0</ele><time>2026-03-22T08:47:00.579Z</time></trkpt><trkpt lat="45.2368171" lon="9.0049264"><ele>65.0</ele><time>2026-03-22T08:47:02.575Z</time></trkpt><trkpt lat="45.2367793" lon="9.0050304"><ele>65.0</ele><time>2026-03-22T08:47:04.573Z</time></trkpt><trkpt lat="45.2367395" lon="9.0051336"><ele>65.5</ele><time>2026-03-22T08:47:06.575Z</time></trkpt><trkpt lat="45.2367077" lon="9.005235"><ele>66.0</ele><time>2026-03-22T08:47:08.572Z</time></trkpt><trkpt lat="45.2366642" lon="9.0053368"><ele>66.5</ele><time>2026-03-22T08:47:10.57Z</time></trkpt><trkpt lat="45.2366323" lon="9.0054485"><ele>67.0</ele><time>2026-03-22T08:47:12.572Z</time></trkpt><trkpt lat="45.2366055" lon="9.0055479"><ele>67.5</ele><time>2026-03-22T08:47:14.579Z</time></trkpt><trkpt lat="45.2365838" lon="9.005706"><ele>68.0</ele><time>2026-03-22T08:47:16.64Z</time></trkpt><trkpt lat="45.2365506" lon="9.0058179"><ele>68.16666666666667</ele><time>2026-03-22T08:47:18.568Z</time></trkpt><trkpt lat="45.2365234" lon="9.0059273"><ele>68.33333333333334</ele><time>2026-03-22T08:47:20.57Z</time></trkpt><trkpt lat="45.2364899" lon="9.0060339"><ele>68.5</ele><time>2026-03-22T08:47:22.569Z</time></trkpt><trkpt lat="45.2364549" lon="9.0061138"><ele>68.66666666666667</ele><time>2026-03-22T08:47:24.573Z</time></trkpt><trkpt lat="45.236407" lon="9.0062157"><ele>68.83333333333333</ele><time>2026-03-22T08:47:27.587Z</time></trkpt><trkpt lat="45.2363725" lon="9.0063016"><ele>69.0</ele><time>2026-03-22T08:47:29.574Z</time></trkpt><trkpt lat="45.2363345" lon="9.0063825"><ele>68.28571428571429</ele><time>2026-03-22T08:47:31.646Z</time></trkpt><trkpt lat="45.2362999" lon="9.0065083"><ele>67.57142857142858</ele><time>2026-03-22T08:47:34.572Z</time></trkpt><trkpt lat="45.2362817" lon="9.0066078"><ele>66.85714285714286</ele><time>2026-03-22T08:47:36.576Z</time></trkpt><trkpt lat="45.236263" lon="9.0067062"><ele>66.14285714285714</ele><time>2026-03-22T08:47:38.574Z</time></trkpt><trkpt lat="45.2362551" lon="9.0068049"><ele>65.42857142857142</ele><time>2026-03-22T08:47:40.575Z</time></trkpt><trkpt lat="45.2362576" lon="9.0069063"><ele>64.71428571428571</ele><time>2026-03-22T08:47:42.573Z</time></trkpt><trkpt lat="45.2362463" lon="9.0069968"><ele>64.0</ele><time>2026-03-22T08:47:44.578Z</time></trkpt><trkpt lat="45.2362347" lon="9.0071209"><ele>64.0</ele><time>2026-03-22T08:47:47.575Z</time></trkpt><trkpt lat="45.2362237" lon="9.0072128"><ele>63.99999999999999</ele><time>2026-03-22T08:47:49.578Z</time></trkpt><trkpt lat="45.2362169" lon="9.0073089"><ele>64.0</ele><time>2026-03-22T08:47:51.571Z</time></trkpt><trkpt lat="45.23621" lon="9.0074058"><ele>64.0</ele><time>2026-03-22T08:47:53.574Z</time></trkpt><trkpt lat="45.2362215" lon="9.0074949"><ele>63.99999999999999</ele><time>2026-03-22T08:47:55.573Z</time></trkpt><trkpt lat="45.2362234" lon="9.0075899"><ele>64.0</ele><time>2026-03-22T08:47:57.651Z</time></trkpt><trkpt lat="45.2362289" lon="9.0076918"><ele>64.0</ele><time>2026-03-22T08:47:59.584Z</time></trkpt><trkpt lat="45.2362256" lon="9.0077826"><ele>64.28571428571428</ele><time>2026-03-22T08:48:01.576Z</time></trkpt><trkpt lat="45.2362274" lon="9.0079085"><ele>64.57142857142857</ele><time>2026-03-22T08:48:04.578Z</time></trkpt><trkpt lat="45.2362335" lon="9.0080108"><ele>64.85714285714286</ele><time>2026-03-22T08:48:07.584Z</time></trkpt><trkpt lat="45.2362337" lon="9.0081196"><ele>65.14285714285714</ele><time>2026-03-22T08:48:11.568Z</time></trkpt><trkpt lat="45.2362414" lon="9.0082091"><ele>65.42857142857143</ele><time>2026-03-22T08:48:13.578Z</time></trkpt><trkpt lat="45.2362515" lon="9.008305"><ele>65.71428571428571</ele><time>2026-03-22T08:48:15.581Z</time></trkpt><trkpt lat="45.2362573" lon="9.0084056"><ele>66.0</ele><time>2026-03-22T08:48:17.577Z</time></trkpt><trkpt lat="45.2362707" lon="9.0085014"><ele>66.0</ele><time>2026-03-22T08:48:19.573Z</time></trkpt><trkpt lat="45.2362788" lon="9.0086027"><ele>66.0</ele><time>2026-03-22T08:48:21.581Z</time></trkpt><trkpt lat="45.2362834" lon="9.0086973"><ele>66.0</ele><time>2026-03-22T08:48:23.576Z</time></trkpt><trkpt lat="45.2362884" lon="9.0087885"><ele>66.0</ele><time>2026-03-22T08:48:25.648Z</time></trkpt><trkpt lat="45.2362849" lon="9.0088894"><ele>66.0</ele><time>2026-03-22T08:48:27.573Z</time></trkpt><trkpt lat="45.236282" lon="9.0089864"><ele>66.0</ele><time>2026-03-22T08:48:29.576Z</time></trkpt><trkpt lat="45.2362669" lon="9.0090757"><ele>66.0</ele><time>2026-03-22T08:48:31.581Z</time></trkpt><trkpt lat="45.2362562" lon="9.0091679"><ele>66.14285714285714</ele><time>2026-03-22T08:48:33.58Z</time></trkpt><trkpt lat="45.2362493" lon="9.0092745"><ele>66.28571428571429</ele><time>2026-03-22T08:48:36.569Z</time></trkpt><trkpt lat="45.2362482" lon="9.0093779"><ele>66.42857142857143</ele><time>2026-03-22T08:48:39.57Z</time></trkpt><trkpt lat="45.2362526" lon="9.0094723"><ele>66.57142857142857</ele><time>2026-03-22T08:48:42.574Z</time></trkpt><trkpt lat="45.2362401" lon="9.0095687"><ele>66.71428571428571</ele><time>2026-03-22T08:48:45.581Z</time></trkpt><trkpt lat="45.2362177" lon="9.0096621"><ele>66.85714285714286</ele><time>2026-03-22T08:48:48.573Z</time></trkpt><trkpt lat="45.2361972" lon="9.0097618"><ele>67.0</ele><time>2026-03-22T08:48:52.58Z</time></trkpt><trkpt lat="45.2361704" lon="9.0098873"><ele>67.0</ele><time>2026-03-22T08:48:55.576Z</time></trkpt><trkpt lat="45.2361528" lon="9.0099825"><ele>67.0</ele><time>2026-03-22T08:48:57.571Z</time></trkpt><trkpt lat="45.2361278" lon="9.0100966"><ele>67.0</ele><time>2026-03-22T08:48:59.574Z</time></trkpt><trkpt lat="45.2361079" lon="9.0102207"><ele>67.0</ele><time>2026-03-22T08:49:01.576Z</time></trkpt><trkpt lat="45.2360841" lon="9.0103286"><ele>67.0</ele><time>2026-03-22T08:49:03.573Z</time></trkpt><trkpt lat="45.2360676" lon="9.0104247"><ele>67.0</ele><time>2026-03-22T08:49:05.57Z</time></trkpt><trkpt lat="45.2360585" lon="9.0105273"><ele>67.16666666666666</ele><time>2026-03-22T08:49:07.574Z</time></trkpt><trkpt lat="45.2360517" lon="9.0106287"><ele>67.33333333333333</ele><time>2026-03-22T08:49:09.577Z</time></trkpt><trkpt lat="45.2360561" lon="9.0107426"><ele>67.5</ele><time>2026-03-22T08:49:11.576Z</time></trkpt><trkpt lat="45.2360724" lon="9.0108644"><ele>67.66666666666667</ele><time>2026-03-22T08:49:13.585Z</time></trkpt><trkpt lat="45.2360861" lon="9.0109666"><ele>67.83333333333334</ele><time>2026-03-22T08:49:15.575Z</time></trkpt><trkpt lat="45.2360906" lon="9.0110721"><ele>68.0</ele><time>2026-03-22T08:49:17.58Z</time></trkpt><trkpt lat="45.2361" lon="9.0111927"><ele>68.0</ele><time>2026-03-22T08:49:19.59Z</time></trkpt><trkpt lat="45.2361048" lon="9.0113398"><ele>68.0</ele><time>2026-03-22T08:49:21.583Z</time></trkpt><trkpt lat="45.2361039" lon="9.0114527"><ele>68.0</ele><time>2026-03-22T08:49:23.575Z</time></trkpt><trkpt lat="45.2361031" lon="9.0115921"><ele>68.0</ele><time>2026-03-22T08:49:25.589Z</time></trkpt><trkpt lat="45.2361048" lon="9.0117404"><ele>68.0</ele><time>2026-03-22T08:49:27.579Z</time></trkpt><trkpt lat="45.2361036" lon="9.0118634"><ele>68.0</ele><time>2026-03-22T08:49:29.577Z</time></trkpt><trkpt lat="45.2361151" lon="9.011993"><ele>68.0</ele><time>2026-03-22T08:49:31.579Z</time></trkpt><trkpt lat="45.2361343" lon="9.0121261"><ele>68.0</ele><time>2026-03-22T08:49:33.582Z</time></trkpt><trkpt lat="45.2361656" lon="9.0122565"><ele>68.0</ele><time>2026-03-22T08:49:35.57Z</time></trkpt><trkpt lat="45.2362116" lon="9.012385"><ele>68.0</ele><time>2026-03-22T08:49:37.577Z</time></trkpt><trkpt lat="45.2362795" lon="9.0125074"><ele>68.2</ele><time>2026-03-22T08:49:39.58Z</time></trkpt><trkpt lat="45.236332" lon="9.0126153"><ele>68.4</ele><time>2026-03-22T08:49:41.572Z</time></trkpt><trkpt lat="45.2363853" lon="9.01272"><ele>68.60000000000001</ele><time>2026-03-22T08:49:43.579Z</time></trkpt><trkpt lat="45.2364551" lon="9.0128308"><ele>68.8</ele><time>2026-03-22T08:49:45.579Z</time></trkpt><trkpt lat="45.2365352" lon="9.0129414"><ele>69.0</ele><time>2026-03-22T08:49:47.575Z</time></trkpt><trkpt lat="45.2366089" lon="9.0130389"><ele>69.0</ele><time>2026-03-22T08:49:49.593Z</time></trkpt><trkpt lat="45.236688" lon="9.0131311"><ele>69.0</ele><time>2026-03-22T08:49:51.584Z</time></trkpt><trkpt lat="45.2367615" lon="9.0132254"><ele>69.0</ele><time>2026-03-22T08:49:53.578Z</time></trkpt><trkpt lat="45.2368299" lon="9.0133202"><ele>69.0</ele><time>2026-03-22T08:49:55.573Z</time></trkpt><trkpt lat="45.2368943" lon="9.0134067"><ele>69.0</ele><time>2026-03-22T08:49:57.58Z</time></trkpt><trkpt lat="45.2369575" lon="9.0135141"><ele>69.0</ele><time>2026-03-22T08:49:59.577Z</time></trkpt><trkpt lat="45.23701" lon="9.013631"><ele>69.0</ele><time>2026-03-22T08:50:01.579Z</time></trkpt><trkpt lat="45.2370582" lon="9.0137563"><ele>69.0</ele><time>2026-03-22T08:50:03.579Z</time></trkpt><trkpt lat="45.2371045" lon="9.0138748"><ele>69.0</ele><time>2026-03-22T08:50:05.577Z</time></trkpt><trkpt lat="45.2371628" lon="9.0139805"><ele>69.0</ele><time>2026-03-22T08:50:07.572Z</time></trkpt><trkpt lat="45.2372133" lon="9.0140925"><ele>69.8</ele><time>2026-03-22T08:50:09.575Z</time></trkpt><trkpt lat="45.2372693" lon="9.0142113"><ele>70.60000000000001</ele><time>2026-03-22T08:50:11.58Z</time></trkpt><trkpt lat="45.2373152" lon="9.0143305"><ele>71.4</ele><time>2026-03-22T08:50:13.643Z</time></trkpt><trkpt lat="45.2373727" lon="9.0144655"><ele>72.2</ele><time>2026-03-22T08:50:15.576Z</time></trkpt><trkpt lat="45.2374265" lon="9.0145824"><ele>73.0</ele><time>2026-03-22T08:50:17.579Z</time></trkpt><trkpt lat="45.2374835" lon="9.0147024"><ele>73.0</ele><time>2026-03-22T08:50:19.573Z</time></trkpt><trkpt lat="45.2375444" lon="9.0148178"><ele>73.0</ele><time>2026-03-22T08:50:21.572Z</time></trkpt><trkpt lat="45.2375971" lon="9.014935"><ele>73.0</ele><time>2026-03-22T08:50:23.643Z</time></trkpt><trkpt lat="45.2376551" lon="9.0150586"><ele>73.0</ele><time>2026-03-22T08:50:25.658Z</time></trkpt><trkpt lat="45.2377042" lon="9.0151786"><ele>73.0</ele><time>2026-03-22T08:50:27.568Z</time></trkpt><trkpt lat="45.2377499" lon="9.0152945"><ele>73.8</ele><time>2026-03-22T08:50:29.578Z</time></trkpt><trkpt lat="45.2378141" lon="9.01541"><ele>74.6</ele><time>2026-03-22T08:50:31.6Z</time></trkpt><trkpt lat="45.2378785" lon="9.0155271"><ele>75.4</ele><time>2026-03-22T08:50:33.581Z</time></trkpt><trkpt lat="45.2379505" lon="9.0156078"><ele>76.2</ele><time>2026-03-22T08:50:35.569Z</time></trkpt><trkpt lat="45.2380328" lon="9.0156875"><ele>77.0</ele><time>2026-03-22T08:50:37.58Z</time></trkpt><trkpt lat="45.238122" lon="9.0157454"><ele>77.0</ele><time>2026-03-22T08:50:39.574Z</time></trkpt><trkpt lat="45.2382088" lon="9.0158293"><ele>77.0</ele><time>2026-03-22T08:50:41.589Z</time></trkpt><trkpt lat="45.2382885" lon="9.0159123"><ele>77.0</ele><time>2026-03-22T08:50:43.57Z</time></trkpt><trkpt lat="45.2383725" lon="9.0159693"><ele>77.0</ele><time>2026-03-22T08:50:45.576Z</time></trkpt><trkpt lat="45.2384504" lon="9.0160312"><ele>77.0</ele><time>2026-03-22T08:50:47.574Z</time></trkpt><trkpt lat="45.2385327" lon="9.0161097"><ele>77.0</ele><time>2026-03-22T08:50:49.575Z</time></trkpt><trkpt lat="45.23863" lon="9.0161932"><ele>77.0</ele><time>2026-03-22T08:50:51.57Z</time></trkpt><trkpt lat="45.2387169" lon="9.0162907"><ele>77.0</ele><time>2026-03-22T08:50:53.65Z</time></trkpt><trkpt lat="45.2388116" lon="9.0163821"><ele>77.0</ele><time>2026-03-22T08:50:55.586Z</time></trkpt><trkpt lat="45.2389057" lon="9.0164644"><ele>77.0</ele><time>2026-03-22T08:50:57.585Z</time></trkpt><trkpt lat="45.2389882" lon="9.0165504"><ele>76.6</ele><time>2026-03-22T08:50:59.566Z</time></trkpt><trkpt lat="45.2390715" lon="9.0166302"><ele>76.2</ele><time>2026-03-22T08:51:01.578Z</time></trkpt><trkpt lat="45.2391468" lon="9.0167026"><ele>75.8</ele><time>2026-03-22T08:51:03.593Z</time></trkpt><trkpt lat="45.2392432" lon="9.016784"><ele>75.4</ele><time>2026-03-22T08:51:05.571Z</time></trkpt><trkpt lat="45.2393401" lon="9.0168793"><ele>75.0</ele><time>2026-03-22T08:51:07.572Z</time></trkpt><trkpt lat="45.2394313" lon="9.01697"><ele>75.0</ele><time>2026-03-22T08:51:09.582Z</time></trkpt><trkpt lat="45.2395227" lon="9.0170728"><ele>75.0</ele><time>2026-03-22T08:51:11.57Z</time></trkpt><trkpt lat="45.2396181" lon="9.0171829"><ele>75.0</ele><time>2026-03-22T08:51:13.586Z</time></trkpt><trkpt lat="45.2396717" lon="9.0172431"><ele>75.0</ele><time>2026-03-22T08:51:14.58Z</time></trkpt><trkpt lat="45.2397254" lon="9.0172954"><ele>75.0</ele><time>2026-03-22T08:51:15.582Z</time></trkpt><trkpt lat="45.2397813" lon="9.017347"><ele>75.0</ele><time>2026-03-22T08:51:16.58Z</time></trkpt><trkpt lat="45.239835" lon="9.0173975"><ele>73.99999999999999</ele><time>2026-03-22T08:51:17.576Z</time></trkpt><trkpt lat="45.2398899" lon="9.017443"><ele>73.0</ele><time>2026-03-22T08:51:18.571Z</time></trkpt><trkpt lat="45.2399446" lon="9.0174907"><ele>72.0</ele><time>2026-03-22T08:51:19.57Z</time></trkpt><trkpt lat="45.2399987" lon="9.0175442"><ele>71.0</ele><time>2026-03-22T08:51:20.575Z</time></trkpt><trkpt lat="45.2400582" lon="9.0175927"><ele>70.0</ele><time>2026-03-22T08:51:21.58Z</time></trkpt><trkpt lat="45.2401194" lon="9.0176452"><ele>68.99999999999999</ele><time>2026-03-22T08:51:22.579Z</time></trkpt><trkpt lat="45.2401821" lon="9.017702"><ele>68.0</ele><time>2026-03-22T08:51:23.592Z</time></trkpt><trkpt lat="45.2402535" lon="9.0177571"><ele>68.0</ele><time>2026-03-22T08:51:24.572Z</time></trkpt><trkpt lat="45.2403228" lon="9.0178029"><ele>68.0</ele><time>2026-03-22T08:51:25.577Z</time></trkpt><trkpt lat="45.2403975" lon="9.0178569"><ele>68.0</ele><time>2026-03-22T08:51:26.583Z</time></trkpt><trkpt lat="45.2404551" lon="9.0178963"><ele>68.0</ele><time>2026-03-22T08:51:27.568Z</time></trkpt><trkpt lat="45.2405791" lon="9.0179448"><ele>68.0</ele><time>2026-03-22T08:51:29.572Z</time></trkpt><trkpt lat="45.240694" lon="9.0179919"><ele>68.0</ele><time>2026-03-22T08:51:31.565Z</time></trkpt><trkpt lat="45.2408151" lon="9.0180378"><ele>68.0</ele><time>2026-03-22T08:51:33.574Z</time></trkpt><trkpt lat="45.2408797" lon="9.0180533"><ele>68.0</ele><time>2026-03-22T08:51:34.576Z</time></trkpt><trkpt lat="45.2409985" lon="9.0181072"><ele>68.0</ele><time>2026-03-22T08:51:36.57Z</time></trkpt><trkpt lat="45.2411176" lon="9.0181621"><ele>68.0</ele><time>2026-03-22T08:51:38.575Z</time></trkpt><trkpt lat="45.2412335" lon="9.0182032"><ele>68.0</ele><time>2026-03-22T08:51:40.568Z</time></trkpt><trkpt lat="45.2412932" lon="9.0182354"><ele>68.0</ele><time>2026-03-22T08:51:41.574Z</time></trkpt><trkpt lat="45.2413526" lon="9.0182809"><ele>68.0</ele><time>2026-03-22T08:51:42.565Z</time></trkpt><trkpt lat="45.241444" lon="9.0183905"><ele>68.0</ele><time>2026-03-22T08:51:44.575Z</time></trkpt><trkpt lat="45.2414824" lon="9.018465"><ele>68.0</ele><time>2026-03-22T08:51:45.577Z</time></trkpt><trkpt lat="45.2415386" lon="9.0186137"><ele>68.0</ele><time>2026-03-22T08:51:47.583Z</time></trkpt><trkpt lat="45.2415903" lon="9.0187697"><ele>68.66666666666667</ele><time>2026-03-22T08:51:49.594Z</time></trkpt><trkpt lat="45.2416203" lon="9.018852"><ele>69.33333333333334</ele><time>2026-03-22T08:51:50.575Z</time></trkpt><trkpt lat="45.2416778" lon="9.019007"><ele>70.0</ele><time>2026-03-22T08:51:52.576Z</time></trkpt><trkpt lat="45.2417071" lon="9.0190879"><ele>70.66666666666667</ele><time>2026-03-22T08:51:53.574Z</time></trkpt><trkpt lat="45.2417496" lon="9.0192584"><ele>71.33333333333333</ele><time>2026-03-22T08:51:55.576Z</time></trkpt><trkpt lat="45.2417687" lon="9.0193492"><ele>72.0</ele><time>2026-03-22T08:51:56.58Z</time></trkpt><trkpt lat="45.2417824" lon="9.0194467"><ele>71.83333333333333</ele><time>2026-03-22T08:51:57.576Z</time></trkpt><trkpt lat="45.2417896" lon="9.0196281"><ele>71.66666666666667</ele><time>2026-03-22T08:51:59.65Z</time></trkpt><trkpt lat="45.2417932" lon="9.0197238"><ele>71.5</ele><time>2026-03-22T08:52:00.66Z</time></trkpt><trkpt lat="45.2417879" lon="9.019825"><ele>71.33333333333334</ele><time>2026-03-22T08:52:01.583Z</time></trkpt><trkpt lat="45.241784" lon="9.0199273"><ele>71.16666666666667</ele><time>2026-03-22T08:52:02.577Z</time></trkpt><trkpt lat="45.2417824" lon="9.02002"><ele>71.0</ele><time>2026-03-22T08:52:03.587Z</time></trkpt><trkpt lat="45.2417751" lon="9.0202002"><ele>71.0</ele><time>2026-03-22T08:52:05.586Z</time></trkpt><trkpt lat="45.2417771" lon="9.0202931"><ele>71.0</ele><time>2026-03-22T08:52:06.574Z</time></trkpt><trkpt lat="45.2417903" lon="9.0203826"><ele>71.0</ele><time>2026-03-22T08:52:07.579Z</time></trkpt><trkpt lat="45.2418166" lon="9.0204656"><ele>71.0</ele><time>2026-03-22T08:52:08.578Z</time></trkpt><trkpt lat="45.2418905" lon="9.0206013"><ele>71.0</ele><time>2026-03-22T08:52:10.576Z</time></trkpt><trkpt lat="45.2419743" lon="9.0207337"><ele>71.0</ele><time>2026-03-22T08:52:12.576Z</time></trkpt><trkpt lat="45.2420234" lon="9.0207959"><ele>70.83333333333334</ele><time>2026-03-22T08:52:13.576Z</time></trkpt><trkpt lat="45.2421098" lon="9.0209182"><ele>70.66666666666667</ele><time>2026-03-22T08:52:15.57Z</time></trkpt><trkpt lat="45.2421505" lon="9.0209877"><ele>70.5</ele><time>2026-03-22T08:52:16.59Z</time></trkpt><trkpt lat="45.2421913" lon="9.0210565"><ele>70.33333333333333</ele><time>2026-03-22T08:52:17.576Z</time></trkpt><trkpt lat="45.2422312" lon="9.0211298"><ele>70.16666666666666</ele><time>2026-03-22T08:52:18.578Z</time></trkpt><trkpt lat="45.2422686" lon="9.0212118"><ele>70.0</ele><time>2026-03-22T08:52:19.575Z</time></trkpt><trkpt lat="45.2423378" lon="9.0213636"><ele>70.85714285714286</ele><time>2026-03-22T08:52:21.65Z</time></trkpt><trkpt lat="45.2423735" lon="9.0214483"><ele>71.71428571428572</ele><time>2026-03-22T08:52:22.578Z</time></trkpt><trkpt lat="45.2424111" lon="9.0215326"><ele>72.57142857142857</ele><time>2026-03-22T08:52:23.57Z</time></trkpt><trkpt lat="45.2424437" lon="9.0216233"><ele>73.42857142857143</ele><time>2026-03-22T08:52:24.576Z</time></trkpt><trkpt lat="45.2424767" lon="9.0217075"><ele>74.28571428571429</ele><time>2026-03-22T08:52:25.585Z</time></trkpt><trkpt lat="45.2425129" lon="9.0217964"><ele>75.14285714285714</ele><time>2026-03-22T08:52:26.593Z</time></trkpt><trkpt lat="45.2425478" lon="9.0218829"><ele>76.0</ele><time>2026-03-22T08:52:27.599Z</time></trkpt><trkpt lat="45.2425905" lon="9.0219761"><ele>76.0</ele><time>2026-03-22T08:52:28.596Z</time></trkpt><trkpt lat="45.2426299" lon="9.0220624"><ele>76.0</ele><time>2026-03-22T08:52:29.662Z</time></trkpt><trkpt lat="45.2426728" lon="9.0221381"><ele>76.0</ele><time>2026-03-22T08:52:30.573Z</time></trkpt><trkpt lat="45.242716" lon="9.0222063"><ele>76.0</ele><time>2026-03-22T08:52:31.59Z</time></trkpt><trkpt lat="45.242793" lon="9.0223253"><ele>76.0</ele><time>2026-03-22T08:52:33.602Z</time></trkpt><trkpt lat="45.242865" lon="9.022418"><ele>76.0</ele><time>2026-03-22T08:52:35.594Z</time></trkpt><trkpt lat="45.2429376" lon="9.0225001"><ele>76.0</ele><time>2026-03-22T08:52:37.599Z</time></trkpt><trkpt lat="45.2430192" lon="9.0225584"><ele>76.0</ele><time>2026-03-22T08:52:39.592Z</time></trkpt><trkpt lat="45.2430987" lon="9.0226072"><ele>76.0</ele><time>2026-03-22T08:52:41.605Z</time></trkpt><trkpt lat="45.2432003" lon="9.0226484"><ele>76.0</ele><time>2026-03-22T08:52:43.578Z</time></trkpt><trkpt lat="45.2433266" lon="9.0226606"><ele>76.0</ele><time>2026-03-22T08:52:45.595Z</time></trkpt><trkpt lat="45.2434497" lon="9.0226799"><ele>77.0</ele><time>2026-03-22T08:52:47.595Z</time></trkpt><trkpt lat="45.2435605" lon="9.0226864"><ele>78.0</ele><time>2026-03-22T08:52:49.595Z</time></trkpt><trkpt lat="45.2436582" lon="9.0226889"><ele>79.0</ele><time>2026-03-22T08:52:51.603Z</time></trkpt><trkpt lat="45.243751" lon="9.0226956"><ele>80.0</ele><time>2026-03-22T08:52:53.592Z</time></trkpt><trkpt lat="45.2438497" lon="9.0227073"><ele>81.0</ele><time>2026-03-22T08:52:55.592Z</time></trkpt><trkpt lat="45.2439461" lon="9.0227133"><ele>81.0</ele><time>2026-03-22T08:52:57.589Z</time></trkpt><trkpt lat="45.2440511" lon="9.0227184"><ele>81.0</ele><time>2026-03-22T08:52:59.59Z</time></trkpt><trkpt lat="45.2441486" lon="9.0227351"><ele>81.0</ele><time>2026-03-22T08:53:01.6Z</time></trkpt><trkpt lat="45.244244" lon="9.0227446"><ele>81.0</ele><time>2026-03-22T08:53:03.595Z</time></trkpt><trkpt lat="45.2443439" lon="9.0227471"><ele>81.0</ele><time>2026-03-22T08:53:05.598Z</time></trkpt><trkpt lat="45.2444422" lon="9.022738"><ele>81.0</ele><time>2026-03-22T08:53:07.671Z</time></trkpt><trkpt lat="45.2445277" lon="9.0227403"><ele>81.0</ele><time>2026-03-22T08:53:09.606Z</time></trkpt><trkpt lat="45.2445919" lon="9.0227763"><ele>81.0</ele><time>2026-03-22T08:53:11.576Z</time></trkpt><trkpt lat="45.2446054" lon="9.0228679"><ele>81.0</ele><time>2026-03-22T08:53:13.588Z</time></trkpt><trkpt lat="45.2445635" lon="9.0229503"><ele>81.0</ele><time>2026-03-22T08:53:15.591Z</time></trkpt><trkpt lat="45.244511" lon="9.0230359"><ele>81.0</ele><time>2026-03-22T08:53:17.593Z</time></trkpt><trkpt lat="45.2444637" lon="9.0231175"><ele>81.0</ele><time>2026-03-22T08:53:19.584Z</time></trkpt><trkpt lat="45.2444191" lon="9.0232053"><ele>81.0</ele><time>2026-03-22T08:53:21.607Z</time></trkpt><trkpt lat="45.2443654" lon="9.0232999"><ele>81.0</ele><time>2026-03-22T08:53:23.604Z</time></trkpt><trkpt lat="45.2443131" lon="9.0234011"><ele>81.0</ele><time>2026-03-22T08:53:25.589Z</time></trkpt><trkpt lat="45.2442619" lon="9.0235002"><ele>81.0</ele><time>2026-03-22T08:53:27.599Z</time></trkpt><trkpt lat="45.2442127" lon="9.023597"><ele>81.0</ele><time>2026-03-22T08:53:29.598Z</time></trkpt><trkpt lat="45.2441533" lon="9.0236942"><ele>81.0</ele><time>2026-03-22T08:53:31.591Z</time></trkpt><trkpt lat="45.2441063" lon="9.0237933"><ele>81.16666666666667</ele><time>2026-03-22T08:53:33.585Z</time></trkpt><trkpt lat="45.2440632" lon="9.0238966"><ele>81.33333333333333</ele><time>2026-03-22T08:53:35.6Z</time></trkpt><trkpt lat="45.2440194" lon="9.0240024"><ele>81.5</ele><time>2026-03-22T08:53:37.602Z</time></trkpt><trkpt lat="45.2439687" lon="9.0241148"><ele>81.66666666666666</ele><time>2026-03-22T08:53:39.595Z</time></trkpt><trkpt lat="45.2439128" lon="9.0241912"><ele>81.83333333333333</ele><time>2026-03-22T08:53:41.597Z</time></trkpt><trkpt lat="45.2438643" lon="9.0242593"><ele>82.0</ele><time>2026-03-22T08:53:43.597Z</time></trkpt><trkpt lat="45.2438622" lon="9.0243496"><ele>82.0</ele><time>2026-03-22T08:53:45.604Z</time></trkpt><trkpt lat="45.2438987" lon="9.0244484"><ele>82.0</ele><time>2026-03-22T08:53:48.569Z</time></trkpt><trkpt lat="45.243943" lon="9.0245611"><ele>82.0</ele><time>2026-03-22T08:53:51.574Z</time></trkpt><trkpt lat="45.2439787" lon="9.0246484"><ele>82.0</ele><time>2026-03-22T08:53:53.578Z</time></trkpt><trkpt lat="45.2440105" lon="9.0247353"><ele>82.0</ele><time>2026-03-22T08:53:55.588Z</time></trkpt><trkpt lat="45.2440504" lon="9.0248294"><ele>82.0</ele><time>2026-03-22T08:53:57.579Z</time></trkpt><trkpt lat="45.2440932" lon="9.0249388"><ele>81.83333333333333</ele><time>2026-03-22T08:53:59.573Z</time></trkpt><trkpt lat="45.2441386" lon="9.0250396"><ele>81.66666666666666</ele><time>2026-03-22T08:54:01.573Z</time></trkpt><trkpt lat="45.244179" lon="9.0251322"><ele>81.5</ele><time>2026-03-22T08:54:03.579Z</time></trkpt><trkpt lat="45.2442223" lon="9.0252365"><ele>81.33333333333333</ele><time>2026-03-22T08:54:05.567Z</time></trkpt><trkpt lat="45.2442528" lon="9.0253358"><ele>81.16666666666667</ele><time>2026-03-22T08:54:07.571Z</time></trkpt><trkpt lat="45.2442721" lon="9.0254583"><ele>81.0</ele><time>2026-03-22T08:54:09.571Z</time></trkpt><trkpt lat="45.2442468" lon="9.0255852"><ele>81.0</ele><time>2026-03-22T08:54:11.569Z</time></trkpt><trkpt lat="45.2441961" lon="9.0256788"><ele>81.0</ele><time>2026-03-22T08:54:13.575Z</time></trkpt><trkpt lat="45.2441399" lon="9.0257704"><ele>81.0</ele><time>2026-03-22T08:54:15.575Z</time></trkpt><trkpt lat="45.2440884" lon="9.0258622"><ele>81.0</ele><time>2026-03-22T08:54:17.571Z</time></trkpt><trkpt lat="45.2440351" lon="9.0259616"><ele>81.0</ele><time>2026-03-22T08:54:19.578Z</time></trkpt><trkpt lat="45.2439809" lon="9.0260582"><ele>81.0</ele><time>2026-03-22T08:54:21.573Z</time></trkpt><trkpt lat="45.2439232" lon="9.0261601"><ele>81.19999999999999</ele><time>2026-03-22T08:54:23.581Z</time></trkpt><trkpt lat="45.2438707" lon="9.0262601"><ele>81.39999999999999</ele><time>2026-03-22T08:54:25.607Z</time></trkpt><trkpt lat="45.2438197" lon="9.0263769"><ele>81.6</ele><time>2026-03-22T08:54:27.576Z</time></trkpt><trkpt lat="45.2437693" lon="9.0264964"><ele>81.8</ele><time>2026-03-22T08:54:29.658Z</time></trkpt><trkpt lat="45.2437208" lon="9.0266197"><ele>82.0</ele><time>2026-03-22T08:54:31.578Z</time></trkpt><trkpt lat="45.2436721" lon="9.0267283"><ele>82.0</ele><time>2026-03-22T08:54:33.578Z</time></trkpt><trkpt lat="45.2436212" lon="9.0268339"><ele>82.0</ele><time>2026-03-22T08:54:35.582Z</time></trkpt><trkpt lat="45.2435686" lon="9.02693"><ele>82.0</ele><time>2026-03-22T08:54:37.575Z</time></trkpt><trkpt lat="45.24353" lon="9.0270189"><ele>82.0</ele><time>2026-03-22T08:54:39.653Z</time></trkpt><trkpt lat="45.2434838" lon="9.0270987"><ele>82.0</ele><time>2026-03-22T08:54:41.588Z</time></trkpt><trkpt lat="45.2434271" lon="9.0271854"><ele>82.0</ele><time>2026-03-22T08:54:43.582Z</time></trkpt><trkpt lat="45.2434075" lon="9.0272978"><ele>82.0</ele><time>2026-03-22T08:54:45.578Z</time></trkpt><trkpt lat="45.2434562" lon="9.0273887"><ele>82.0</ele><time>2026-03-22T08:54:47.575Z</time></trkpt><trkpt lat="45.2435056" lon="9.0274826"><ele>82.0</ele><time>2026-03-22T08:54:49.572Z</time></trkpt><trkpt lat="45.2434821" lon="9.0275891"><ele>82.0</ele><time>2026-03-22T08:54:51.577Z</time></trkpt><trkpt lat="45.2434422" lon="9.0276762"><ele>82.0</ele><time>2026-03-22T08:54:53.574Z</time></trkpt><trkpt lat="45.2433799" lon="9.0277604"><ele>82.0</ele><time>2026-03-22T08:54:55.568Z</time></trkpt><trkpt lat="45.2433151" lon="9.0278424"><ele>81.6</ele><time>2026-03-22T08:54:57.577Z</time></trkpt><trkpt lat="45.2432492" lon="9.0279359"><ele>81.19999999999999</ele><time>2026-03-22T08:54:59.58Z</time></trkpt><trkpt lat="45.2431824" lon="9.0280324"><ele>80.8</ele><time>2026-03-22T08:55:01.573Z</time></trkpt><trkpt lat="45.2431181" lon="9.0281391"><ele>80.4</ele><time>2026-03-22T08:55:03.579Z</time></trkpt><trkpt lat="45.2430581" lon="9.028225"><ele>80.0</ele><time>2026-03-22T08:55:05.575Z</time></trkpt><trkpt lat="45.2430031" lon="9.0283301"><ele>79.5</ele><time>2026-03-22T08:55:07.578Z</time></trkpt><trkpt lat="45.242949" lon="9.0284356"><ele>79.0</ele><time>2026-03-22T08:55:09.575Z</time></trkpt><trkpt lat="45.2429063" lon="9.0285437"><ele>78.5</ele><time>2026-03-22T08:55:11.573Z</time></trkpt><trkpt lat="45.2429061" lon="9.028657"><ele>78.0</ele><time>2026-03-22T08:55:13.572Z</time></trkpt><trkpt lat="45.24292" lon="9.0287698"><ele>77.5</ele><time>2026-03-22T08:55:15.571Z</time></trkpt><trkpt lat="45.2429307" lon="9.0288955"><ele>77.0</ele><time>2026-03-22T08:55:17.572Z</time></trkpt><trkpt lat="45.2429344" lon="9.029023"><ele>77.0</ele><time>2026-03-22T08:55:19.569Z</time></trkpt><trkpt lat="45.2429258" lon="9.02915"><ele>77.0</ele><time>2026-03-22T08:55:21.576Z</time></trkpt><trkpt lat="45.2428783" lon="9.0292448"><ele>77.0</ele><time>2026-03-22T08:55:23.576Z</time></trkpt><trkpt lat="45.2428097" lon="9.0292892"><ele>77.0</ele><time>2026-03-22T08:55:25.584Z</time></trkpt><trkpt lat="45.2427449" lon="9.0293416"><ele>77.0</ele><time>2026-03-22T08:55:27.571Z</time></trkpt><trkpt lat="45.2426828" lon="9.0294096"><ele>77.0</ele><time>2026-03-22T08:55:29.568Z</time></trkpt><trkpt lat="45.2426218" lon="9.029475"><ele>77.0</ele><time>2026-03-22T08:55:31.573Z</time></trkpt><trkpt lat="45.2425631" lon="9.0295247"><ele>77.0</ele><time>2026-03-22T08:55:33.574Z</time></trkpt><trkpt lat="45.2425065" lon="9.0295655"><ele>77.0</ele><time>2026-03-22T08:55:35.571Z</time></trkpt><trkpt lat="45.2424242" lon="9.029591"><ele>77.0</ele><time>2026-03-22T08:55:38.572Z</time></trkpt><trkpt lat="45.2423383" lon="9.0295261"><ele>77.0</ele><time>2026-03-22T08:55:41.577Z</time></trkpt><trkpt lat="45.2422673" lon="9.0294299"><ele>77.0</ele><time>2026-03-22T08:55:43.57Z</time></trkpt><trkpt lat="45.2421695" lon="9.0293111"><ele>76.28571428571429</ele><time>2026-03-22T08:55:45.579Z</time></trkpt><trkpt lat="45.2421169" lon="9.0292537"><ele>75.57142857142857</ele><time>2026-03-22T08:55:46.575Z</time></trkpt><trkpt lat="45.2420655" lon="9.0291878"><ele>74.85714285714286</ele><time>2026-03-22T08:55:47.579Z</time></trkpt><trkpt lat="45.2420075" lon="9.0291244"><ele>74.14285714285714</ele><time>2026-03-22T08:55:48.576Z</time></trkpt><trkpt lat="45.241949" lon="9.0290526"><ele>73.42857142857143</ele><time>2026-03-22T08:55:49.576Z</time></trkpt><trkpt lat="45.2418876" lon="9.0289823"><ele>72.71428571428572</ele><time>2026-03-22T08:55:50.584Z</time></trkpt><trkpt lat="45.2418309" lon="9.0289073"><ele>72.0</ele><time>2026-03-22T08:55:51.571Z</time></trkpt><trkpt lat="45.2417738" lon="9.0288277"><ele>71.66666666666667</ele><time>2026-03-22T08:55:52.583Z</time></trkpt><trkpt lat="45.2417153" lon="9.0287444"><ele>71.33333333333333</ele><time>2026-03-22T08:55:53.575Z</time></trkpt><trkpt lat="45.2416571" lon="9.0286656"><ele>71.0</ele><time>2026-03-22T08:55:54.583Z</time></trkpt><trkpt lat="45.2416043" lon="9.0285839"><ele>70.66666666666666</ele><time>2026-03-22T08:55:55.58Z</time></trkpt><trkpt lat="45.2415416" lon="9.0284984"><ele>70.33333333333333</ele><time>2026-03-22T08:55:56.579Z</time></trkpt><trkpt lat="45.241479" lon="9.0284196"><ele>70.0</ele><time>2026-03-22T08:55:57.596Z</time></trkpt><trkpt lat="45.2414168" lon="9.0283447"><ele>69.33333333333333</ele><time>2026-03-22T08:55:58.572Z</time></trkpt><trkpt lat="45.2413492" lon="9.028275"><ele>68.66666666666666</ele><time>2026-03-22T08:55:59.581Z</time></trkpt><trkpt lat="45.2412849" lon="9.0282067"><ele>68.0</ele><time>2026-03-22T08:56:00.578Z</time></trkpt><trkpt lat="45.2412277" lon="9.0281357"><ele>67.33333333333333</ele><time>2026-03-22T08:56:01.578Z</time></trkpt><trkpt lat="45.2411673" lon="9.0280701"><ele>66.66666666666667</ele><time>2026-03-22T08:56:02.655Z</time></trkpt><trkpt lat="45.2411074" lon="9.0280093"><ele>66.0</ele><time>2026-03-22T08:56:03.58Z</time></trkpt><trkpt lat="45.2410471" lon="9.0279503"><ele>66.0</ele><time>2026-03-22T08:56:04.589Z</time></trkpt><trkpt lat="45.2409937" lon="9.0278892"><ele>66.0</ele><time>2026-03-22T08:56:05.572Z</time></trkpt><trkpt lat="45.2409428" lon="9.0278336"><ele>66.0</ele><time>2026-03-22T08:56:06.575Z</time></trkpt><trkpt lat="45.2408485" lon="9.0277176"><ele>66.0</ele><time>2026-03-22T08:56:08.573Z</time></trkpt><trkpt lat="45.2407667" lon="9.0276271"><ele>66.0</ele><time>2026-03-22T08:56:10.574Z</time></trkpt><trkpt lat="45.2406952" lon="9.0275492"><ele>66.0</ele><time>2026-03-22T08:56:12.568Z</time></trkpt><trkpt lat="45.2406282" lon="9.0274822"><ele>66.0</ele><time>2026-03-22T08:56:14.579Z</time></trkpt><trkpt lat="45.2405664" lon="9.0274227"><ele>66.0</ele><time>2026-03-22T08:56:16.573Z</time></trkpt><trkpt lat="45.2405154" lon="9.0273676"><ele>66.0</ele><time>2026-03-22T08:56:18.566Z</time></trkpt><trkpt lat="45.2404458" lon="9.0273238"><ele>66.0</ele><time>2026-03-22T08:56:21.582Z</time></trkpt><trkpt lat="45.2403703" lon="9.0273358"><ele>66.0</ele><time>2026-03-22T08:56:24.575Z</time></trkpt><trkpt lat="45.2403164" lon="9.0273848"><ele>66.0</ele><time>2026-03-22T08:56:26.57Z</time></trkpt><trkpt lat="45.2402845" lon="9.0274665"><ele>65.83333333333333</ele><time>2026-03-22T08:56:28.57Z</time></trkpt><trkpt lat="45.2402509" lon="9.0275565"><ele>65.66666666666667</ele><time>2026-03-22T08:56:30.575Z</time></trkpt><trkpt lat="45.2402006" lon="9.0276784"><ele>65.5</ele><time>2026-03-22T08:56:32.577Z</time></trkpt><trkpt lat="45.2401479" lon="9.0277851"><ele>65.33333333333334</ele><time>2026-03-22T08:56:34.577Z</time></trkpt><trkpt lat="45.2401017" lon="9.0278876"><ele>65.16666666666667</ele><time>2026-03-22T08:56:36.58Z</time></trkpt><trkpt lat="45.2400537" lon="9.0279898"><ele>65.0</ele><time>2026-03-22T08:56:38.579Z</time></trkpt><trkpt lat="45.2399915" lon="9.0280862"><ele>65.0</ele><time>2026-03-22T08:56:40.567Z</time></trkpt><trkpt lat="45.2399265" lon="9.0281751"><ele>65.0</ele><time>2026-03-22T08:56:42.578Z</time></trkpt><trkpt lat="45.2398708" lon="9.0282502"><ele>65.0</ele><time>2026-03-22T08:56:44.588Z</time></trkpt><trkpt lat="45.2398213" lon="9.0283134"><ele>65.0</ele><time>2026-03-22T08:56:46.566Z</time></trkpt><trkpt lat="45.2397666" lon="9.0284082"><ele>65.0</ele><time>2026-03-22T08:56:48.578Z</time></trkpt><trkpt lat="45.2397164" lon="9.028487"><ele>65.0</ele><time>2026-03-22T08:56:50.582Z</time></trkpt><trkpt lat="45.2396617" lon="9.028573"><ele>65.16666666666667</ele><time>2026-03-22T08:56:52.579Z</time></trkpt><trkpt lat="45.2396028" lon="9.0286507"><ele>65.33333333333334</ele><time>2026-03-22T08:56:54.573Z</time></trkpt><trkpt lat="45.2395418" lon="9.0287216"><ele>65.5</ele><time>2026-03-22T08:56:56.577Z</time></trkpt><trkpt lat="45.2394776" lon="9.0287979"><ele>65.66666666666667</ele><time>2026-03-22T08:56:58.581Z</time></trkpt><trkpt lat="45.2394218" lon="9.0288764"><ele>65.83333333333333</ele><time>2026-03-22T08:57:00.589Z</time></trkpt><trkpt lat="45.2393989" lon="9.0289768"><ele>66.0</ele><time>2026-03-22T08:57:02.574Z</time></trkpt><trkpt lat="45.2393873" lon="9.0290921"><ele>66.0</ele><time>2026-03-22T08:57:04.573Z</time></trkpt><trkpt lat="45.2393768" lon="9.0291915"><ele>66.0</ele><time>2026-03-22T08:57:06.579Z</time></trkpt><trkpt lat="45.2393369" lon="9.0292639"><ele>66.0</ele><time>2026-03-22T08:57:08.641Z</time></trkpt><trkpt lat="45.2392669" lon="9.0292461"><ele>66.0</ele><time>2026-03-22T08:57:11.565Z</time></trkpt><trkpt lat="45.2392373" lon="9.0291448"><ele>66.0</ele><time>2026-03-22T08:57:13.567Z</time></trkpt><trkpt lat="45.2391858" lon="9.0290781"><ele>66.0</ele><time>2026-03-22T08:57:15.575Z</time></trkpt><trkpt lat="45.2391228" lon="9.0290528"><ele>66.0</ele><time>2026-03-22T08:57:17.577Z</time></trkpt><trkpt lat="45.2390287" lon="9.0290893"><ele>66.2</ele><time>2026-03-22T08:57:20.576Z</time></trkpt><trkpt lat="45.2389455" lon="9.0291502"><ele>66.39999999999999</ele><time>2026-03-22T08:57:22.576Z</time></trkpt><trkpt lat="45.2388592" lon="9.0292034"><ele>66.6</ele><time>2026-03-22T08:57:24.577Z</time></trkpt><trkpt lat="45.2387726" lon="9.0292413"><ele>66.8</ele><time>2026-03-22T08:57:26.592Z</time></trkpt><trkpt lat="45.2386837" lon="9.0292897"><ele>67.0</ele><time>2026-03-22T08:57:28.594Z</time></trkpt><trkpt lat="45.2386024" lon="9.0293298"><ele>67.0</ele><time>2026-03-22T08:57:30.575Z</time></trkpt><trkpt lat="45.2385304" lon="9.0293646"><ele>67.0</ele><time>2026-03-22T08:57:32.569Z</time></trkpt><trkpt lat="45.2384668" lon="9.0293964"><ele>67.0</ele><time>2026-03-22T08:57:34.593Z</time></trkpt><trkpt lat="45.2383875" lon="9.0294363"><ele>67.0</ele><time>2026-03-22T08:57:37.592Z</time></trkpt><trkpt lat="45.2382993" lon="9.0294617"><ele>67.0</ele><time>2026-03-22T08:57:40.601Z</time></trkpt><trkpt lat="45.2382224" lon="9.0294912"><ele>67.0</ele><time>2026-03-22T08:57:42.589Z</time></trkpt><trkpt lat="45.2381493" lon="9.0295256"><ele>67.33333333333333</ele><time>2026-03-22T08:57:44.59Z</time></trkpt><trkpt lat="45.2380796" lon="9.0295374"><ele>67.66666666666666</ele><time>2026-03-22T08:57:46.592Z</time></trkpt><trkpt lat="45.2380006" lon="9.0295655"><ele>68.0</ele><time>2026-03-22T08:57:48.592Z</time></trkpt><trkpt lat="45.237919" lon="9.0295822"><ele>68.33333333333333</ele><time>2026-03-22T08:57:50.595Z</time></trkpt><trkpt lat="45.2378367" lon="9.0295961"><ele>68.66666666666667</ele><time>2026-03-22T08:57:52.59Z</time></trkpt><trkpt lat="45.2377555" lon="9.0295996"><ele>69.0</ele><time>2026-03-22T08:57:54.586Z</time></trkpt><trkpt lat="45.2376811" lon="9.0296094"><ele>69.0</ele><time>2026-03-22T08:57:56.596Z</time></trkpt><trkpt lat="45.2376044" lon="9.029635"><ele>69.0</ele><time>2026-03-22T08:57:58.589Z</time></trkpt><trkpt lat="45.2375331" lon="9.0296933"><ele>69.0</ele><time>2026-03-22T08:58:00.588Z</time></trkpt><trkpt lat="45.2374856" lon="9.0297707"><ele>69.0</ele><time>2026-03-22T08:58:02.585Z</time></trkpt><trkpt lat="45.2374672" lon="9.0298768"><ele>69.0</ele><time>2026-03-22T08:58:04.587Z</time></trkpt><trkpt lat="45.2374656" lon="9.0299929"><ele>69.0</ele><time>2026-03-22T08:58:06.588Z</time></trkpt><trkpt lat="45.2374656" lon="9.0300897"><ele>69.28571428571429</ele><time>2026-03-22T08:58:08.592Z</time></trkpt><trkpt lat="45.2374667" lon="9.0301874"><ele>69.57142857142858</ele><time>2026-03-22T08:58:10.596Z</time></trkpt><trkpt lat="45.2374822" lon="9.0302829"><ele>69.85714285714286</ele><time>2026-03-22T08:58:12.59Z</time></trkpt><trkpt lat="45.2375045" lon="9.0303819"><ele>70.14285714285714</ele><time>2026-03-22T08:58:14.592Z</time></trkpt><trkpt lat="45.2375304" lon="9.0304762"><ele>70.42857142857142</ele><time>2026-03-22T08:58:16.586Z</time></trkpt><trkpt lat="45.2375511" lon="9.0305751"><ele>70.71428571428571</ele><time>2026-03-22T08:58:18.577Z</time></trkpt><trkpt lat="45.2375819" lon="9.0306735"><ele>71.0</ele><time>2026-03-22T08:58:20.597Z</time></trkpt><trkpt lat="45.2376272" lon="9.0307455"><ele>71.0</ele><time>2026-03-22T08:58:22.594Z</time></trkpt><trkpt lat="45.2376974" lon="9.030782"><ele>71.0</ele><time>2026-03-22T08:58:24.577Z</time></trkpt><trkpt lat="45.2377974" lon="9.0307872"><ele>71.0</ele><time>2026-03-22T08:58:26.665Z</time></trkpt><trkpt lat="45.2378872" lon="9.0308132"><ele>71.0</ele><time>2026-03-22T08:58:28.649Z</time></trkpt><trkpt lat="45.2379655" lon="9.0308305"><ele>71.0</ele><time>2026-03-22T08:58:30.581Z</time></trkpt><trkpt lat="45.2380238" lon="9.030875"><ele>71.0</ele><time>2026-03-22T08:58:32.587Z</time></trkpt><trkpt lat="45.2380938" lon="9.0309553"><ele>70.5</ele><time>2026-03-22T08:58:35.6Z</time></trkpt><trkpt lat="45.2381186" lon="9.0310767"><ele>70.0</ele><time>2026-03-22T08:58:38.598Z</time></trkpt><trkpt lat="45.2381305" lon="9.0311907"><ele>69.5</ele><time>2026-03-22T08:58:41.601Z</time></trkpt><trkpt lat="45.2381525" lon="9.0312801"><ele>69.0</ele><time>2026-03-22T08:58:43.599Z</time></trkpt><trkpt lat="45.2381779" lon="9.0313871"><ele>68.5</ele><time>2026-03-22T08:58:45.593Z</time></trkpt><trkpt lat="45.2382128" lon="9.0315008"><ele>68.0</ele><time>2026-03-22T08:58:47.595Z</time></trkpt><trkpt lat="45.2382155" lon="9.0316059"><ele>68.99999999999999</ele><time>2026-03-22T08:58:49.605Z</time></trkpt><trkpt lat="45.2382255" lon="9.0317032"><ele>70.0</ele><time>2026-03-22T08:58:51.608Z</time></trkpt><trkpt lat="45.238243" lon="9.031796"><ele>71.0</ele><time>2026-03-22T08:58:53.573Z</time></trkpt><trkpt lat="45.2382577" lon="9.0318887"><ele>72.0</ele><time>2026-03-22T08:58:55.581Z</time></trkpt><trkpt lat="45.2382709" lon="9.0319846"><ele>73.0</ele><time>2026-03-22T08:58:57.575Z</time></trkpt><trkpt lat="45.2382797" lon="9.0320768"><ele>73.99999999999999</ele><time>2026-03-22T08:58:59.567Z</time></trkpt><trkpt lat="45.2382974" lon="9.0321735"><ele>75.0</ele><time>2026-03-22T08:59:01.57Z</time></trkpt><trkpt lat="45.2383171" lon="9.0322646"><ele>75.0</ele><time>2026-03-22T08:59:03.571Z</time></trkpt><trkpt lat="45.238325" lon="9.0323577"><ele>75.0</ele><time>2026-03-22T08:59:05.57Z</time></trkpt><trkpt lat="45.2383418" lon="9.032486"><ele>75.0</ele><time>2026-03-22T08:59:08.571Z</time></trkpt><trkpt lat="45.2383437" lon="9.032584"><ele>75.0</ele><time>2026-03-22T08:59:10.576Z</time></trkpt><trkpt lat="45.2383615" lon="9.0326771"><ele>75.0</ele><time>2026-03-22T08:59:12.572Z</time></trkpt><trkpt lat="45.2383937" lon="9.032801"><ele>75.0</ele><time>2026-03-22T08:59:15.577Z</time></trkpt><trkpt lat="45.2384011" lon="9.0328986"><ele>74.6</ele><time>2026-03-22T08:59:17.58Z</time></trkpt><trkpt lat="45.2384034" lon="9.0330242"><ele>74.2</ele><time>2026-03-22T08:59:19.58Z</time></trkpt><trkpt lat="45.2384146" lon="9.0331434"><ele>73.8</ele><time>2026-03-22T08:59:21.579Z</time></trkpt><trkpt lat="45.2384487" lon="9.033255"><ele>73.4</ele><time>2026-03-22T08:59:23.577Z</time></trkpt><trkpt lat="45.2384903" lon="9.0333954"><ele>73.0</ele><time>2026-03-22T08:59:25.563Z</time></trkpt><trkpt lat="45.2385379" lon="9.0335322"><ele>73.0</ele><time>2026-03-22T08:59:27.565Z</time></trkpt><trkpt lat="45.2385473" lon="9.0336347"><ele>73.0</ele><time>2026-03-22T08:59:29.574Z</time></trkpt><trkpt lat="45.2385571" lon="9.0337322"><ele>73.0</ele><time>2026-03-22T08:59:31.572Z</time></trkpt><trkpt lat="45.2385648" lon="9.0338328"><ele>73.0</ele><time>2026-03-22T08:59:33.578Z</time></trkpt><trkpt lat="45.2385794" lon="9.0339371"><ele>73.0</ele><time>2026-03-22T08:59:35.574Z</time></trkpt><trkpt lat="45.2385654" lon="9.0340294"><ele>73.0</ele><time>2026-03-22T08:59:37.572Z</time></trkpt><trkpt lat="45.2385471" lon="9.0341415"><ele>73.0</ele><time>2026-03-22T08:59:39.574Z</time></trkpt><trkpt lat="45.2385491" lon="9.0342778"><ele>73.0</ele><time>2026-03-22T08:59:41.575Z</time></trkpt><trkpt lat="45.2385478" lon="9.0344151"><ele>73.0</ele><time>2026-03-22T08:59:43.575Z</time></trkpt><trkpt lat="45.2385472" lon="9.0345379"><ele>73.0</ele><time>2026-03-22T08:59:45.577Z</time></trkpt><trkpt lat="45.238547" lon="9.0346667"><ele>73.0</ele><time>2026-03-22T08:59:48.573Z</time></trkpt><trkpt lat="45.238505" lon="9.0347547"><ele>73.0</ele><time>2026-03-22T08:59:52.585Z</time></trkpt><trkpt lat="45.2384301" lon="9.0347631"><ele>73.0</ele><time>2026-03-22T08:59:55.574Z</time></trkpt><trkpt lat="45.2383561" lon="9.0347505"><ele>73.0</ele><time>2026-03-22T08:59:57.578Z</time></trkpt><trkpt lat="45.2382636" lon="9.0347129"><ele>73.0</ele><time>2026-03-22T08:59:59.58Z</time></trkpt><trkpt lat="45.2381653" lon="9.0347141"><ele>73.0</ele><time>2026-03-22T09:00:01.58Z</time></trkpt><trkpt lat="45.2380715" lon="9.0346984"><ele>73.0</ele><time>2026-03-22T09:00:03.657Z</time></trkpt><trkpt lat="45.2379834" lon="9.0346728"><ele>73.0</ele><time>2026-03-22T09:00:05.578Z</time></trkpt><trkpt lat="45.2379097" lon="9.0346547"><ele>72.33333333333333</ele><time>2026-03-22T09:00:07.579Z</time></trkpt><trkpt lat="45.2378367" lon="9.0346362"><ele>71.66666666666666</ele><time>2026-03-22T09:00:09.577Z</time></trkpt><trkpt lat="45.2377596" lon="9.0346053"><ele>71.0</ele><time>2026-03-22T09:00:11.575Z</time></trkpt><trkpt lat="45.2376855" lon="9.0345586"><ele>70.33333333333333</ele><time>2026-03-22T09:00:13.573Z</time></trkpt><trkpt lat="45.2376007" lon="9.0345285"><ele>69.66666666666667</ele><time>2026-03-22T09:00:15.576Z</time></trkpt><trkpt lat="45.2375136" lon="9.034497"><ele>69.0</ele><time>2026-03-22T09:00:17.645Z</time></trkpt><trkpt lat="45.237431" lon="9.0344503"><ele>69.0</ele><time>2026-03-22T09:00:19.579Z</time></trkpt><trkpt lat="45.2373613" lon="9.0344181"><ele>69.0</ele><time>2026-03-22T09:00:21.577Z</time></trkpt><trkpt lat="45.2373004" lon="9.0343789"><ele>69.0</ele><time>2026-03-22T09:00:23.569Z</time></trkpt><trkpt lat="45.2372286" lon="9.03434"><ele>69.0</ele><time>2026-03-22T09:00:25.575Z</time></trkpt><trkpt lat="45.2371546" lon="9.0342875"><ele>69.0</ele><time>2026-03-22T09:00:30.656Z</time></trkpt><trkpt lat="45.2370895" lon="9.0342415"><ele>69.0</ele><time>2026-03-22T09:00:32.579Z</time></trkpt><trkpt lat="45.2370115" lon="9.0342332"><ele>69.0</ele><time>2026-03-22T09:00:34.576Z</time></trkpt><trkpt lat="45.2369413" lon="9.0342512"><ele>69.0</ele><time>2026-03-22T09:00:36.574Z</time></trkpt><trkpt lat="45.2368849" lon="9.0343051"><ele>69.0</ele><time>2026-03-22T09:00:38.571Z</time></trkpt><trkpt lat="45.2368502" lon="9.0344111"><ele>69.0</ele><time>2026-03-22T09:00:41.564Z</time></trkpt><trkpt lat="45.2366946" lon="9.034964"><ele>69.0</ele><time>2026-03-22T09:00:49.591Z</time></trkpt><trkpt lat="45.236612" lon="9.03497"><ele>69.0</ele><time>2026-03-22T09:00:50.573Z</time></trkpt><trkpt lat="45.2365224" lon="9.0349859"><ele>69.0</ele><time>2026-03-22T09:00:52.574Z</time></trkpt><trkpt lat="45.2364589" lon="9.0349473"><ele>69.0</ele><time>2026-03-22T09:00:54.574Z</time></trkpt><trkpt lat="45.23637" lon="9.0348879"><ele>69.0</ele><time>2026-03-22T09:00:56.573Z</time></trkpt><trkpt lat="45.236297" lon="9.0348269"><ele>69.0</ele><time>2026-03-22T09:00:57.565Z</time></trkpt><trkpt lat="45.2362074" lon="9.0347242"><ele>68.66666666666667</ele><time>2026-03-22T09:00:59.568Z</time></trkpt><trkpt lat="45.2361504" lon="9.0346415"><ele>68.33333333333333</ele><time>2026-03-22T09:01:01.573Z</time></trkpt><trkpt lat="45.2360955" lon="9.0345916"><ele>68.0</ele><time>2026-03-22T09:01:03.561Z</time></trkpt><trkpt lat="45.2360346" lon="9.0345339"><ele>67.66666666666666</ele><time>2026-03-22T09:01:05.57Z</time></trkpt><trkpt lat="45.2359734" lon="9.0344729"><ele>67.33333333333333</ele><time>2026-03-22T09:01:07.571Z</time></trkpt><trkpt lat="45.2359113" lon="9.0344038"><ele>67.0</ele><time>2026-03-22T09:01:09.58Z</time></trkpt><trkpt lat="45.2358424" lon="9.0343517"><ele>67.0</ele><time>2026-03-22T09:01:11.57Z</time></trkpt><trkpt lat="45.2357788" lon="9.0342732"><ele>67.0</ele><time>2026-03-22T09:01:13.568Z</time></trkpt><trkpt lat="45.2357236" lon="9.0342205"><ele>67.0</ele><time>2026-03-22T09:01:15.568Z</time></trkpt><trkpt lat="45.2356591" lon="9.0341668"><ele>67.0</ele><time>2026-03-22T09:01:17.573Z</time></trkpt><trkpt lat="45.2355742" lon="9.034116"><ele>67.0</ele><time>2026-03-22T09:01:19.566Z</time></trkpt><trkpt lat="45.2355034" lon="9.0340587"><ele>67.0</ele><time>2026-03-22T09:01:21.569Z</time></trkpt><trkpt lat="45.2354301" lon="9.0340062"><ele>66.83333333333333</ele><time>2026-03-22T09:01:23.566Z</time></trkpt><trkpt lat="45.2353701" lon="9.0339572"><ele>66.66666666666666</ele><time>2026-03-22T09:01:25.566Z</time></trkpt><trkpt lat="45.2353076" lon="9.0339069"><ele>66.5</ele><time>2026-03-22T09:01:27.572Z</time></trkpt><trkpt lat="45.235243" lon="9.0338474"><ele>66.33333333333333</ele><time>2026-03-22T09:01:29.568Z</time></trkpt><trkpt lat="45.2351592" lon="9.0337959"><ele>66.16666666666667</ele><time>2026-03-22T09:01:31.568Z</time></trkpt><trkpt lat="45.2350736" lon="9.0337448"><ele>66.0</ele><time>2026-03-22T09:01:33.565Z</time></trkpt><trkpt lat="45.2349888" lon="9.0337199"><ele>66.0</ele><time>2026-03-22T09:01:35.573Z</time></trkpt><trkpt lat="45.234929" lon="9.0336665"><ele>66.0</ele><time>2026-03-22T09:01:37.565Z</time></trkpt><trkpt lat="45.2348681" lon="9.0336182"><ele>66.0</ele><time>2026-03-22T09:01:39.565Z</time></trkpt><trkpt lat="45.234809" lon="9.0335578"><ele>66.0</ele><time>2026-03-22T09:01:41.561Z</time></trkpt><trkpt lat="45.2347468" lon="9.0334993"><ele>66.0</ele><time>2026-03-22T09:01:43.565Z</time></trkpt><trkpt lat="45.2346904" lon="9.0334469"><ele>66.0</ele><time>2026-03-22T09:01:45.569Z</time></trkpt><trkpt lat="45.23462" lon="9.0333697"><ele>66.0</ele><time>2026-03-22T09:01:47.563Z</time></trkpt><trkpt lat="45.2345448" lon="9.0333003"><ele>66.14285714285714</ele><time>2026-03-22T09:01:49.57Z</time></trkpt><trkpt lat="45.2344742" lon="9.0332475"><ele>66.28571428571429</ele><time>2026-03-22T09:01:51.573Z</time></trkpt><trkpt lat="45.234411" lon="9.0331819"><ele>66.42857142857143</ele><time>2026-03-22T09:01:53.567Z</time></trkpt><trkpt lat="45.2343577" lon="9.0331291"><ele>66.57142857142857</ele><time>2026-03-22T09:01:55.568Z</time></trkpt><trkpt lat="45.2343039" lon="9.0330745"><ele>66.71428571428571</ele><time>2026-03-22T09:01:57.572Z</time></trkpt><trkpt lat="45.2342379" lon="9.0330094"><ele>66.85714285714286</ele><time>2026-03-22T09:01:59.573Z</time></trkpt><trkpt lat="45.2341705" lon="9.0329574"><ele>67.0</ele><time>2026-03-22T09:02:01.572Z</time></trkpt><trkpt lat="45.2341171" lon="9.032891"><ele>67.0</ele><time>2026-03-22T09:02:03.563Z</time></trkpt><trkpt lat="45.2340517" lon="9.0328459"><ele>67.0</ele><time>2026-03-22T09:02:05.563Z</time></trkpt><trkpt lat="45.2339821" lon="9.0327906"><ele>67.0</ele><time>2026-03-22T09:02:07.559Z</time></trkpt><trkpt lat="45.2339167" lon="9.0327316"><ele>67.0</ele><time>2026-03-22T09:02:09.565Z</time></trkpt><trkpt lat="45.2338424" lon="9.0326606"><ele>67.0</ele><time>2026-03-22T09:02:11.564Z</time></trkpt><trkpt lat="45.2337778" lon="9.0325933"><ele>67.0</ele><time>2026-03-22T09:02:13.567Z</time></trkpt><trkpt lat="45.2337006" lon="9.0325246"><ele>66.66666666666666</ele><time>2026-03-22T09:02:15.561Z</time></trkpt><trkpt lat="45.2336311" lon="9.0324673"><ele>66.33333333333333</ele><time>2026-03-22T09:02:17.569Z</time></trkpt><trkpt lat="45.2335653" lon="9.0324124"><ele>66.0</ele><time>2026-03-22T09:02:19.568Z</time></trkpt><trkpt lat="45.2334906" lon="9.032348"><ele>65.66666666666667</ele><time>2026-03-22T09:02:21.564Z</time></trkpt><trkpt lat="45.2334305" lon="9.0322876"><ele>65.33333333333334</ele><time>2026-03-22T09:02:23.565Z</time></trkpt><trkpt lat="45.2333631" lon="9.0322151"><ele>65.0</ele><time>2026-03-22T09:02:25.573Z</time></trkpt><trkpt lat="45.2332863" lon="9.0321504"><ele>65.0</ele><time>2026-03-22T09:02:27.574Z</time></trkpt><trkpt lat="45.2332078" lon="9.0321005"><ele>65.0</ele><time>2026-03-22T09:02:29.566Z</time></trkpt><trkpt lat="45.2331356" lon="9.0320463"><ele>65.0</ele><time>2026-03-22T09:02:31.56Z</time></trkpt><trkpt lat="45.2330733" lon="9.0319977"><ele>65.0</ele><time>2026-03-22T09:02:33.569Z</time></trkpt><trkpt lat="45.2330057" lon="9.0319444"><ele>65.0</ele><time>2026-03-22T09:02:35.564Z</time></trkpt><trkpt lat="45.2329432" lon="9.0318862"><ele>65.0</ele><time>2026-03-22T09:02:37.566Z</time></trkpt><trkpt lat="45.2328808" lon="9.0318444"><ele>65.0</ele><time>2026-03-22T09:02:39.567Z</time></trkpt><trkpt lat="45.2328063" lon="9.0318055"><ele>65.0</ele><time>2026-03-22T09:02:41.561Z</time></trkpt><trkpt lat="45.2327252" lon="9.0317409"><ele>65.0</ele><time>2026-03-22T09:02:43.574Z</time></trkpt><trkpt lat="45.2326576" lon="9.0316731"><ele>65.0</ele><time>2026-03-22T09:02:45.566Z</time></trkpt><trkpt lat="45.2326015" lon="9.031622"><ele>65.0</ele><time>2026-03-22T09:02:47.561Z</time></trkpt><trkpt lat="45.2325202" lon="9.0315512"><ele>65.0</ele><time>2026-03-22T09:02:50.561Z</time></trkpt><trkpt lat="45.2324573" lon="9.0315013"><ele>65.00000000000001</ele><time>2026-03-22T09:02:52.571Z</time></trkpt><trkpt lat="45.2323955" lon="9.0314531"><ele>65.0</ele><time>2026-03-22T09:02:54.566Z</time></trkpt><trkpt lat="45.232335" lon="9.0314185"><ele>65.0</ele><time>2026-03-22T09:02:56.611Z</time></trkpt><trkpt lat="45.2322715" lon="9.0313718"><ele>65.0</ele><time>2026-03-22T09:02:58.561Z</time></trkpt><trkpt lat="45.2322078" lon="9.0313091"><ele>65.0</ele><time>2026-03-22T09:03:00.578Z</time></trkpt><trkpt lat="45.2321405" lon="9.0312524"><ele>65.00000000000001</ele><time>2026-03-22T09:03:02.564Z</time></trkpt><trkpt lat="45.2320657" lon="9.0312145"><ele>65.0</ele><time>2026-03-22T09:03:04.567Z</time></trkpt><trkpt lat="45.2319849" lon="9.0311767"><ele>65.0</ele><time>2026-03-22T09:03:06.567Z</time></trkpt><trkpt lat="45.2319082" lon="9.0311547"><ele>65.0</ele><time>2026-03-22T09:03:08.569Z</time></trkpt><trkpt lat="45.2318302" lon="9.0311211"><ele>65.0</ele><time>2026-03-22T09:03:10.566Z</time></trkpt><trkpt lat="45.2317548" lon="9.0310984"><ele>65.0</ele><time>2026-03-22T09:03:12.563Z</time></trkpt><trkpt lat="45.2316683" lon="9.0310755"><ele>65.0</ele><time>2026-03-22T09:03:15.569Z</time></trkpt><trkpt lat="45.231573" lon="9.0310464"><ele>65.0</ele><time>2026-03-22T09:03:18.572Z</time></trkpt><trkpt lat="45.2314976" lon="9.0310242"><ele>65.33333333333334</ele><time>2026-03-22T09:03:20.573Z</time></trkpt><trkpt lat="45.2314175" lon="9.0310091"><ele>65.66666666666667</ele><time>2026-03-22T09:03:22.558Z</time></trkpt><trkpt lat="45.2313495" lon="9.0309817"><ele>66.0</ele><time>2026-03-22T09:03:24.565Z</time></trkpt><trkpt lat="45.2312771" lon="9.0309514"><ele>66.33333333333333</ele><time>2026-03-22T09:03:26.569Z</time></trkpt><trkpt lat="45.231214" lon="9.0309526"><ele>66.66666666666666</ele><time>2026-03-22T09:03:28.561Z</time></trkpt><trkpt lat="45.2311358" lon="9.0310237"><ele>67.0</ele><time>2026-03-22T09:03:31.58Z</time></trkpt><trkpt lat="45.2310835" lon="9.0310857"><ele>67.0</ele><time>2026-03-22T09:03:33.572Z</time></trkpt><trkpt lat="45.2310299" lon="9.0311444"><ele>67.0</ele><time>2026-03-22T09:03:35.573Z</time></trkpt><trkpt lat="45.2309731" lon="9.0312059"><ele>67.0</ele><time>2026-03-22T09:03:37.577Z</time></trkpt><trkpt lat="45.2309276" lon="9.0312732"><ele>67.0</ele><time>2026-03-22T09:03:39.56Z</time></trkpt><trkpt lat="45.2308838" lon="9.0313543"><ele>67.0</ele><time>2026-03-22T09:03:41.568Z</time></trkpt><trkpt lat="45.2308581" lon="9.0314467"><ele>67.0</ele><time>2026-03-22T09:03:43.57Z</time></trkpt><trkpt lat="45.2308369" lon="9.0315371"><ele>67.0</ele><time>2026-03-22T09:03:45.571Z</time></trkpt><trkpt lat="45.2308107" lon="9.0316768"><ele>66.83333333333333</ele><time>2026-03-22T09:03:47.605Z</time></trkpt><trkpt lat="45.2307776" lon="9.0317613"><ele>66.66666666666666</ele><time>2026-03-22T09:03:49.571Z</time></trkpt><trkpt lat="45.2307241" lon="9.0318588"><ele>66.5</ele><time>2026-03-22T09:03:51.567Z</time></trkpt><trkpt lat="45.2306628" lon="9.0319302"><ele>66.33333333333333</ele><time>2026-03-22T09:03:53.564Z</time></trkpt><trkpt lat="45.2305929" lon="9.0319945"><ele>66.16666666666667</ele><time>2026-03-22T09:03:55.565Z</time></trkpt><trkpt lat="45.2305232" lon="9.0320556"><ele>66.0</ele><time>2026-03-22T09:03:57.57Z</time></trkpt><trkpt lat="45.2304546" lon="9.0321121"><ele>66.0</ele><time>2026-03-22T09:03:59.567Z</time></trkpt><trkpt lat="45.2303777" lon="9.0321765"><ele>66.0</ele><time>2026-03-22T09:04:01.573Z</time></trkpt><trkpt lat="45.2303056" lon="9.0322188"><ele>66.0</ele><time>2026-03-22T09:04:03.571Z</time></trkpt><trkpt lat="45.2302476" lon="9.0322691"><ele>66.0</ele><time>2026-03-22T09:04:05.57Z</time></trkpt><trkpt lat="45.2301842" lon="9.0323028"><ele>66.0</ele><time>2026-03-22T09:04:07.566Z</time></trkpt><trkpt lat="45.2301" lon="9.0323331"><ele>66.0</ele><time>2026-03-22T09:04:10.566Z</time></trkpt><trkpt lat="45.2300125" lon="9.0323728"><ele>66.0</ele><time>2026-03-22T09:04:13.569Z</time></trkpt><trkpt lat="45.2299522" lon="9.0324016"><ele>66.0</ele><time>2026-03-22T09:04:15.569Z</time></trkpt><trkpt lat="45.2298856" lon="9.0324254"><ele>66.0</ele><time>2026-03-22T09:04:17.561Z</time></trkpt><trkpt lat="45.2298193" lon="9.0324611"><ele>66.0</ele><time>2026-03-22T09:04:19.563Z</time></trkpt><trkpt lat="45.2297542" lon="9.032492"><ele>66.0</ele><time>2026-03-22T09:04:21.57Z</time></trkpt><trkpt lat="45.2296951" lon="9.0325418"><ele>66.0</ele><time>2026-03-22T09:04:23.569Z</time></trkpt><trkpt lat="45.2296299" lon="9.0326093"><ele>66.0</ele><time>2026-03-22T09:04:25.565Z</time></trkpt><trkpt lat="45.2295657" lon="9.0326731"><ele>65.83333333333333</ele><time>2026-03-22T09:04:27.568Z</time></trkpt><trkpt lat="45.2295013" lon="9.0327306"><ele>65.66666666666667</ele><time>2026-03-22T09:04:29.565Z</time></trkpt><trkpt lat="45.2294469" lon="9.0328129"><ele>65.5</ele><time>2026-03-22T09:04:31.566Z</time></trkpt><trkpt lat="45.2293992" lon="9.0329015"><ele>65.33333333333334</ele><time>2026-03-22T09:04:33.565Z</time></trkpt><trkpt lat="45.2293494" lon="9.033015"><ele>65.16666666666667</ele><time>2026-03-22T09:04:35.567Z</time></trkpt><trkpt lat="45.2292828" lon="9.0331011"><ele>65.0</ele><time>2026-03-22T09:04:37.572Z</time></trkpt><trkpt lat="45.2292199" lon="9.0331693"><ele>65.0</ele><time>2026-03-22T09:04:39.599Z</time></trkpt><trkpt lat="45.2291525" lon="9.0332117"><ele>65.0</ele><time>2026-03-22T09:04:41.565Z</time></trkpt><trkpt lat="45.2290932" lon="9.0332533"><ele>65.0</ele><time>2026-03-22T09:04:43.564Z</time></trkpt><trkpt lat="45.2290475" lon="9.0333267"><ele>65.0</ele><time>2026-03-22T09:04:45.563Z</time></trkpt><trkpt lat="45.2289952" lon="9.0334413"><ele>65.0</ele><time>2026-03-22T09:04:47.569Z</time></trkpt><trkpt lat="45.2289459" lon="9.0335198"><ele>65.0</ele><time>2026-03-22T09:04:49.572Z</time></trkpt><trkpt lat="45.2288783" lon="9.0335943"><ele>65.00000000000001</ele><time>2026-03-22T09:04:51.614Z</time></trkpt><trkpt lat="45.2288203" lon="9.0336624"><ele>65.0</ele><time>2026-03-22T09:04:53.572Z</time></trkpt><trkpt lat="45.2287653" lon="9.0337381"><ele>65.0</ele><time>2026-03-22T09:04:55.571Z</time></trkpt><trkpt lat="45.2287186" lon="9.0338213"><ele>65.0</ele><time>2026-03-22T09:04:57.562Z</time></trkpt><trkpt lat="45.2286715" lon="9.0338939"><ele>65.0</ele><time>2026-03-22T09:04:59.561Z</time></trkpt><trkpt lat="45.2286166" lon="9.0339564"><ele>65.00000000000001</ele><time>2026-03-22T09:05:01.572Z</time></trkpt><trkpt lat="45.2285564" lon="9.0340278"><ele>65.0</ele><time>2026-03-22T09:05:03.57Z</time></trkpt><trkpt lat="45.2284943" lon="9.0340823"><ele>65.0</ele><time>2026-03-22T09:05:05.567Z</time></trkpt><trkpt lat="45.2284279" lon="9.0341371"><ele>65.0</ele><time>2026-03-22T09:05:07.57Z</time></trkpt><trkpt lat="45.2283661" lon="9.0342115"><ele>65.0</ele><time>2026-03-22T09:05:09.571Z</time></trkpt><trkpt lat="45.2283113" lon="9.0343155"><ele>65.0</ele><time>2026-03-22T09:05:11.574Z</time></trkpt><trkpt lat="45.2282577" lon="9.0343945"><ele>65.0</ele><time>2026-03-22T09:05:13.567Z</time></trkpt><trkpt lat="45.2282038" lon="9.0344857"><ele>65.0</ele><time>2026-03-22T09:05:15.57Z</time></trkpt><trkpt lat="45.2281496" lon="9.034552"><ele>64.5</ele><time>2026-03-22T09:05:17.57Z</time></trkpt><trkpt lat="45.2280799" lon="9.0346259"><ele>64.0</ele><time>2026-03-22T09:05:19.564Z</time></trkpt><trkpt lat="45.2280149" lon="9.0347087"><ele>63.5</ele><time>2026-03-22T09:05:21.564Z</time></trkpt><trkpt lat="45.2279559" lon="9.0347763"><ele>63.0</ele><time>2026-03-22T09:05:23.569Z</time></trkpt><trkpt lat="45.227889" lon="9.0348326"><ele>62.50000000000001</ele><time>2026-03-22T09:05:25.561Z</time></trkpt><trkpt lat="45.2278206" lon="9.0348856"><ele>62.0</ele><time>2026-03-22T09:05:27.565Z</time></trkpt><trkpt lat="45.2277476" lon="9.0349261"><ele>62.00000000000001</ele><time>2026-03-22T09:05:29.568Z</time></trkpt><trkpt lat="45.2276651" lon="9.0349641"><ele>62.0</ele><time>2026-03-22T09:05:31.566Z</time></trkpt><trkpt lat="45.2275841" lon="9.0349999"><ele>62.0</ele><time>2026-03-22T09:05:33.563Z</time></trkpt><trkpt lat="45.2275131" lon="9.0350459"><ele>62.0</ele><time>2026-03-22T09:05:35.56Z</time></trkpt><trkpt lat="45.2274424" lon="9.0350877"><ele>62.00000000000001</ele><time>2026-03-22T09:05:37.559Z</time></trkpt><trkpt lat="45.2273797" lon="9.035125"><ele>62.0</ele><time>2026-03-22T09:05:39.562Z</time></trkpt><trkpt lat="45.2273178" lon="9.03517"><ele>61.833333333333336</ele><time>2026-03-22T09:05:41.572Z</time></trkpt><trkpt lat="45.2272575" lon="9.0352233"><ele>61.66666666666667</ele><time>2026-03-22T09:05:43.576Z</time></trkpt><trkpt lat="45.2272041" lon="9.0352921"><ele>61.5</ele><time>2026-03-22T09:05:45.571Z</time></trkpt><trkpt lat="45.2271599" lon="9.0353625"><ele>61.33333333333333</ele><time>2026-03-22T09:05:47.576Z</time></trkpt><trkpt lat="45.227136" lon="9.0354967"><ele>61.166666666666664</ele><time>2026-03-22T09:05:50.581Z</time></trkpt><trkpt lat="45.2271277" lon="9.0355998"><ele>61.0</ele><time>2026-03-22T09:05:52.586Z</time></trkpt><trkpt lat="45.2271036" lon="9.0357301"><ele>61.166666666666664</ele><time>2026-03-22T09:05:54.568Z</time></trkpt><trkpt lat="45.2270669" lon="9.0358538"><ele>61.33333333333333</ele><time>2026-03-22T09:05:56.57Z</time></trkpt><trkpt lat="45.2270395" lon="9.0359733"><ele>61.5</ele><time>2026-03-22T09:05:58.576Z</time></trkpt><trkpt lat="45.2270112" lon="9.0360965"><ele>61.66666666666667</ele><time>2026-03-22T09:06:00.572Z</time></trkpt><trkpt lat="45.226971" lon="9.0362025"><ele>61.833333333333336</ele><time>2026-03-22T09:06:02.577Z</time></trkpt><trkpt lat="45.2269404" lon="9.0363112"><ele>62.0</ele><time>2026-03-22T09:06:04.584Z</time></trkpt><trkpt lat="45.2268888" lon="9.0364183"><ele>62.0</ele><time>2026-03-22T09:06:06.644Z</time></trkpt><trkpt lat="45.2268436" lon="9.0365221"><ele>62.00000000000001</ele><time>2026-03-22T09:06:08.581Z</time></trkpt><trkpt lat="45.2268112" lon="9.0366262"><ele>62.0</ele><time>2026-03-22T09:06:10.579Z</time></trkpt><trkpt lat="45.2267769" lon="9.036713"><ele>62.0</ele><time>2026-03-22T09:06:12.572Z</time></trkpt><trkpt lat="45.2267383" lon="9.0367875"><ele>62.00000000000001</ele><time>2026-03-22T09:06:14.573Z</time></trkpt><trkpt lat="45.226675" lon="9.0368577"><ele>62.0</ele><time>2026-03-22T09:06:16.575Z</time></trkpt><trkpt lat="45.2266347" lon="9.036927"><ele>62.0</ele><time>2026-03-22T09:06:18.572Z</time></trkpt><trkpt lat="45.2265771" lon="9.0370153"><ele>62.16666666666667</ele><time>2026-03-22T09:06:21.587Z</time></trkpt><trkpt lat="45.2265146" lon="9.0371111"><ele>62.333333333333336</ele><time>2026-03-22T09:06:24.574Z</time></trkpt><trkpt lat="45.2264934" lon="9.0371956"><ele>62.5</ele><time>2026-03-22T09:06:26.57Z</time></trkpt><trkpt lat="45.2264325" lon="9.0372307"><ele>62.66666666666667</ele><time>2026-03-22T09:06:28.568Z</time></trkpt><trkpt lat="45.2263714" lon="9.0372053"><ele>62.833333333333336</ele><time>2026-03-22T09:06:30.572Z</time></trkpt><trkpt lat="45.2262914" lon="9.0371955"><ele>63.0</ele><time>2026-03-22T09:06:33.573Z</time></trkpt><trkpt lat="45.2261807" lon="9.0372323"><ele>63.166666666666664</ele><time>2026-03-22T09:06:37.575Z</time></trkpt><trkpt lat="45.2261045" lon="9.037322"><ele>63.33333333333333</ele><time>2026-03-22T09:06:40.564Z</time></trkpt><trkpt lat="45.2260456" lon="9.0373894"><ele>63.5</ele><time>2026-03-22T09:06:42.571Z</time></trkpt><trkpt lat="45.2260145" lon="9.0374784"><ele>63.666666666666664</ele><time>2026-03-22T09:06:44.571Z</time></trkpt><trkpt lat="45.2259711" lon="9.0375792"><ele>63.83333333333333</ele><time>2026-03-22T09:06:46.579Z</time></trkpt><trkpt lat="45.2259162" lon="9.03766"><ele>64.0</ele><time>2026-03-22T09:06:48.571Z</time></trkpt><trkpt lat="45.2258715" lon="9.037735"><ele>64.0</ele><time>2026-03-22T09:06:50.576Z</time></trkpt><trkpt lat="45.2258405" lon="9.03782"><ele>63.99999999999999</ele><time>2026-03-22T09:06:52.567Z</time></trkpt><trkpt lat="45.2258034" lon="9.0379145"><ele>64.0</ele><time>2026-03-22T09:06:54.577Z</time></trkpt><trkpt lat="45.2257561" lon="9.037975"><ele>64.0</ele><time>2026-03-22T09:09:16.596Z</time></trkpt><trkpt lat="45.2256966" lon="9.0380289"><ele>63.99999999999999</ele><time>2026-03-22T09:09:22.595Z</time></trkpt><trkpt lat="45.2256348" lon="9.038095"><ele>64.0</ele><time>2026-03-22T09:09:27.64Z</time></trkpt><trkpt lat="45.2255762" lon="9.0381759"><ele>64.0</ele><time>2026-03-22T09:09:30.596Z</time></trkpt><trkpt lat="45.225523" lon="9.0382344"><ele>64.14285714285714</ele><time>2026-03-22T09:09:32.597Z</time></trkpt><trkpt lat="45.2254719" lon="9.0383023"><ele>64.28571428571428</ele><time>2026-03-22T09:09:34.594Z</time></trkpt><trkpt lat="45.2254251" lon="9.0383804"><ele>64.42857142857143</ele><time>2026-03-22T09:09:36.59Z</time></trkpt><trkpt lat="45.2253912" lon="9.0384632"><ele>64.57142857142857</ele><time>2026-03-22T09:09:38.591Z</time></trkpt><trkpt lat="45.2253573" lon="9.0385607"><ele>64.71428571428572</ele><time>2026-03-22T09:09:40.574Z</time></trkpt><trkpt lat="45.2253217" lon="9.0386557"><ele>64.85714285714286</ele><time>2026-03-22T09:09:42.6Z</time></trkpt><trkpt lat="45.2253034" lon="9.0387595"><ele>65.0</ele><time>2026-03-22T09:09:44.594Z</time></trkpt><trkpt lat="45.2252885" lon="9.038866"><ele>65.0</ele><time>2026-03-22T09:09:46.603Z</time></trkpt><trkpt lat="45.2252768" lon="9.0389702"><ele>65.0</ele><time>2026-03-22T09:09:48.599Z</time></trkpt><trkpt lat="45.2252607" lon="9.0390803"><ele>65.0</ele><time>2026-03-22T09:09:51.596Z</time></trkpt><trkpt lat="45.2251951" lon="9.0391358"><ele>65.0</ele><time>2026-03-22T09:09:54.588Z</time></trkpt><trkpt lat="45.2251224" lon="9.0391759"><ele>65.0</ele><time>2026-03-22T09:09:57.573Z</time></trkpt><trkpt lat="45.2250572" lon="9.0392161"><ele>65.0</ele><time>2026-03-22T09:10:00.574Z</time></trkpt><trkpt lat="45.2249885" lon="9.0392815"><ele>65.0</ele><time>2026-03-22T09:10:03.574Z</time></trkpt><trkpt lat="45.2249336" lon="9.0393576"><ele>65.0</ele><time>2026-03-22T09:10:06.592Z</time></trkpt><trkpt lat="45.224878" lon="9.0394343"><ele>65.0</ele><time>2026-03-22T09:10:09.611Z</time></trkpt><trkpt lat="45.2248267" lon="9.0395171"><ele>65.0</ele><time>2026-03-22T09:10:12.597Z</time></trkpt><trkpt lat="45.2247788" lon="9.0396258"><ele>65.0</ele><time>2026-03-22T09:10:15.573Z</time></trkpt><trkpt lat="45.2247322" lon="9.0397389"><ele>65.0</ele><time>2026-03-22T09:10:18.598Z</time></trkpt><trkpt lat="45.2246737" lon="9.039816"><ele>65.00000000000001</ele><time>2026-03-22T09:10:21.588Z</time></trkpt><trkpt lat="45.2246095" lon="9.0398993"><ele>65.0</ele><time>2026-03-22T09:10:24.594Z</time></trkpt><trkpt lat="45.2245626" lon="9.0399714"><ele>65.0</ele><time>2026-03-22T09:10:26.596Z</time></trkpt><trkpt lat="45.2245168" lon="9.0400386"><ele>65.0</ele><time>2026-03-22T09:10:28.593Z</time></trkpt><trkpt lat="45.2244693" lon="9.0401135"><ele>65.0</ele><time>2026-03-22T09:10:30.591Z</time></trkpt><trkpt lat="45.2244322" lon="9.0401889"><ele>65.00000000000001</ele><time>2026-03-22T09:10:32.602Z</time></trkpt><trkpt lat="45.2244102" lon="9.0402731"><ele>65.0</ele><time>2026-03-22T09:10:34.6Z</time></trkpt><trkpt lat="45.224388" lon="9.0403584"><ele>65.14285714285715</ele><time>2026-03-22T09:10:36.596Z</time></trkpt><trkpt lat="45.224345" lon="9.0404338"><ele>65.28571428571429</ele><time>2026-03-22T09:10:38.592Z</time></trkpt><trkpt lat="45.2242856" lon="9.0404753"><ele>65.42857142857143</ele><time>2026-03-22T09:10:40.593Z</time></trkpt><trkpt lat="45.2241966" lon="9.0405204"><ele>65.57142857142858</ele><time>2026-03-22T09:10:43.602Z</time></trkpt><trkpt lat="45.2241422" lon="9.0405706"><ele>65.71428571428572</ele><time>2026-03-22T09:10:45.593Z</time></trkpt><trkpt lat="45.224096" lon="9.0406473"><ele>65.85714285714286</ele><time>2026-03-22T09:10:47.585Z</time></trkpt><trkpt lat="45.2240548" lon="9.0407356"><ele>66.0</ele><time>2026-03-22T09:10:49.592Z</time></trkpt><trkpt lat="45.2240187" lon="9.0408237"><ele>66.42857142857143</ele><time>2026-03-22T09:10:52.583Z</time></trkpt><trkpt lat="45.2239888" lon="9.0409063"><ele>66.85714285714286</ele><time>2026-03-22T09:10:55.58Z</time></trkpt><trkpt lat="45.2239346" lon="9.0409995"><ele>67.28571428571429</ele><time>2026-03-22T09:10:58.609Z</time></trkpt><trkpt lat="45.2238567" lon="9.0410627"><ele>67.71428571428572</ele><time>2026-03-22T09:11:01.596Z</time></trkpt><trkpt lat="45.2238234" lon="9.0411566"><ele>68.14285714285715</ele><time>2026-03-22T09:11:04.597Z</time></trkpt><trkpt lat="45.2238366" lon="9.0412522"><ele>68.57142857142857</ele><time>2026-03-22T09:11:06.598Z</time></trkpt><trkpt lat="45.2238619" lon="9.0413357"><ele>69.0</ele><time>2026-03-22T09:11:08.601Z</time></trkpt><trkpt lat="45.223871" lon="9.0414388"><ele>68.0</ele><time>2026-03-22T09:11:11.586Z</time></trkpt><trkpt lat="45.2238849" lon="9.041536"><ele>67.0</ele><time>2026-03-22T09:11:14.591Z</time></trkpt><trkpt lat="45.2238969" lon="9.0416323"><ele>66.0</ele><time>2026-03-22T09:11:16.594Z</time></trkpt><trkpt lat="45.2238878" lon="9.0417737"><ele>65.0</ele><time>2026-03-22T09:11:18.603Z</time></trkpt><trkpt lat="45.223887" lon="9.0419024"><ele>64.0</ele><time>2026-03-22T09:11:21.587Z</time></trkpt><trkpt lat="45.2239019" lon="9.0419976"><ele>63.0</ele><time>2026-03-22T09:11:23.582Z</time></trkpt><trkpt lat="45.2239095" lon="9.0421105"><ele>63.0</ele><time>2026-03-22T09:11:26.591Z</time></trkpt><trkpt lat="45.2239089" lon="9.042212"><ele>63.0</ele><time>2026-03-22T09:11:28.587Z</time></trkpt><trkpt lat="45.2239121" lon="9.0423095"><ele>63.0</ele><time>2026-03-22T09:11:30.599Z</time></trkpt><trkpt lat="45.2239077" lon="9.0424121"><ele>63.0</ele><time>2026-03-22T09:11:32.596Z</time></trkpt><trkpt lat="45.2239263" lon="9.0425015"><ele>63.0</ele><time>2026-03-22T09:11:34.599Z</time></trkpt><trkpt lat="45.2239691" lon="9.0425828"><ele>63.0</ele><time>2026-03-22T09:11:37.595Z</time></trkpt><trkpt lat="45.2240012" lon="9.0426688"><ele>63.0</ele><time>2026-03-22T09:11:40.598Z</time></trkpt><trkpt lat="45.2240211" lon="9.0428033"><ele>63.5</ele><time>2026-03-22T09:11:43.59Z</time></trkpt><trkpt lat="45.2240413" lon="9.042894"><ele>64.0</ele><time>2026-03-22T09:11:46.57Z</time></trkpt><trkpt lat="45.2241038" lon="9.0429416"><ele>64.5</ele><time>2026-03-22T09:11:50.587Z</time></trkpt><trkpt lat="45.2241279" lon="9.0430258"><ele>65.0</ele><time>2026-03-22T09:11:53.598Z</time></trkpt><trkpt lat="45.2241589" lon="9.0431306"><ele>65.5</ele><time>2026-03-22T09:11:56.599Z</time></trkpt><trkpt lat="45.2241758" lon="9.043262"><ele>66.0</ele><time>2026-03-22T09:11:59.662Z</time></trkpt><trkpt lat="45.2241805" lon="9.043382"><ele>66.0</ele><time>2026-03-22T09:12:01.578Z</time></trkpt><trkpt lat="45.2241846" lon="9.0434866"><ele>66.0</ele><time>2026-03-22T09:12:03.594Z</time></trkpt><trkpt lat="45.2242468" lon="9.0435364"><ele>66.0</ele><time>2026-03-22T09:12:09.594Z</time></trkpt><trkpt lat="45.2243161" lon="9.0435405"><ele>66.0</ele><time>2026-03-22T09:12:12.682Z</time></trkpt><trkpt lat="45.2243553" lon="9.0436382"><ele>66.0</ele><time>2026-03-22T09:12:16.587Z</time></trkpt><trkpt lat="45.2244227" lon="9.0437106"><ele>66.0</ele><time>2026-03-22T09:12:22.597Z</time></trkpt><trkpt lat="45.2244546" lon="9.0437948"><ele>66.0</ele><time>2026-03-22T09:12:25.582Z</time></trkpt><trkpt lat="45.224481" lon="9.0438811"><ele>66.0</ele><time>2026-03-22T09:12:27.594Z</time></trkpt><trkpt lat="45.2245288" lon="9.0439552"><ele>66.0</ele><time>2026-03-22T09:12:30.649Z</time></trkpt><trkpt lat="45.2245597" lon="9.0440524"><ele>66.0</ele><time>2026-03-22T09:12:33.574Z</time></trkpt><trkpt lat="45.2245927" lon="9.0441742"><ele>66.0</ele><time>2026-03-22T09:12:36.577Z</time></trkpt><trkpt lat="45.2246453" lon="9.0442345"><ele>66.0</ele><time>2026-03-22T09:12:39.638Z</time></trkpt><trkpt lat="45.2247139" lon="9.0442096"><ele>66.0</ele><time>2026-03-22T09:12:42.577Z</time></trkpt><trkpt lat="45.2247897" lon="9.0441795"><ele>66.0</ele><time>2026-03-22T09:12:45.575Z</time></trkpt><trkpt lat="45.224874" lon="9.0441402"><ele>66.0</ele><time>2026-03-22T09:12:48.577Z</time></trkpt><trkpt lat="45.2249511" lon="9.0440557"><ele>66.0</ele><time>2026-03-22T09:12:51.575Z</time></trkpt><trkpt lat="45.2250192" lon="9.0440392"><ele>66.0</ele><time>2026-03-22T09:13:06.582Z</time></trkpt><trkpt lat="45.2250922" lon="9.0440357"><ele>66.0</ele><time>2026-03-22T09:13:19.577Z</time></trkpt><trkpt lat="45.2251646" lon="9.0440308"><ele>66.0</ele><time>2026-03-22T09:13:22.578Z</time></trkpt><trkpt lat="45.2252279" lon="9.0440833"><ele>65.66666666666667</ele><time>2026-03-22T09:13:25.594Z</time></trkpt><trkpt lat="45.2252833" lon="9.0441643"><ele>65.33333333333333</ele><time>2026-03-22T09:13:28.603Z</time></trkpt><trkpt lat="45.2253343" lon="9.0442404"><ele>65.0</ele><time>2026-03-22T09:13:31.601Z</time></trkpt><trkpt lat="45.2253986" lon="9.0443293"><ele>64.66666666666666</ele><time>2026-03-22T09:13:34.596Z</time></trkpt><trkpt lat="45.225441" lon="9.0444046"><ele>64.33333333333333</ele><time>2026-03-22T09:13:36.587Z</time></trkpt><trkpt lat="45.2254749" lon="9.0444884"><ele>64.0</ele><time>2026-03-22T09:13:38.598Z</time></trkpt><trkpt lat="45.2255074" lon="9.0445784"><ele>63.99999999999999</ele><time>2026-03-22T09:13:40.592Z</time></trkpt><trkpt lat="45.2255144" lon="9.0446757"><ele>64.0</ele><time>2026-03-22T09:13:42.588Z</time></trkpt><trkpt lat="45.225527" lon="9.0447821"><ele>64.0</ele><time>2026-03-22T09:13:44.593Z</time></trkpt><trkpt lat="45.2255446" lon="9.044894"><ele>64.0</ele><time>2026-03-22T09:13:46.583Z</time></trkpt><trkpt lat="45.2255519" lon="9.0450156"><ele>63.99999999999999</ele><time>2026-03-22T09:13:48.58Z</time></trkpt><trkpt lat="45.2255546" lon="9.0451287"><ele>64.0</ele><time>2026-03-22T09:13:50.59Z</time></trkpt><trkpt lat="45.2255475" lon="9.0452193"><ele>64.33333333333333</ele><time>2026-03-22T09:13:52.585Z</time></trkpt><trkpt lat="45.2255271" lon="9.0453086"><ele>64.66666666666666</ele><time>2026-03-22T09:13:54.585Z</time></trkpt><trkpt lat="45.2255071" lon="9.0454133"><ele>65.0</ele><time>2026-03-22T09:13:56.586Z</time></trkpt><trkpt lat="45.2254824" lon="9.0455404"><ele>65.33333333333333</ele><time>2026-03-22T09:13:58.579Z</time></trkpt><trkpt lat="45.2254646" lon="9.0456585"><ele>65.66666666666667</ele><time>2026-03-22T09:14:00.606Z</time></trkpt><trkpt lat="45.2254372" lon="9.0457721"><ele>66.0</ele><time>2026-03-22T09:14:02.597Z</time></trkpt><trkpt lat="45.2254007" lon="9.0458792"><ele>66.0</ele><time>2026-03-22T09:14:04.588Z</time></trkpt><trkpt lat="45.2253543" lon="9.0459905"><ele>66.0</ele><time>2026-03-22T09:14:07.588Z</time></trkpt><trkpt lat="45.2253083" lon="9.0461048"><ele>66.0</ele><time>2026-03-22T09:14:10.602Z</time></trkpt><trkpt lat="45.2252679" lon="9.0462213"><ele>66.0</ele><time>2026-03-22T09:14:13.599Z</time></trkpt><trkpt lat="45.2252303" lon="9.0463353"><ele>66.0</ele><time>2026-03-22T09:14:16.587Z</time></trkpt><trkpt lat="45.2251946" lon="9.0464168"><ele>66.0</ele><time>2026-03-22T09:14:18.582Z</time></trkpt><trkpt lat="45.2251851" lon="9.0465384"><ele>65.83333333333333</ele><time>2026-03-22T09:14:21.583Z</time></trkpt><trkpt lat="45.2252289" lon="9.0466375"><ele>65.66666666666667</ele><time>2026-03-22T09:14:24.599Z</time></trkpt><trkpt lat="45.2252787" lon="9.046736"><ele>65.5</ele><time>2026-03-22T09:14:27.581Z</time></trkpt><trkpt lat="45.2253425" lon="9.0468358"><ele>65.33333333333334</ele><time>2026-03-22T09:14:30.584Z</time></trkpt><trkpt lat="45.2253656" lon="9.0469291"><ele>65.16666666666667</ele><time>2026-03-22T09:14:32.594Z</time></trkpt><trkpt lat="45.2253486" lon="9.0470222"><ele>65.0</ele><time>2026-03-22T09:14:34.588Z</time></trkpt><trkpt lat="45.225309" lon="9.0470993"><ele>65.0</ele><time>2026-03-22T09:14:36.572Z</time></trkpt><trkpt lat="45.225267" lon="9.0472034"><ele>65.0</ele><time>2026-03-22T09:14:39.57Z</time></trkpt><trkpt lat="45.2252114" lon="9.0473217"><ele>65.0</ele><time>2026-03-22T09:14:42.574Z</time></trkpt><trkpt lat="45.2251613" lon="9.0473954"><ele>65.0</ele><time>2026-03-22T09:14:44.576Z</time></trkpt><trkpt lat="45.2251155" lon="9.0474679"><ele>65.0</ele><time>2026-03-22T09:14:46.575Z</time></trkpt><trkpt lat="45.2250575" lon="9.0475744"><ele>65.0</ele><time>2026-03-22T09:14:49.571Z</time></trkpt><trkpt lat="45.2250152" lon="9.0476434"><ele>65.14285714285715</ele><time>2026-03-22T09:14:51.579Z</time></trkpt><trkpt lat="45.2249687" lon="9.047714"><ele>65.28571428571429</ele><time>2026-03-22T09:14:53.573Z</time></trkpt><trkpt lat="45.2249185" lon="9.0477846"><ele>65.42857142857143</ele><time>2026-03-22T09:14:55.571Z</time></trkpt><trkpt lat="45.224879" lon="9.0478553"><ele>65.57142857142858</ele><time>2026-03-22T09:14:57.648Z</time></trkpt><trkpt lat="45.2248344" lon="9.0479355"><ele>65.71428571428572</ele><time>2026-03-22T09:14:59.574Z</time></trkpt><trkpt lat="45.2248025" lon="9.0480154"><ele>65.85714285714286</ele><time>2026-03-22T09:15:01.575Z</time></trkpt><trkpt lat="45.224763" lon="9.0480888"><ele>66.0</ele><time>2026-03-22T09:15:03.571Z</time></trkpt><trkpt lat="45.2247219" lon="9.0481733"><ele>66.0</ele><time>2026-03-22T09:15:05.573Z</time></trkpt><trkpt lat="45.2246906" lon="9.0482524"><ele>66.0</ele><time>2026-03-22T09:15:07.579Z</time></trkpt><trkpt lat="45.2246656" lon="9.048362"><ele>66.0</ele><time>2026-03-22T09:15:09.573Z</time></trkpt><trkpt lat="45.2246591" lon="9.0484599"><ele>66.0</ele><time>2026-03-22T09:15:11.58Z</time></trkpt><trkpt lat="45.2246676" lon="9.0485764"><ele>66.0</ele><time>2026-03-22T09:15:13.577Z</time></trkpt><trkpt lat="45.2246891" lon="9.0486786"><ele>66.0</ele><time>2026-03-22T09:15:15.57Z</time></trkpt><trkpt lat="45.2246952" lon="9.0487788"><ele>66.0</ele><time>2026-03-22T09:15:17.575Z</time></trkpt><trkpt lat="45.2247114" lon="9.0489166"><ele>65.83333333333333</ele><time>2026-03-22T09:15:19.591Z</time></trkpt><trkpt lat="45.2247125" lon="9.0490287"><ele>65.66666666666667</ele><time>2026-03-22T09:15:21.573Z</time></trkpt><trkpt lat="45.2247202" lon="9.049125"><ele>65.5</ele><time>2026-03-22T09:15:23.585Z</time></trkpt><trkpt lat="45.2247337" lon="9.0492211"><ele>65.33333333333334</ele><time>2026-03-22T09:15:25.579Z</time></trkpt><trkpt lat="45.2247397" lon="9.0493387"><ele>65.16666666666667</ele><time>2026-03-22T09:15:27.578Z</time></trkpt><trkpt lat="45.224734" lon="9.0494641"><ele>65.0</ele><time>2026-03-22T09:15:29.573Z</time></trkpt><trkpt lat="45.2247241" lon="9.0495703"><ele>65.00000000000001</ele><time>2026-03-22T09:15:31.57Z</time></trkpt><trkpt lat="45.2247009" lon="9.049705"><ele>65.0</ele><time>2026-03-22T09:15:34.576Z</time></trkpt><trkpt lat="45.2246724" lon="9.0498001"><ele>65.0</ele><time>2026-03-22T09:15:36.577Z</time></trkpt><trkpt lat="45.224649" lon="9.0498879"><ele>65.0</ele><time>2026-03-22T09:15:38.577Z</time></trkpt><trkpt lat="45.2246233" lon="9.0499793"><ele>65.0</ele><time>2026-03-22T09:15:40.57Z</time></trkpt><trkpt lat="45.2245897" lon="9.0500695"><ele>65.00000000000001</ele><time>2026-03-22T09:15:42.579Z</time></trkpt><trkpt lat="45.2245656" lon="9.050161"><ele>65.0</ele><time>2026-03-22T09:15:44.571Z</time></trkpt><trkpt lat="45.2245329" lon="9.0502539"><ele>65.16666666666667</ele><time>2026-03-22T09:15:46.574Z</time></trkpt><trkpt lat="45.2245025" lon="9.050361"><ele>65.33333333333334</ele><time>2026-03-22T09:15:48.575Z</time></trkpt><trkpt lat="45.2244837" lon="9.0504607"><ele>65.5</ele><time>2026-03-22T09:15:50.571Z</time></trkpt><trkpt lat="45.2244654" lon="9.0505587"><ele>65.66666666666667</ele><time>2026-03-22T09:15:52.573Z</time></trkpt><trkpt lat="45.2244497" lon="9.0506851"><ele>65.83333333333333</ele><time>2026-03-22T09:15:55.574Z</time></trkpt><trkpt lat="45.2244252" lon="9.050814"><ele>66.0</ele><time>2026-03-22T09:15:58.576Z</time></trkpt><trkpt lat="45.2244045" lon="9.0509396"><ele>66.0</ele><time>2026-03-22T09:16:01.576Z</time></trkpt><trkpt lat="45.2243727" lon="9.0510186"><ele>66.0</ele><time>2026-03-22T09:16:03.595Z</time></trkpt><trkpt lat="45.2243291" lon="9.0511146"><ele>66.0</ele><time>2026-03-22T09:16:06.572Z</time></trkpt><trkpt lat="45.2242659" lon="9.0511743"><ele>66.0</ele><time>2026-03-22T09:16:10.571Z</time></trkpt><trkpt lat="45.2242084" lon="9.0512169"><ele>66.0</ele><time>2026-03-22T09:16:13.597Z</time></trkpt><trkpt lat="45.2241529" lon="9.051281"><ele>66.0</ele><time>2026-03-22T09:16:17.574Z</time></trkpt><trkpt lat="45.2241019" lon="9.0513572"><ele>66.0</ele><time>2026-03-22T09:16:21.577Z</time></trkpt><trkpt lat="45.2241611" lon="9.0513882"><ele>66.0</ele><time>2026-03-22T09:16:35.602Z</time></trkpt><trkpt lat="45.2241851" lon="9.0515101"><ele>66.0</ele><time>2026-03-22T09:16:38.572Z</time></trkpt><trkpt lat="45.2242128" lon="9.0516072"><ele>66.0</ele><time>2026-03-22T09:16:41.58Z</time></trkpt><trkpt lat="45.2242494" lon="9.0516876"><ele>66.0</ele><time>2026-03-22T09:16:44.569Z</time></trkpt><trkpt lat="45.2242748" lon="9.0517773"><ele>66.0</ele><time>2026-03-22T09:16:47.572Z</time></trkpt><trkpt lat="45.2243094" lon="9.0518867"><ele>66.0</ele><time>2026-03-22T09:16:50.581Z</time></trkpt><trkpt lat="45.2243222" lon="9.0519994"><ele>65.66666666666667</ele><time>2026-03-22T09:16:53.577Z</time></trkpt><trkpt lat="45.2243369" lon="9.0521134"><ele>65.33333333333333</ele><time>2026-03-22T09:16:56.574Z</time></trkpt><trkpt lat="45.2243493" lon="9.052234"><ele>65.0</ele><time>2026-03-22T09:16:59.58Z</time></trkpt><trkpt lat="45.2243703" lon="9.0523365"><ele>64.66666666666666</ele><time>2026-03-22T09:17:02.582Z</time></trkpt><trkpt lat="45.2243965" lon="9.0524455"><ele>64.33333333333333</ele><time>2026-03-22T09:17:05.578Z</time></trkpt><trkpt lat="45.2244206" lon="9.052575"><ele>64.0</ele><time>2026-03-22T09:17:08.578Z</time></trkpt><trkpt lat="45.2244511" lon="9.0526955"><ele>63.666666666666664</ele><time>2026-03-22T09:17:11.573Z</time></trkpt><trkpt lat="45.224466" lon="9.052785"><ele>63.33333333333333</ele><time>2026-03-22T09:17:13.567Z</time></trkpt><trkpt lat="45.2244811" lon="9.0528723"><ele>63.0</ele><time>2026-03-22T09:17:15.576Z</time></trkpt><trkpt lat="45.2244939" lon="9.0529951"><ele>62.66666666666667</ele><time>2026-03-22T09:17:18.577Z</time></trkpt><trkpt lat="45.2245011" lon="9.053126"><ele>62.333333333333336</ele><time>2026-03-22T09:17:21.572Z</time></trkpt><trkpt lat="45.2245038" lon="9.0532587"><ele>62.0</ele><time>2026-03-22T09:17:24.566Z</time></trkpt><trkpt lat="45.2245042" lon="9.0533779"><ele>62.0</ele><time>2026-03-22T09:17:27.565Z</time></trkpt><trkpt lat="45.2245049" lon="9.0534717"><ele>62.00000000000001</ele><time>2026-03-22T09:17:29.572Z</time></trkpt><trkpt lat="45.2245071" lon="9.0535722"><ele>62.0</ele><time>2026-03-22T09:17:31.575Z</time></trkpt><trkpt lat="45.2245122" lon="9.0536642"><ele>62.0</ele><time>2026-03-22T09:17:33.58Z</time></trkpt><trkpt lat="45.2245161" lon="9.0537613"><ele>62.00000000000001</ele><time>2026-03-22T09:17:35.726Z</time></trkpt><trkpt lat="45.2245181" lon="9.0538601"><ele>62.0</ele><time>2026-03-22T09:17:37.656Z</time></trkpt><trkpt lat="45.2245243" lon="9.0539902"><ele>62.0</ele><time>2026-03-22T09:17:40.579Z</time></trkpt><trkpt lat="45.224526" lon="9.0540999"><ele>61.85714285714286</ele><time>2026-03-22T09:17:42.578Z</time></trkpt><trkpt lat="45.2245397" lon="9.0542009"><ele>61.71428571428572</ele><time>2026-03-22T09:17:44.577Z</time></trkpt><trkpt lat="45.2245582" lon="9.0542971"><ele>61.57142857142857</ele><time>2026-03-22T09:17:46.577Z</time></trkpt><trkpt lat="45.2245758" lon="9.0543967"><ele>61.42857142857143</ele><time>2026-03-22T09:17:48.57Z</time></trkpt><trkpt lat="45.2246084" lon="9.054483"><ele>61.285714285714285</ele><time>2026-03-22T09:17:50.577Z</time></trkpt><trkpt lat="45.2246744" lon="9.0544916"><ele>61.14285714285714</ele><time>2026-03-22T09:17:52.571Z</time></trkpt><trkpt lat="45.2247411" lon="9.0544193"><ele>60.99999999999999</ele><time>2026-03-22T09:17:54.574Z</time></trkpt><trkpt lat="45.22479" lon="9.0543582"><ele>60.99999999999999</ele><time>2026-03-22T09:17:56.567Z</time></trkpt><trkpt lat="45.2248513" lon="9.0543066"><ele>61.0</ele><time>2026-03-22T09:17:58.567Z</time></trkpt><trkpt lat="45.2249259" lon="9.0542149"><ele>61.0</ele><time>2026-03-22T09:18:01.591Z</time></trkpt><trkpt lat="45.2249941" lon="9.0541496"><ele>61.0</ele><time>2026-03-22T09:18:03.567Z</time></trkpt><trkpt lat="45.2250566" lon="9.0540916"><ele>60.99999999999999</ele><time>2026-03-22T09:18:05.562Z</time></trkpt><trkpt lat="45.2251205" lon="9.0540368"><ele>61.0</ele><time>2026-03-22T09:18:07.578Z</time></trkpt><trkpt lat="45.225183" lon="9.05397"><ele>60.99999999999999</ele><time>2026-03-22T09:18:09.564Z</time></trkpt><trkpt lat="45.2252538" lon="9.0539135"><ele>61.0</ele><time>2026-03-22T09:18:11.567Z</time></trkpt><trkpt lat="45.2253168" lon="9.0538498"><ele>61.0</ele><time>2026-03-22T09:18:13.575Z</time></trkpt><trkpt lat="45.2253815" lon="9.0537991"><ele>61.0</ele><time>2026-03-22T09:18:15.565Z</time></trkpt><trkpt lat="45.2254498" lon="9.0537423"><ele>60.99999999999999</ele><time>2026-03-22T09:18:17.576Z</time></trkpt><trkpt lat="45.2255192" lon="9.0536802"><ele>61.0</ele><time>2026-03-22T09:18:19.576Z</time></trkpt><trkpt lat="45.2255855" lon="9.0536248"><ele>61.166666666666664</ele><time>2026-03-22T09:18:21.572Z</time></trkpt><trkpt lat="45.225652" lon="9.0535745"><ele>61.33333333333333</ele><time>2026-03-22T09:18:23.572Z</time></trkpt><trkpt lat="45.2257204" lon="9.0535087"><ele>61.5</ele><time>2026-03-22T09:18:25.581Z</time></trkpt><trkpt lat="45.2257937" lon="9.053456"><ele>61.66666666666667</ele><time>2026-03-22T09:18:27.573Z</time></trkpt><trkpt lat="45.2258573" lon="9.053397"><ele>61.833333333333336</ele><time>2026-03-22T09:18:29.574Z</time></trkpt><trkpt lat="45.2259219" lon="9.0533354"><ele>62.0</ele><time>2026-03-22T09:18:31.572Z</time></trkpt><trkpt lat="45.225995" lon="9.053302"><ele>62.16666666666667</ele><time>2026-03-22T09:18:33.588Z</time></trkpt><trkpt lat="45.2260677" lon="9.0532787"><ele>62.333333333333336</ele><time>2026-03-22T09:18:35.575Z</time></trkpt><trkpt lat="45.2261498" lon="9.0532589"><ele>62.5</ele><time>2026-03-22T09:18:37.572Z</time></trkpt><trkpt lat="45.2262227" lon="9.0532546"><ele>62.66666666666667</ele><time>2026-03-22T09:18:39.572Z</time></trkpt><trkpt lat="45.2263051" lon="9.0532383"><ele>62.833333333333336</ele><time>2026-03-22T09:18:41.569Z</time></trkpt><trkpt lat="45.2263879" lon="9.0532225"><ele>63.0</ele><time>2026-03-22T09:18:43.579Z</time></trkpt><trkpt lat="45.226463" lon="9.053214"><ele>63.5</ele><time>2026-03-22T09:18:45.584Z</time></trkpt><trkpt lat="45.2265445" lon="9.0532059"><ele>64.0</ele><time>2026-03-22T09:18:47.576Z</time></trkpt><trkpt lat="45.2266221" lon="9.0531924"><ele>64.5</ele><time>2026-03-22T09:18:49.58Z</time></trkpt><trkpt lat="45.2267107" lon="9.0531823"><ele>65.0</ele><time>2026-03-22T09:18:51.579Z</time></trkpt><trkpt lat="45.226791" lon="9.0531499"><ele>65.5</ele><time>2026-03-22T09:18:53.575Z</time></trkpt><trkpt lat="45.2268689" lon="9.053127"><ele>66.0</ele><time>2026-03-22T09:18:55.57Z</time></trkpt><trkpt lat="45.226943" lon="9.0530915"><ele>66.0</ele><time>2026-03-22T09:18:57.581Z</time></trkpt><trkpt lat="45.2270161" lon="9.0530422"><ele>66.0</ele><time>2026-03-22T09:18:59.595Z</time></trkpt><trkpt lat="45.2270932" lon="9.0530113"><ele>66.0</ele><time>2026-03-22T09:19:01.571Z</time></trkpt><trkpt lat="45.2271723" lon="9.0529915"><ele>66.0</ele><time>2026-03-22T09:19:03.595Z</time></trkpt><trkpt lat="45.2272482" lon="9.0530076"><ele>66.0</ele><time>2026-03-22T09:19:05.591Z</time></trkpt><trkpt lat="45.2273235" lon="9.0530339"><ele>66.0</ele><time>2026-03-22T09:19:07.595Z</time></trkpt><trkpt lat="45.2273915" lon="9.0530655"><ele>66.71428571428571</ele><time>2026-03-22T09:19:09.595Z</time></trkpt><trkpt lat="45.2274561" lon="9.0531027"><ele>67.42857142857143</ele><time>2026-03-22T09:19:11.592Z</time></trkpt><trkpt lat="45.2275249" lon="9.0531406"><ele>68.14285714285714</ele><time>2026-03-22T09:19:13.585Z</time></trkpt><trkpt lat="45.2276025" lon="9.0531599"><ele>68.85714285714286</ele><time>2026-03-22T09:19:15.568Z</time></trkpt><trkpt lat="45.2276716" lon="9.0531887"><ele>69.57142857142857</ele><time>2026-03-22T09:19:17.583Z</time></trkpt><trkpt lat="45.2277377" lon="9.0532444"><ele>70.28571428571428</ele><time>2026-03-22T09:19:19.589Z</time></trkpt><trkpt lat="45.2277938" lon="9.0532934"><ele>71.0</ele><time>2026-03-22T09:19:21.581Z</time></trkpt><trkpt lat="45.2278516" lon="9.0533548"><ele>72.0</ele><time>2026-03-22T09:19:23.651Z</time></trkpt><trkpt lat="45.2279108" lon="9.0534345"><ele>73.0</ele><time>2026-03-22T09:19:25.592Z</time></trkpt><trkpt lat="45.2279796" lon="9.0534954"><ele>74.0</ele><time>2026-03-22T09:19:27.599Z</time></trkpt><trkpt lat="45.2280554" lon="9.0535492"><ele>75.0</ele><time>2026-03-22T09:19:29.6Z</time></trkpt><trkpt lat="45.2281344" lon="9.0535737"><ele>76.0</ele><time>2026-03-22T09:19:31.568Z</time></trkpt><trkpt lat="45.2282225" lon="9.0535943"><ele>77.0</ele><time>2026-03-22T09:19:33.571Z</time></trkpt><trkpt lat="45.2283189" lon="9.0535917"><ele>76.83333333333334</ele><time>2026-03-22T09:19:35.567Z</time></trkpt><trkpt lat="45.2283924" lon="9.0535736"><ele>76.66666666666667</ele><time>2026-03-22T09:19:37.563Z</time></trkpt><trkpt lat="45.2284677" lon="9.0535617"><ele>76.5</ele><time>2026-03-22T09:19:39.575Z</time></trkpt><trkpt lat="45.2285562" lon="9.0535329"><ele>76.33333333333333</ele><time>2026-03-22T09:19:42.57Z</time></trkpt><trkpt lat="45.2286113" lon="9.0534447"><ele>76.16666666666666</ele><time>2026-03-22T09:19:45.59Z</time></trkpt><trkpt lat="45.2286273" lon="9.0533399"><ele>76.0</ele><time>2026-03-22T09:19:47.601Z</time></trkpt><trkpt lat="45.2286578" lon="9.053215"><ele>76.0</ele><time>2026-03-22T09:19:49.598Z</time></trkpt><trkpt lat="45.2286652" lon="9.0530899"><ele>76.0</ele><time>2026-03-22T09:19:51.601Z</time></trkpt><trkpt lat="45.2286804" lon="9.0529737"><ele>76.0</ele><time>2026-03-22T09:19:53.585Z</time></trkpt><trkpt lat="45.2286905" lon="9.0528748"><ele>76.0</ele><time>2026-03-22T09:19:55.583Z</time></trkpt><trkpt lat="45.2287031" lon="9.0527402"><ele>76.0</ele><time>2026-03-22T09:19:58.597Z</time></trkpt><trkpt lat="45.228707" lon="9.0526392"><ele>76.0</ele><time>2026-03-22T09:20:00.609Z</time></trkpt><trkpt lat="45.2287079" lon="9.0525438"><ele>76.0</ele><time>2026-03-22T09:20:02.586Z</time></trkpt><trkpt lat="45.2287144" lon="9.0524455"><ele>76.0</ele><time>2026-03-22T09:20:04.66Z</time></trkpt><trkpt lat="45.228722" lon="9.0523517"><ele>76.0</ele><time>2026-03-22T09:20:06.597Z</time></trkpt><trkpt lat="45.2287299" lon="9.0522525"><ele>76.0</ele><time>2026-03-22T09:20:08.601Z</time></trkpt><trkpt lat="45.2287382" lon="9.052153"><ele>76.0</ele><time>2026-03-22T09:20:10.608Z</time></trkpt><trkpt lat="45.2287452" lon="9.0520531"><ele>76.0</ele><time>2026-03-22T09:20:12.588Z</time></trkpt><trkpt lat="45.2287542" lon="9.0519555"><ele>76.0</ele><time>2026-03-22T09:20:14.591Z</time></trkpt><trkpt lat="45.2287595" lon="9.0518528"><ele>76.0</ele><time>2026-03-22T09:20:16.571Z</time></trkpt><trkpt lat="45.2287708" lon="9.0517437"><ele>76.0</ele><time>2026-03-22T09:20:18.575Z</time></trkpt><trkpt lat="45.2287751" lon="9.0516178"><ele>76.0</ele><time>2026-03-22T09:20:21.575Z</time></trkpt><trkpt lat="45.2287198" lon="9.0515111"><ele>76.0</ele><time>2026-03-22T09:20:24.58Z</time></trkpt><trkpt lat="45.2286539" lon="9.051481"><ele>76.0</ele><time>2026-03-22T09:20:26.566Z</time></trkpt><trkpt lat="45.2285843" lon="9.0514669"><ele>76.0</ele><time>2026-03-22T09:20:28.574Z</time></trkpt><trkpt lat="45.2285225" lon="9.0514198"><ele>76.42857142857143</ele><time>2026-03-22T09:20:30.575Z</time></trkpt><trkpt lat="45.2285077" lon="9.0513163"><ele>76.85714285714286</ele><time>2026-03-22T09:20:32.651Z</time></trkpt><trkpt lat="45.2285203" lon="9.0512279"><ele>77.28571428571429</ele><time>2026-03-22T09:20:34.583Z</time></trkpt><trkpt lat="45.2285437" lon="9.0511305"><ele>77.71428571428572</ele><time>2026-03-22T09:20:36.568Z</time></trkpt><trkpt lat="45.2285604" lon="9.0510389"><ele>78.14285714285714</ele><time>2026-03-22T09:20:38.57Z</time></trkpt><trkpt lat="45.2285771" lon="9.0509425"><ele>78.57142857142858</ele><time>2026-03-22T09:20:40.571Z</time></trkpt><trkpt lat="45.2285946" lon="9.0508449"><ele>79.0</ele><time>2026-03-22T09:20:42.565Z</time></trkpt><trkpt lat="45.2286112" lon="9.050745"><ele>79.00000000000001</ele><time>2026-03-22T09:20:44.572Z</time></trkpt><trkpt lat="45.2286273" lon="9.0506447"><ele>79.0</ele><time>2026-03-22T09:20:46.574Z</time></trkpt><trkpt lat="45.2286445" lon="9.0505492"><ele>79.0</ele><time>2026-03-22T09:20:48.569Z</time></trkpt><trkpt lat="45.2286568" lon="9.0504504"><ele>79.0</ele><time>2026-03-22T09:20:50.57Z</time></trkpt><trkpt lat="45.2286887" lon="9.0503436"><ele>79.0</ele><time>2026-03-22T09:20:52.574Z</time></trkpt><trkpt lat="45.228717" lon="9.0502527"><ele>79.00000000000001</ele><time>2026-03-22T09:20:54.57Z</time></trkpt><trkpt lat="45.2287043" lon="9.0501603"><ele>79.0</ele><time>2026-03-22T09:20:56.576Z</time></trkpt><trkpt lat="45.2286707" lon="9.0500839"><ele>79.0</ele><time>2026-03-22T09:20:58.572Z</time></trkpt><trkpt lat="45.2286056" lon="9.0500471"><ele>79.0</ele><time>2026-03-22T09:21:00.577Z</time></trkpt><trkpt lat="45.2285229" lon="9.0500599"><ele>79.0</ele><time>2026-03-22T09:21:02.576Z</time></trkpt><trkpt lat="45.2284561" lon="9.0500363"><ele>79.0</ele><time>2026-03-22T09:21:04.575Z</time></trkpt><trkpt lat="45.2283845" lon="9.0499881"><ele>79.0</ele><time>2026-03-22T09:21:06.572Z</time></trkpt><trkpt lat="45.2283535" lon="9.0498721"><ele>79.0</ele><time>2026-03-22T09:21:08.569Z</time></trkpt><trkpt lat="45.2283626" lon="9.049758"><ele>79.00000000000001</ele><time>2026-03-22T09:21:10.575Z</time></trkpt><trkpt lat="45.2283793" lon="9.0496588"><ele>79.0</ele><time>2026-03-22T09:21:12.569Z</time></trkpt><trkpt lat="45.2284007" lon="9.0495563"><ele>79.0</ele><time>2026-03-22T09:21:14.633Z</time></trkpt><trkpt lat="45.2284118" lon="9.0494597"><ele>79.0</ele><time>2026-03-22T09:21:16.576Z</time></trkpt><trkpt lat="45.2284309" lon="9.0493617"><ele>79.0</ele><time>2026-03-22T09:21:18.561Z</time></trkpt><trkpt lat="45.2284442" lon="9.0492572"><ele>79.00000000000001</ele><time>2026-03-22T09:21:20.573Z</time></trkpt><trkpt lat="45.2284636" lon="9.0491491"><ele>79.0</ele><time>2026-03-22T09:21:22.574Z</time></trkpt><trkpt lat="45.228479" lon="9.0490474"><ele>79.0</ele><time>2026-03-22T09:21:24.578Z</time></trkpt><trkpt lat="45.2284952" lon="9.0489297"><ele>79.0</ele><time>2026-03-22T09:21:26.584Z</time></trkpt><trkpt lat="45.2285023" lon="9.0488206"><ele>79.0</ele><time>2026-03-22T09:21:28.575Z</time></trkpt><trkpt lat="45.2285193" lon="9.04869"><ele>79.0</ele><time>2026-03-22T09:21:31.574Z</time></trkpt><trkpt lat="45.2285291" lon="9.048591"><ele>79.0</ele><time>2026-03-22T09:21:33.585Z</time></trkpt><trkpt lat="45.2285406" lon="9.0484915"><ele>79.0</ele><time>2026-03-22T09:21:35.573Z</time></trkpt><trkpt lat="45.2285561" lon="9.0483833"><ele>78.57142857142858</ele><time>2026-03-22T09:21:37.58Z</time></trkpt><trkpt lat="45.2285659" lon="9.0482885"><ele>78.14285714285714</ele><time>2026-03-22T09:21:39.57Z</time></trkpt><trkpt lat="45.2285781" lon="9.0481848"><ele>77.71428571428572</ele><time>2026-03-22T09:21:41.573Z</time></trkpt><trkpt lat="45.2285889" lon="9.0480771"><ele>77.28571428571429</ele><time>2026-03-22T09:21:43.581Z</time></trkpt><trkpt lat="45.2285986" lon="9.0479758"><ele>76.85714285714286</ele><time>2026-03-22T09:21:45.579Z</time></trkpt><trkpt lat="45.2286051" lon="9.0478743"><ele>76.42857142857143</ele><time>2026-03-22T09:21:47.574Z</time></trkpt><trkpt lat="45.2286131" lon="9.0477664"><ele>76.0</ele><time>2026-03-22T09:21:49.566Z</time></trkpt><trkpt lat="45.2286286" lon="9.0476614"><ele>76.0</ele><time>2026-03-22T09:21:51.584Z</time></trkpt><trkpt lat="45.2286424" lon="9.047556"><ele>76.0</ele><time>2026-03-22T09:21:53.566Z</time></trkpt><trkpt lat="45.2286591" lon="9.0474599"><ele>76.0</ele><time>2026-03-22T09:21:55.578Z</time></trkpt><trkpt lat="45.2286706" lon="9.0473622"><ele>76.0</ele><time>2026-03-22T09:21:57.582Z</time></trkpt><trkpt lat="45.2286868" lon="9.0472666"><ele>76.0</ele><time>2026-03-22T09:21:59.567Z</time></trkpt><trkpt lat="45.2286988" lon="9.0471573"><ele>76.0</ele><time>2026-03-22T09:22:01.578Z</time></trkpt><trkpt lat="45.2286962" lon="9.0470452"><ele>76.0</ele><time>2026-03-22T09:22:03.593Z</time></trkpt><trkpt lat="45.2286626" lon="9.0469627"><ele>75.85714285714285</ele><time>2026-03-22T09:22:05.568Z</time></trkpt><trkpt lat="45.2286053" lon="9.046911"><ele>75.71428571428572</ele><time>2026-03-22T09:22:07.562Z</time></trkpt><trkpt lat="45.2285391" lon="9.0469064"><ele>75.57142857142857</ele><time>2026-03-22T09:22:09.582Z</time></trkpt><trkpt lat="45.2284705" lon="9.0469034"><ele>75.42857142857142</ele><time>2026-03-22T09:22:11.578Z</time></trkpt><trkpt lat="45.228395" lon="9.0468924"><ele>75.28571428571428</ele><time>2026-03-22T09:22:13.571Z</time></trkpt><trkpt lat="45.2283283" lon="9.0468833"><ele>75.14285714285714</ele><time>2026-03-22T09:22:15.567Z</time></trkpt><trkpt lat="45.2282602" lon="9.0468582"><ele>75.0</ele><time>2026-03-22T09:22:17.573Z</time></trkpt><trkpt lat="45.2281905" lon="9.0468375"><ele>74.85714285714285</ele><time>2026-03-22T09:22:19.567Z</time></trkpt><trkpt lat="45.2281251" lon="9.0468194"><ele>74.71428571428571</ele><time>2026-03-22T09:22:21.574Z</time></trkpt><trkpt lat="45.2280535" lon="9.0468032"><ele>74.57142857142857</ele><time>2026-03-22T09:22:23.565Z</time></trkpt><trkpt lat="45.2279853" lon="9.0467848"><ele>74.42857142857142</ele><time>2026-03-22T09:22:25.567Z</time></trkpt><trkpt lat="45.2279158" lon="9.046768"><ele>74.28571428571428</ele><time>2026-03-22T09:22:27.575Z</time></trkpt><trkpt lat="45.2278492" lon="9.0467469"><ele>74.14285714285714</ele><time>2026-03-22T09:22:29.563Z</time></trkpt><trkpt lat="45.2277726" lon="9.0467237"><ele>74.0</ele><time>2026-03-22T09:22:31.573Z</time></trkpt><trkpt lat="45.2277004" lon="9.0467095"><ele>74.0</ele><time>2026-03-22T09:22:33.587Z</time></trkpt><trkpt lat="45.2276211" lon="9.0466926"><ele>74.0</ele><time>2026-03-22T09:22:35.579Z</time></trkpt><trkpt lat="45.2275509" lon="9.046669"><ele>74.0</ele><time>2026-03-22T09:22:37.572Z</time></trkpt><trkpt lat="45.2274788" lon="9.0466513"><ele>74.0</ele><time>2026-03-22T09:22:39.574Z</time></trkpt><trkpt lat="45.2274073" lon="9.0466284"><ele>74.0</ele><time>2026-03-22T09:22:41.575Z</time></trkpt><trkpt lat="45.2273423" lon="9.0466011"><ele>74.0</ele><time>2026-03-22T09:22:43.571Z</time></trkpt><trkpt lat="45.2272819" lon="9.0465711"><ele>74.0</ele><time>2026-03-22T09:22:45.595Z</time></trkpt><trkpt lat="45.2272061" lon="9.0464936"><ele>74.0</ele><time>2026-03-22T09:22:48.588Z</time></trkpt><trkpt lat="45.2271838" lon="9.0464025"><ele>74.0</ele><time>2026-03-22T09:22:50.568Z</time></trkpt><trkpt lat="45.2271646" lon="9.0462962"><ele>74.0</ele><time>2026-03-22T09:22:52.576Z</time></trkpt><trkpt lat="45.2271499" lon="9.0461749"><ele>74.0</ele><time>2026-03-22T09:22:55.58Z</time></trkpt><trkpt lat="45.2271425" lon="9.0460461"><ele>74.0</ele><time>2026-03-22T09:22:58.571Z</time></trkpt><trkpt lat="45.2271421" lon="9.0459315"><ele>74.0</ele><time>2026-03-22T09:23:00.577Z</time></trkpt><trkpt lat="45.2271371" lon="9.0458216"><ele>74.0</ele><time>2026-03-22T09:23:02.575Z</time></trkpt><trkpt lat="45.227121" lon="9.0457033"><ele>74.0</ele><time>2026-03-22T09:23:05.575Z</time></trkpt><trkpt lat="45.2270389" lon="9.0457071"><ele>74.0</ele><time>2026-03-22T09:23:07.574Z</time></trkpt><trkpt lat="45.2269345" lon="9.0457391"><ele>74.0</ele><time>2026-03-22T09:23:09.564Z</time></trkpt><trkpt lat="45.2268392" lon="9.0457719"><ele>74.0</ele><time>2026-03-22T09:23:11.571Z</time></trkpt><trkpt lat="45.2267899" lon="9.0458396"><ele>74.0</ele><time>2026-03-22T09:23:13.57Z</time></trkpt><trkpt lat="45.2267836" lon="9.0459965"><ele>74.0</ele><time>2026-03-22T09:23:15.573Z</time></trkpt><trkpt lat="45.2268005" lon="9.0460908"><ele>74.0</ele><time>2026-03-22T09:23:16.568Z</time></trkpt><trkpt lat="45.2268145" lon="9.0461869"><ele>74.0</ele><time>2026-03-22T09:23:17.573Z</time></trkpt><trkpt lat="45.2268251" lon="9.0463003"><ele>74.0</ele><time>2026-03-22T09:23:18.575Z</time></trkpt><trkpt lat="45.2268272" lon="9.0464093"><ele>74.0</ele><time>2026-03-22T09:23:19.574Z</time></trkpt><trkpt lat="45.2268114" lon="9.0465045"><ele>74.0</ele><time>2026-03-22T09:23:20.58Z</time></trkpt><trkpt lat="45.2267562" lon="9.046643"><ele>73.2</ele><time>2026-03-22T09:23:22.568Z</time></trkpt><trkpt lat="45.2266497" lon="9.0467157"><ele>72.4</ele><time>2026-03-22T09:23:24.576Z</time></trkpt><trkpt lat="45.226516" lon="9.0467582"><ele>71.6</ele><time>2026-03-22T09:23:26.583Z</time></trkpt><trkpt lat="45.2264486" lon="9.0467577"><ele>70.8</ele><time>2026-03-22T09:23:27.583Z</time></trkpt><trkpt lat="45.2263269" lon="9.04678"><ele>70.0</ele><time>2026-03-22T09:23:29.577Z</time></trkpt><trkpt lat="45.2262178" lon="9.0468065"><ele>69.0</ele><time>2026-03-22T09:23:31.589Z</time></trkpt><trkpt lat="45.2261135" lon="9.0468172"><ele>68.0</ele><time>2026-03-22T09:23:33.588Z</time></trkpt><trkpt lat="45.2260161" lon="9.0468264"><ele>67.0</ele><time>2026-03-22T09:23:35.58Z</time></trkpt><trkpt lat="45.2259326" lon="9.0468421"><ele>66.0</ele><time>2026-03-22T09:23:37.582Z</time></trkpt><trkpt lat="45.2258574" lon="9.0468398"><ele>65.0</ele><time>2026-03-22T09:23:39.577Z</time></trkpt><trkpt lat="45.225786" lon="9.0468469"><ele>64.0</ele><time>2026-03-22T09:23:41.648Z</time></trkpt><trkpt lat="45.2257185" lon="9.046875"><ele>64.16666666666666</ele><time>2026-03-22T09:23:43.578Z</time></trkpt><trkpt lat="45.225629" lon="9.0468978"><ele>64.33333333333333</ele><time>2026-03-22T09:23:46.568Z</time></trkpt><trkpt lat="45.225539" lon="9.0469079"><ele>64.5</ele><time>2026-03-22T09:23:49.574Z</time></trkpt><trkpt lat="45.2254725" lon="9.0469189"><ele>64.66666666666667</ele><time>2026-03-22T09:23:51.59Z</time></trkpt><trkpt lat="45.2253898" lon="9.0468873"><ele>64.83333333333334</ele><time>2026-03-22T09:23:54.577Z</time></trkpt><trkpt lat="45.2253302" lon="9.046824"><ele>65.0</ele><time>2026-03-22T09:23:57.573Z</time></trkpt><trkpt lat="45.2252759" lon="9.046751"><ele>65.0</ele><time>2026-03-22T09:24:00.573Z</time></trkpt><trkpt lat="45.2251964" lon="9.0467042"><ele>65.0</ele><time>2026-03-22T09:24:03.57Z</time></trkpt><trkpt lat="45.2251484" lon="9.046608"><ele>65.0</ele><time>2026-03-22T09:24:06.574Z</time></trkpt><trkpt lat="45.2251764" lon="9.0464821"><ele>65.0</ele><time>2026-03-22T09:24:09.572Z</time></trkpt><trkpt lat="45.2252333" lon="9.046379"><ele>65.0</ele><time>2026-03-22T09:24:12.58Z</time></trkpt><trkpt lat="45.2252675" lon="9.0462895"><ele>65.0</ele><time>2026-03-22T09:24:14.577Z</time></trkpt><trkpt lat="45.2252985" lon="9.0461667"><ele>65.14285714285715</ele><time>2026-03-22T09:24:17.575Z</time></trkpt><trkpt lat="45.2253216" lon="9.0460776"><ele>65.28571428571429</ele><time>2026-03-22T09:24:19.569Z</time></trkpt><trkpt lat="45.2253692" lon="9.0459553"><ele>65.42857142857143</ele><time>2026-03-22T09:24:22.578Z</time></trkpt><trkpt lat="45.2254018" lon="9.0458644"><ele>65.57142857142858</ele><time>2026-03-22T09:24:24.577Z</time></trkpt><trkpt lat="45.225434" lon="9.0457803"><ele>65.71428571428572</ele><time>2026-03-22T09:24:26.568Z</time></trkpt><trkpt lat="45.22547" lon="9.0456898"><ele>65.85714285714286</ele><time>2026-03-22T09:24:28.574Z</time></trkpt><trkpt lat="45.2255066" lon="9.0456119"><ele>66.0</ele><time>2026-03-22T09:24:30.583Z</time></trkpt><trkpt lat="45.2255444" lon="9.0455345"><ele>66.0</ele><time>2026-03-22T09:24:32.573Z</time></trkpt><trkpt lat="45.2255775" lon="9.0454448"><ele>66.0</ele><time>2026-03-22T09:24:34.572Z</time></trkpt><trkpt lat="45.2256043" lon="9.0453559"><ele>66.0</ele><time>2026-03-22T09:24:36.575Z</time></trkpt><trkpt lat="45.2256239" lon="9.0452555"><ele>66.0</ele><time>2026-03-22T09:24:38.575Z</time></trkpt><trkpt lat="45.2256345" lon="9.0451498"><ele>66.0</ele><time>2026-03-22T09:24:40.581Z</time></trkpt><trkpt lat="45.2256267" lon="9.0450597"><ele>66.0</ele><time>2026-03-22T09:24:42.573Z</time></trkpt><trkpt lat="45.2256069" lon="9.0449543"><ele>66.0</ele><time>2026-03-22T09:24:44.574Z</time></trkpt><trkpt lat="45.2255876" lon="9.0448461"><ele>65.71428571428571</ele><time>2026-03-22T09:24:46.577Z</time></trkpt><trkpt lat="45.2255731" lon="9.0447354"><ele>65.42857142857143</ele><time>2026-03-22T09:24:48.577Z</time></trkpt><trkpt lat="45.2255496" lon="9.0446325"><ele>65.14285714285714</ele><time>2026-03-22T09:24:50.569Z</time></trkpt><trkpt lat="45.2255272" lon="9.0445432"><ele>64.85714285714286</ele><time>2026-03-22T09:24:52.575Z</time></trkpt><trkpt lat="45.2254846" lon="9.0444621"><ele>64.57142857142857</ele><time>2026-03-22T09:24:54.572Z</time></trkpt><trkpt lat="45.2254347" lon="9.0443894"><ele>64.28571428571428</ele><time>2026-03-22T09:24:56.573Z</time></trkpt><trkpt lat="45.2253807" lon="9.0443187"><ele>64.0</ele><time>2026-03-22T09:24:58.576Z</time></trkpt><trkpt lat="45.2253303" lon="9.0442339"><ele>63.99999999999999</ele><time>2026-03-22T09:25:00.569Z</time></trkpt><trkpt lat="45.2252781" lon="9.0441737"><ele>64.0</ele><time>2026-03-22T09:25:02.575Z</time></trkpt><trkpt lat="45.2252066" lon="9.0441224"><ele>64.0</ele><time>2026-03-22T09:25:05.575Z</time></trkpt><trkpt lat="45.2251351" lon="9.0440989"><ele>64.0</ele><time>2026-03-22T09:25:09.573Z</time></trkpt><trkpt lat="45.2250616" lon="9.0441552"><ele>63.99999999999999</ele><time>2026-03-22T09:25:31.594Z</time></trkpt><trkpt lat="45.2250249" lon="9.0442353"><ele>64.0</ele><time>2026-03-22T09:25:38.596Z</time></trkpt><trkpt lat="45.2249341" lon="9.0442702"><ele>63.99999999999999</ele><time>2026-03-22T09:25:43.592Z</time></trkpt><trkpt lat="45.22485" lon="9.0442417"><ele>64.0</ele><time>2026-03-22T09:25:46.595Z</time></trkpt><trkpt lat="45.2247689" lon="9.0442407"><ele>64.0</ele><time>2026-03-22T09:25:50.595Z</time></trkpt><trkpt lat="45.2246889" lon="9.044206"><ele>64.0</ele><time>2026-03-22T09:25:53.739Z</time></trkpt><trkpt lat="45.2246387" lon="9.0441303"><ele>63.99999999999999</ele><time>2026-03-22T09:25:56.57Z</time></trkpt><trkpt lat="45.224587" lon="9.044041"><ele>64.0</ele><time>2026-03-22T09:25:59.574Z</time></trkpt><trkpt lat="45.2245471" lon="9.0439655"><ele>64.28571428571428</ele><time>2026-03-22T09:26:02.57Z</time></trkpt><trkpt lat="45.2245418" lon="9.0438615"><ele>64.57142857142857</ele><time>2026-03-22T09:26:05.566Z</time></trkpt><trkpt lat="45.2244838" lon="9.0437958"><ele>64.85714285714286</ele><time>2026-03-22T09:26:08.57Z</time></trkpt><trkpt lat="45.2244436" lon="9.0437198"><ele>65.14285714285714</ele><time>2026-03-22T09:26:11.576Z</time></trkpt><trkpt lat="45.224387" lon="9.0436588"><ele>65.42857142857143</ele><time>2026-03-22T09:26:17.576Z</time></trkpt><trkpt lat="45.2243015" lon="9.043664"><ele>65.71428571428571</ele><time>2026-03-22T09:26:21.651Z</time></trkpt><trkpt lat="45.2243113" lon="9.0435595"><ele>66.0</ele><time>2026-03-22T09:26:25.579Z</time></trkpt><trkpt lat="45.2243132" lon="9.0434667"><ele>66.0</ele><time>2026-03-22T09:26:28.573Z</time></trkpt><trkpt lat="45.2242813" lon="9.0433678"><ele>66.0</ele><time>2026-03-22T09:26:31.646Z</time></trkpt><trkpt lat="45.2242539" lon="9.0432768"><ele>66.0</ele><time>2026-03-22T09:26:39.585Z</time></trkpt><trkpt lat="45.224239" lon="9.0431723"><ele>66.0</ele><time>2026-03-22T09:26:44.584Z</time></trkpt><trkpt lat="45.224183" lon="9.0431201"><ele>66.0</ele><time>2026-03-22T09:26:49.586Z</time></trkpt><trkpt lat="45.2241258" lon="9.0430435"><ele>66.0</ele><time>2026-03-22T09:27:04.573Z</time></trkpt><trkpt lat="45.224093" lon="9.0429301"><ele>66.5</ele><time>2026-03-22T09:27:16.586Z</time></trkpt><trkpt lat="45.2240805" lon="9.042832"><ele>67.0</ele><time>2026-03-22T09:27:20.592Z</time></trkpt><trkpt lat="45.2240302" lon="9.0427456"><ele>67.5</ele><time>2026-03-22T09:27:23.574Z</time></trkpt><trkpt lat="45.2239905" lon="9.0426506"><ele>68.0</ele><time>2026-03-22T09:27:26.58Z</time></trkpt><trkpt lat="45.2239806" lon="9.0425577"><ele>68.5</ele><time>2026-03-22T09:27:28.577Z</time></trkpt><trkpt lat="45.2239689" lon="9.0424251"><ele>69.0</ele><time>2026-03-22T09:27:31.576Z</time></trkpt><trkpt lat="45.2239621" lon="9.0423125"><ele>68.0</ele><time>2026-03-22T09:27:33.578Z</time></trkpt><trkpt lat="45.2239549" lon="9.042196"><ele>67.0</ele><time>2026-03-22T09:27:36.574Z</time></trkpt><trkpt lat="45.2239566" lon="9.0420863"><ele>66.0</ele><time>2026-03-22T09:27:39.656Z</time></trkpt><trkpt lat="45.2239609" lon="9.0419501"><ele>65.0</ele><time>2026-03-22T09:27:42.569Z</time></trkpt><trkpt lat="45.2239629" lon="9.0418166"><ele>64.0</ele><time>2026-03-22T09:27:45.566Z</time></trkpt><trkpt lat="45.2239429" lon="9.04172"><ele>63.0</ele><time>2026-03-22T09:27:47.574Z</time></trkpt><trkpt lat="45.2239159" lon="9.0416221"><ele>63.0</ele><time>2026-03-22T09:27:49.58Z</time></trkpt><trkpt lat="45.2238785" lon="9.0415327"><ele>63.0</ele><time>2026-03-22T09:27:51.568Z</time></trkpt><trkpt lat="45.2238485" lon="9.0414409"><ele>63.0</ele><time>2026-03-22T09:27:53.567Z</time></trkpt><trkpt lat="45.2238179" lon="9.0413144"><ele>63.0</ele><time>2026-03-22T09:27:56.565Z</time></trkpt><trkpt lat="45.2238218" lon="9.0412191"><ele>63.0</ele><time>2026-03-22T09:27:59.568Z</time></trkpt><trkpt lat="45.2238692" lon="9.0411432"><ele>63.0</ele><time>2026-03-22T09:28:02.571Z</time></trkpt><trkpt lat="45.2239189" lon="9.0410824"><ele>63.0</ele><time>2026-03-22T09:28:04.576Z</time></trkpt><trkpt lat="45.2239595" lon="9.0410058"><ele>63.5</ele><time>2026-03-22T09:28:06.571Z</time></trkpt><trkpt lat="45.2239863" lon="9.0409015"><ele>64.0</ele><time>2026-03-22T09:28:09.576Z</time></trkpt><trkpt lat="45.2240344" lon="9.0408289"><ele>64.5</ele><time>2026-03-22T09:28:11.58Z</time></trkpt><trkpt lat="45.2240898" lon="9.0407265"><ele>65.0</ele><time>2026-03-22T09:28:14.575Z</time></trkpt><trkpt lat="45.2241717" lon="9.0406664"><ele>65.5</ele><time>2026-03-22T09:28:17.646Z</time></trkpt><trkpt lat="45.2242451" lon="9.0405842"><ele>66.0</ele><time>2026-03-22T09:28:20.572Z</time></trkpt><trkpt lat="45.2243034" lon="9.040508"><ele>66.0</ele><time>2026-03-22T09:28:23.566Z</time></trkpt><trkpt lat="45.2243242" lon="9.0404108"><ele>66.0</ele><time>2026-03-22T09:28:26.572Z</time></trkpt><trkpt lat="45.2243706" lon="9.0403071"><ele>66.0</ele><time>2026-03-22T09:28:29.572Z</time></trkpt><trkpt lat="45.2244053" lon="9.0402276"><ele>66.0</ele><time>2026-03-22T09:28:31.564Z</time></trkpt><trkpt lat="45.2244633" lon="9.0401365"><ele>66.0</ele><time>2026-03-22T09:28:34.572Z</time></trkpt><trkpt lat="45.2245193" lon="9.0400744"><ele>66.0</ele><time>2026-03-22T09:28:36.574Z</time></trkpt><trkpt lat="45.2245814" lon="9.0400184"><ele>66.0</ele><time>2026-03-22T09:28:39.575Z</time></trkpt><trkpt lat="45.2246455" lon="9.0399354"><ele>66.0</ele><time>2026-03-22T09:28:42.572Z</time></trkpt><trkpt lat="45.2247031" lon="9.0398244"><ele>66.0</ele><time>2026-03-22T09:28:45.577Z</time></trkpt><trkpt lat="45.2247465" lon="9.0397592"><ele>66.0</ele><time>2026-03-22T09:28:47.578Z</time></trkpt><trkpt lat="45.2248164" lon="9.0396759"><ele>66.0</ele><time>2026-03-22T09:28:50.572Z</time></trkpt><trkpt lat="45.224871" lon="9.0395838"><ele>66.0</ele><time>2026-03-22T09:28:53.581Z</time></trkpt><trkpt lat="45.2249321" lon="9.039524"><ele>66.0</ele><time>2026-03-22T09:28:55.653Z</time></trkpt><trkpt lat="45.224991" lon="9.039475"><ele>66.0</ele><time>2026-03-22T09:28:57.58Z</time></trkpt><trkpt lat="45.2250525" lon="9.0394263"><ele>66.0</ele><time>2026-03-22T09:28:59.565Z</time></trkpt><trkpt lat="45.2251124" lon="9.0393819"><ele>66.0</ele><time>2026-03-22T09:29:02.573Z</time></trkpt><trkpt lat="45.225178" lon="9.0393383"><ele>66.0</ele><time>2026-03-22T09:29:05.568Z</time></trkpt><trkpt lat="45.2252182" lon="9.0392616"><ele>66.0</ele><time>2026-03-22T09:29:08.578Z</time></trkpt><trkpt lat="45.2252366" lon="9.0391424"><ele>66.0</ele><time>2026-03-22T09:29:12.574Z</time></trkpt><trkpt lat="45.225274" lon="9.0390138"><ele>65.83333333333333</ele><time>2026-03-22T09:29:15.575Z</time></trkpt><trkpt lat="45.2252979" lon="9.0389187"><ele>65.66666666666667</ele><time>2026-03-22T09:29:17.577Z</time></trkpt><trkpt lat="45.2253325" lon="9.0388229"><ele>65.5</ele><time>2026-03-22T09:29:19.569Z</time></trkpt><trkpt lat="45.2253766" lon="9.0387247"><ele>65.33333333333334</ele><time>2026-03-22T09:29:21.57Z</time></trkpt><trkpt lat="45.2254271" lon="9.0386363"><ele>65.16666666666667</ele><time>2026-03-22T09:29:23.576Z</time></trkpt><trkpt lat="45.2254819" lon="9.0385555"><ele>65.0</ele><time>2026-03-22T09:29:25.578Z</time></trkpt><trkpt lat="45.2255255" lon="9.0384694"><ele>65.0</ele><time>2026-03-22T09:29:27.574Z</time></trkpt><trkpt lat="45.2255645" lon="9.03837"><ele>65.0</ele><time>2026-03-22T09:29:29.571Z</time></trkpt><trkpt lat="45.225615" lon="9.0382893"><ele>65.0</ele><time>2026-03-22T09:29:31.567Z</time></trkpt><trkpt lat="45.2256398" lon="9.0381881"><ele>65.0</ele><time>2026-03-22T09:29:33.569Z</time></trkpt><trkpt lat="45.2256661" lon="9.0381031"><ele>65.0</ele><time>2026-03-22T09:29:35.651Z</time></trkpt><trkpt lat="45.2257219" lon="9.038024"><ele>65.0</ele><time>2026-03-22T09:29:38.575Z</time></trkpt><trkpt lat="45.2257905" lon="9.0379169"><ele>64.83333333333334</ele><time>2026-03-22T09:29:41.574Z</time></trkpt><trkpt lat="45.2258375" lon="9.0378182"><ele>64.66666666666667</ele><time>2026-03-22T09:29:43.566Z</time></trkpt><trkpt lat="45.2258873" lon="9.0377338"><ele>64.5</ele><time>2026-03-22T09:29:45.569Z</time></trkpt><trkpt lat="45.2259485" lon="9.0376516"><ele>64.33333333333333</ele><time>2026-03-22T09:29:47.579Z</time></trkpt><trkpt lat="45.226003" lon="9.0375442"><ele>64.16666666666666</ele><time>2026-03-22T09:29:50.574Z</time></trkpt><trkpt lat="45.2260432" lon="9.0374525"><ele>64.0</ele><time>2026-03-22T09:29:52.649Z</time></trkpt><trkpt lat="45.2260874" lon="9.0373485"><ele>63.99999999999999</ele><time>2026-03-22T09:29:54.578Z</time></trkpt><trkpt lat="45.2261544" lon="9.0372368"><ele>64.0</ele><time>2026-03-22T09:29:57.578Z</time></trkpt><trkpt lat="45.226208" lon="9.0371768"><ele>64.0</ele><time>2026-03-22T09:29:59.573Z</time></trkpt><trkpt lat="45.2262875" lon="9.0371555"><ele>64.0</ele><time>2026-03-22T09:30:02.566Z</time></trkpt><trkpt lat="45.2263645" lon="9.0371643"><ele>63.99999999999999</ele><time>2026-03-22T09:30:05.571Z</time></trkpt><trkpt lat="45.2264449" lon="9.0371748"><ele>64.0</ele><time>2026-03-22T09:30:09.542Z</time></trkpt><trkpt lat="45.2264758" lon="9.0370917"><ele>63.83333333333333</ele><time>2026-03-22T09:30:12.574Z</time></trkpt><trkpt lat="45.2265292" lon="9.037013"><ele>63.666666666666664</ele><time>2026-03-22T09:30:15.387Z</time></trkpt><trkpt lat="45.2265674" lon="9.0369416"><ele>63.5</ele><time>2026-03-22T09:30:17.258Z</time></trkpt><trkpt lat="45.2266317" lon="9.0368347"><ele>63.33333333333333</ele><time>2026-03-22T09:30:20.572Z</time></trkpt><trkpt lat="45.2266951" lon="9.0368012"><ele>63.166666666666664</ele><time>2026-03-22T09:30:23.563Z</time></trkpt><trkpt lat="45.2267281" lon="9.0368865"><ele>63.0</ele><time>2026-03-22T09:30:26.567Z</time></trkpt><trkpt lat="45.2267664" lon="9.0369853"><ele>63.0</ele><time>2026-03-22T09:30:29.577Z</time></trkpt><trkpt lat="45.2268005" lon="9.0370693"><ele>63.0</ele><time>2026-03-22T09:30:31.638Z</time></trkpt><trkpt lat="45.2268251" lon="9.0371594"><ele>63.0</ele><time>2026-03-22T09:30:33.482Z</time></trkpt><trkpt lat="45.2268531" lon="9.037253"><ele>63.0</ele><time>2026-03-22T09:30:35.574Z</time></trkpt><trkpt lat="45.2268842" lon="9.0373321"><ele>63.0</ele><time>2026-03-22T09:30:37.486Z</time></trkpt><trkpt lat="45.2269215" lon="9.0374377"><ele>63.0</ele><time>2026-03-22T09:30:39.567Z</time></trkpt><trkpt lat="45.2269627" lon="9.0375191"><ele>63.0</ele><time>2026-03-22T09:30:41.574Z</time></trkpt><trkpt lat="45.2270044" lon="9.0376313"><ele>63.5</ele><time>2026-03-22T09:30:44.57Z</time></trkpt><trkpt lat="45.2270454" lon="9.0377597"><ele>64.0</ele><time>2026-03-22T09:30:47.576Z</time></trkpt><trkpt lat="45.2270738" lon="9.0378573"><ele>64.5</ele><time>2026-03-22T09:30:49.499Z</time></trkpt><trkpt lat="45.2271229" lon="9.03795"><ele>65.0</ele><time>2026-03-22T09:30:51.571Z</time></trkpt><trkpt lat="45.2271731" lon="9.0380235"><ele>65.5</ele><time>2026-03-22T09:30:53.57Z</time></trkpt><trkpt lat="45.2272239" lon="9.0380849"><ele>66.0</ele><time>2026-03-22T09:30:55.574Z</time></trkpt><trkpt lat="45.2272688" lon="9.0381493"><ele>66.33333333333333</ele><time>2026-03-22T09:30:57.505Z</time></trkpt><trkpt lat="45.2273164" lon="9.0382533"><ele>66.66666666666667</ele><time>2026-03-22T09:30:59.574Z</time></trkpt><trkpt lat="45.2273447" lon="9.0383973"><ele>67.0</ele><time>2026-03-22T09:31:02.572Z</time></trkpt><trkpt lat="45.2273571" lon="9.0385075"><ele>67.33333333333334</ele><time>2026-03-22T09:31:04.57Z</time></trkpt><trkpt lat="45.2273529" lon="9.0386083"><ele>67.66666666666667</ele><time>2026-03-22T09:31:06.573Z</time></trkpt><trkpt lat="45.2273389" lon="9.0387003"><ele>68.0</ele><time>2026-03-22T09:31:08.581Z</time></trkpt><trkpt lat="45.2273584" lon="9.0388136"><ele>68.16666666666667</ele><time>2026-03-22T09:31:11.576Z</time></trkpt><trkpt lat="45.2274266" lon="9.038842"><ele>68.33333333333334</ele><time>2026-03-22T09:31:14.506Z</time></trkpt><trkpt lat="45.2274915" lon="9.0388575"><ele>68.5</ele><time>2026-03-22T09:31:16.576Z</time></trkpt><trkpt lat="45.2275861" lon="9.0388715"><ele>68.66666666666667</ele><time>2026-03-22T09:31:19.569Z</time></trkpt><trkpt lat="45.2276635" lon="9.0388971"><ele>68.83333333333333</ele><time>2026-03-22T09:31:21.574Z</time></trkpt><trkpt lat="45.2277576" lon="9.038942"><ele>69.0</ele><time>2026-03-22T09:31:24.574Z</time></trkpt><trkpt lat="45.2278484" lon="9.0389644"><ele>69.0</ele><time>2026-03-22T09:31:27.572Z</time></trkpt><trkpt lat="45.2279133" lon="9.0389698"><ele>69.0</ele><time>2026-03-22T09:31:29.574Z</time></trkpt><trkpt lat="45.2279801" lon="9.038975"><ele>69.0</ele><time>2026-03-22T09:31:31.569Z</time></trkpt><trkpt lat="45.2280529" lon="9.0389997"><ele>69.0</ele><time>2026-03-22T09:31:33.584Z</time></trkpt><trkpt lat="45.2281275" lon="9.0390202"><ele>69.0</ele><time>2026-03-22T09:31:35.573Z</time></trkpt><trkpt lat="45.2282066" lon="9.0390519"><ele>69.0</ele><time>2026-03-22T09:31:37.643Z</time></trkpt><trkpt lat="45.2282803" lon="9.0390653"><ele>69.0</ele><time>2026-03-22T09:31:39.579Z</time></trkpt><trkpt lat="45.2283449" lon="9.0390844"><ele>69.16666666666667</ele><time>2026-03-22T09:31:41.582Z</time></trkpt><trkpt lat="45.2284121" lon="9.0391161"><ele>69.33333333333333</ele><time>2026-03-22T09:31:43.578Z</time></trkpt><trkpt lat="45.2285072" lon="9.0391445"><ele>69.5</ele><time>2026-03-22T09:31:46.642Z</time></trkpt><trkpt lat="45.2285789" lon="9.0391699"><ele>69.66666666666666</ele><time>2026-03-22T09:31:48.582Z</time></trkpt><trkpt lat="45.2286501" lon="9.0391947"><ele>69.83333333333333</ele><time>2026-03-22T09:31:50.647Z</time></trkpt><trkpt lat="45.2287244" lon="9.0392179"><ele>70.0</ele><time>2026-03-22T09:31:52.565Z</time></trkpt><trkpt lat="45.2287914" lon="9.0392266"><ele>69.83333333333333</ele><time>2026-03-22T09:31:54.572Z</time></trkpt><trkpt lat="45.2288623" lon="9.0392363"><ele>69.66666666666666</ele><time>2026-03-22T09:31:56.57Z</time></trkpt><trkpt lat="45.2289303" lon="9.0392548"><ele>69.5</ele><time>2026-03-22T09:31:58.574Z</time></trkpt><trkpt lat="45.2289991" lon="9.0392859"><ele>69.33333333333333</ele><time>2026-03-22T09:32:00.569Z</time></trkpt><trkpt lat="45.2290669" lon="9.0393631"><ele>69.16666666666667</ele><time>2026-03-22T09:32:02.573Z</time></trkpt><trkpt lat="45.2291161" lon="9.039458"><ele>69.0</ele><time>2026-03-22T09:32:04.572Z</time></trkpt><trkpt lat="45.2291558" lon="9.0395604"><ele>69.0</ele><time>2026-03-22T09:32:06.569Z</time></trkpt><trkpt lat="45.2291588" lon="9.0396775"><ele>69.0</ele><time>2026-03-22T09:32:09.574Z</time></trkpt><trkpt lat="45.2291406" lon="9.0397686"><ele>69.0</ele><time>2026-03-22T09:32:11.575Z</time></trkpt><trkpt lat="45.2291215" lon="9.0398994"><ele>69.0</ele><time>2026-03-22T09:32:14.577Z</time></trkpt><trkpt lat="45.2291093" lon="9.0399885"><ele>69.0</ele><time>2026-03-22T09:32:16.581Z</time></trkpt><trkpt lat="45.229144" lon="9.0400913"><ele>69.0</ele><time>2026-03-22T09:32:19.572Z</time></trkpt><trkpt lat="45.2292379" lon="9.0401053"><ele>68.42857142857143</ele><time>2026-03-22T09:32:22.592Z</time></trkpt><trkpt lat="45.2293199" lon="9.0401634"><ele>67.85714285714286</ele><time>2026-03-22T09:32:25.583Z</time></trkpt><trkpt lat="45.2293672" lon="9.0402225"><ele>67.28571428571429</ele><time>2026-03-22T09:32:27.647Z</time></trkpt><trkpt lat="45.2294339" lon="9.0402505"><ele>66.71428571428572</ele><time>2026-03-22T09:32:29.576Z</time></trkpt><trkpt lat="45.2295036" lon="9.0402855"><ele>66.14285714285714</ele><time>2026-03-22T09:32:31.574Z</time></trkpt><trkpt lat="45.2295683" lon="9.0403187"><ele>65.57142857142858</ele><time>2026-03-22T09:32:33.569Z</time></trkpt><trkpt lat="45.2296388" lon="9.0403478"><ele>65.0</ele><time>2026-03-22T09:32:35.564Z</time></trkpt><trkpt lat="45.2297089" lon="9.0403919"><ele>65.00000000000001</ele><time>2026-03-22T09:32:37.574Z</time></trkpt><trkpt lat="45.2297658" lon="9.0404374"><ele>65.0</ele><time>2026-03-22T09:32:39.573Z</time></trkpt><trkpt lat="45.2298309" lon="9.0405115"><ele>65.0</ele><time>2026-03-22T09:32:41.586Z</time></trkpt><trkpt lat="45.2298846" lon="9.040568"><ele>65.0</ele><time>2026-03-22T09:32:43.58Z</time></trkpt><trkpt lat="45.229949" lon="9.040606"><ele>65.0</ele><time>2026-03-22T09:32:45.582Z</time></trkpt><trkpt lat="45.2300153" lon="9.040639"><ele>65.00000000000001</ele><time>2026-03-22T09:32:47.566Z</time></trkpt><trkpt lat="45.2300726" lon="9.0406779"><ele>65.0</ele><time>2026-03-22T09:32:49.565Z</time></trkpt><trkpt lat="45.2301575" lon="9.0407149"><ele>64.85714285714286</ele><time>2026-03-22T09:32:52.568Z</time></trkpt><trkpt lat="45.2302321" lon="9.0407212"><ele>64.71428571428572</ele><time>2026-03-22T09:32:54.57Z</time></trkpt><trkpt lat="45.2303" lon="9.0407411"><ele>64.57142857142857</ele><time>2026-03-22T09:32:56.644Z</time></trkpt><trkpt lat="45.230364" lon="9.0407573"><ele>64.42857142857143</ele><time>2026-03-22T09:32:58.576Z</time></trkpt><trkpt lat="45.2304295" lon="9.0407856"><ele>64.28571428571428</ele><time>2026-03-22T09:33:00.574Z</time></trkpt><trkpt lat="45.2305018" lon="9.0408142"><ele>64.14285714285714</ele><time>2026-03-22T09:33:02.57Z</time></trkpt><trkpt lat="45.2305638" lon="9.0408341"><ele>64.0</ele><time>2026-03-22T09:33:04.573Z</time></trkpt><trkpt lat="45.230646" lon="9.0408587"><ele>63.83333333333333</ele><time>2026-03-22T09:33:07.571Z</time></trkpt><trkpt lat="45.2307099" lon="9.0408762"><ele>63.666666666666664</ele><time>2026-03-22T09:33:09.641Z</time></trkpt><trkpt lat="45.2307983" lon="9.0408979"><ele>63.5</ele><time>2026-03-22T09:33:12.569Z</time></trkpt><trkpt lat="45.2308729" lon="9.0408534"><ele>63.33333333333333</ele><time>2026-03-22T09:33:15.57Z</time></trkpt><trkpt lat="45.2308875" lon="9.0407506"><ele>63.166666666666664</ele><time>2026-03-22T09:33:19.572Z</time></trkpt><trkpt lat="45.2308924" lon="9.0406609"><ele>63.0</ele><time>2026-03-22T09:33:21.584Z</time></trkpt><trkpt lat="45.2309135" lon="9.0405561"><ele>63.0</ele><time>2026-03-22T09:33:23.578Z</time></trkpt><trkpt lat="45.2309358" lon="9.0404598"><ele>63.0</ele><time>2026-03-22T09:33:25.566Z</time></trkpt><trkpt lat="45.2309638" lon="9.0403621"><ele>63.0</ele><time>2026-03-22T09:33:27.578Z</time></trkpt><trkpt lat="45.230997" lon="9.040255"><ele>63.0</ele><time>2026-03-22T09:33:29.591Z</time></trkpt><trkpt lat="45.2310448" lon="9.0401521"><ele>63.0</ele><time>2026-03-22T09:33:31.575Z</time></trkpt><trkpt lat="45.2310931" lon="9.0400859"><ele>63.0</ele><time>2026-03-22T09:33:33.578Z</time></trkpt><trkpt lat="45.2311262" lon="9.0400036"><ele>63.0</ele><time>2026-03-22T09:33:35.564Z</time></trkpt><trkpt lat="45.2311421" lon="9.0399103"><ele>63.0</ele><time>2026-03-22T09:33:37.569Z</time></trkpt><trkpt lat="45.2311669" lon="9.0398198"><ele>63.0</ele><time>2026-03-22T09:33:39.571Z</time></trkpt><trkpt lat="45.2312007" lon="9.0397324"><ele>63.0</ele><time>2026-03-22T09:33:41.576Z</time></trkpt><trkpt lat="45.2312397" lon="9.0396563"><ele>63.0</ele><time>2026-03-22T09:33:43.579Z</time></trkpt><trkpt lat="45.2313016" lon="9.0395578"><ele>63.0</ele><time>2026-03-22T09:33:46.571Z</time></trkpt><trkpt lat="45.2313686" lon="9.0395429"><ele>63.0</ele><time>2026-03-22T09:33:48.575Z</time></trkpt><trkpt lat="45.2314334" lon="9.0395558"><ele>63.0</ele><time>2026-03-22T09:33:50.572Z</time></trkpt><trkpt lat="45.2314997" lon="9.03957"><ele>62.85714285714286</ele><time>2026-03-22T09:33:52.571Z</time></trkpt><trkpt lat="45.2315665" lon="9.0395768"><ele>62.714285714285715</ele><time>2026-03-22T09:33:54.57Z</time></trkpt><trkpt lat="45.2316394" lon="9.0395905"><ele>62.57142857142857</ele><time>2026-03-22T09:33:56.569Z</time></trkpt><trkpt lat="45.2317191" lon="9.0396325"><ele>62.42857142857143</ele><time>2026-03-22T09:33:59.585Z</time></trkpt><trkpt lat="45.2317855" lon="9.0396657"><ele>62.28571428571429</ele><time>2026-03-22T09:34:01.584Z</time></trkpt><trkpt lat="45.2318644" lon="9.0396781"><ele>62.142857142857146</ele><time>2026-03-22T09:34:03.576Z</time></trkpt><trkpt lat="45.2319338" lon="9.0396562"><ele>62.0</ele><time>2026-03-22T09:34:05.575Z</time></trkpt><trkpt lat="45.2320031" lon="9.0396325"><ele>62.00000000000001</ele><time>2026-03-22T09:34:07.581Z</time></trkpt><trkpt lat="45.232063" lon="9.0395864"><ele>62.0</ele><time>2026-03-22T09:34:09.58Z</time></trkpt><trkpt lat="45.2321366" lon="9.0394905"><ele>62.0</ele><time>2026-03-22T09:34:12.568Z</time></trkpt><trkpt lat="45.2321891" lon="9.0394014"><ele>62.0</ele><time>2026-03-22T09:34:14.566Z</time></trkpt><trkpt lat="45.2322276" lon="9.0393032"><ele>62.00000000000001</ele><time>2026-03-22T09:34:16.652Z</time></trkpt><trkpt lat="45.2322442" lon="9.0392118"><ele>62.0</ele><time>2026-03-22T09:34:18.568Z</time></trkpt><trkpt lat="45.2322592" lon="9.0391053"><ele>61.833333333333336</ele><time>2026-03-22T09:34:21.58Z</time></trkpt><trkpt lat="45.2322757" lon="9.0390109"><ele>61.66666666666667</ele><time>2026-03-22T09:34:23.577Z</time></trkpt><trkpt lat="45.2322872" lon="9.0389082"><ele>61.5</ele><time>2026-03-22T09:34:25.574Z</time></trkpt><trkpt lat="45.232305" lon="9.0387772"><ele>61.33333333333333</ele><time>2026-03-22T09:34:28.569Z</time></trkpt><trkpt lat="45.2323319" lon="9.038639"><ele>61.166666666666664</ele><time>2026-03-22T09:34:31.582Z</time></trkpt><trkpt lat="45.2323608" lon="9.0385348"><ele>61.0</ele><time>2026-03-22T09:34:33.579Z</time></trkpt><trkpt lat="45.2323731" lon="9.0384416"><ele>61.166666666666664</ele><time>2026-03-22T09:34:35.573Z</time></trkpt><trkpt lat="45.2323786" lon="9.0383371"><ele>61.33333333333333</ele><time>2026-03-22T09:34:37.567Z</time></trkpt><trkpt lat="45.2323787" lon="9.0382334"><ele>61.5</ele><time>2026-03-22T09:34:39.569Z</time></trkpt><trkpt lat="45.2323497" lon="9.0381393"><ele>61.66666666666667</ele><time>2026-03-22T09:34:41.578Z</time></trkpt><trkpt lat="45.2322895" lon="9.0380266"><ele>61.833333333333336</ele><time>2026-03-22T09:34:44.584Z</time></trkpt><trkpt lat="45.232231" lon="9.0379561"><ele>62.0</ele><time>2026-03-22T09:34:46.573Z</time></trkpt><trkpt lat="45.2321605" lon="9.0378735"><ele>62.0</ele><time>2026-03-22T09:34:49.569Z</time></trkpt><trkpt lat="45.2321353" lon="9.0377589"><ele>62.00000000000001</ele><time>2026-03-22T09:34:52.574Z</time></trkpt><trkpt lat="45.2321419" lon="9.0376556"><ele>62.0</ele><time>2026-03-22T09:34:54.572Z</time></trkpt><trkpt lat="45.2321379" lon="9.0375639"><ele>62.0</ele><time>2026-03-22T09:34:56.579Z</time></trkpt><trkpt lat="45.2321348" lon="9.037458"><ele>62.00000000000001</ele><time>2026-03-22T09:34:58.58Z</time></trkpt><trkpt lat="45.2321373" lon="9.0373546"><ele>62.0</ele><time>2026-03-22T09:35:00.577Z</time></trkpt><trkpt lat="45.232147" lon="9.0372536"><ele>62.0</ele><time>2026-03-22T09:35:02.575Z</time></trkpt><trkpt lat="45.2321661" lon="9.0371583"><ele>62.333333333333336</ele><time>2026-03-22T09:35:04.572Z</time></trkpt><trkpt lat="45.2321923" lon="9.0370544"><ele>62.66666666666667</ele><time>2026-03-22T09:35:07.575Z</time></trkpt><trkpt lat="45.23223" lon="9.0369536"><ele>63.0</ele><time>2026-03-22T09:35:10.563Z</time></trkpt><trkpt lat="45.2322545" lon="9.0368697"><ele>63.33333333333333</ele><time>2026-03-22T09:35:12.572Z</time></trkpt><trkpt lat="45.2322902" lon="9.0367932"><ele>63.666666666666664</ele><time>2026-03-22T09:35:14.575Z</time></trkpt><trkpt lat="45.2323326" lon="9.0366757"><ele>64.0</ele><time>2026-03-22T09:35:17.575Z</time></trkpt><trkpt lat="45.232378" lon="9.0365514"><ele>64.0</ele><time>2026-03-22T09:35:20.577Z</time></trkpt><trkpt lat="45.2324145" lon="9.0364737"><ele>63.99999999999999</ele><time>2026-03-22T09:35:22.578Z</time></trkpt><trkpt lat="45.2324525" lon="9.0363946"><ele>64.0</ele><time>2026-03-22T09:35:24.566Z</time></trkpt><trkpt lat="45.2324934" lon="9.036311"><ele>64.0</ele><time>2026-03-22T09:35:26.573Z</time></trkpt><trkpt lat="45.2325432" lon="9.0362315"><ele>63.99999999999999</ele><time>2026-03-22T09:35:28.58Z</time></trkpt><trkpt lat="45.2325899" lon="9.0361414"><ele>64.0</ele><time>2026-03-22T09:35:30.578Z</time></trkpt><trkpt lat="45.2326335" lon="9.0360616"><ele>64.0</ele><time>2026-03-22T09:35:32.573Z</time></trkpt><trkpt lat="45.2326704" lon="9.0359707"><ele>63.99999999999999</ele><time>2026-03-22T09:35:34.638Z</time></trkpt><trkpt lat="45.2326974" lon="9.0358826"><ele>64.0</ele><time>2026-03-22T09:35:36.58Z</time></trkpt><trkpt lat="45.2327287" lon="9.0357965"><ele>64.0</ele><time>2026-03-22T09:35:38.562Z</time></trkpt><trkpt lat="45.2327619" lon="9.0357006"><ele>64.0</ele><time>2026-03-22T09:35:40.573Z</time></trkpt><trkpt lat="45.2327974" lon="9.0355967"><ele>63.99999999999999</ele><time>2026-03-22T09:35:42.578Z</time></trkpt><trkpt lat="45.2328264" lon="9.0354832"><ele>64.0</ele><time>2026-03-22T09:35:44.576Z</time></trkpt><trkpt lat="45.2328364" lon="9.0353526"><ele>64.16666666666666</ele><time>2026-03-22T09:35:46.567Z</time></trkpt><trkpt lat="45.2328649" lon="9.0352666"><ele>64.33333333333333</ele><time>2026-03-22T09:35:48.569Z</time></trkpt><trkpt lat="45.2329012" lon="9.0351848"><ele>64.5</ele><time>2026-03-22T09:35:50.575Z</time></trkpt><trkpt lat="45.2329239" lon="9.0350902"><ele>64.66666666666667</ele><time>2026-03-22T09:35:52.574Z</time></trkpt><trkpt lat="45.2329364" lon="9.0349807"><ele>64.83333333333334</ele><time>2026-03-22T09:35:54.581Z</time></trkpt><trkpt lat="45.2329587" lon="9.0348867"><ele>65.0</ele><time>2026-03-22T09:35:56.574Z</time></trkpt><trkpt lat="45.2330043" lon="9.0347639"><ele>65.0</ele><time>2026-03-22T09:35:59.574Z</time></trkpt><trkpt lat="45.2330518" lon="9.0346723"><ele>65.0</ele><time>2026-03-22T09:36:01.654Z</time></trkpt><trkpt lat="45.2330965" lon="9.0345899"><ele>65.0</ele><time>2026-03-22T09:36:03.594Z</time></trkpt><trkpt lat="45.233139" lon="9.0345162"><ele>65.0</ele><time>2026-03-22T09:36:05.563Z</time></trkpt><trkpt lat="45.233187" lon="9.0344301"><ele>65.0</ele><time>2026-03-22T09:36:07.57Z</time></trkpt><trkpt lat="45.233236" lon="9.0343249"><ele>65.0</ele><time>2026-03-22T09:36:09.58Z</time></trkpt><trkpt lat="45.2332925" lon="9.034241"><ele>65.0</ele><time>2026-03-22T09:36:11.572Z</time></trkpt><trkpt lat="45.2333392" lon="9.0341794"><ele>65.0</ele><time>2026-03-22T09:36:13.572Z</time></trkpt><trkpt lat="45.2334026" lon="9.0341043"><ele>65.0</ele><time>2026-03-22T09:36:15.587Z</time></trkpt><trkpt lat="45.2334507" lon="9.0340452"><ele>65.0</ele><time>2026-03-22T09:36:17.576Z</time></trkpt><trkpt lat="45.2335225" lon="9.0339658"><ele>65.0</ele><time>2026-03-22T09:36:20.573Z</time></trkpt><trkpt lat="45.2335988" lon="9.0339017"><ele>65.0</ele><time>2026-03-22T09:36:23.572Z</time></trkpt><trkpt lat="45.2336555" lon="9.0338475"><ele>64.71428571428572</ele><time>2026-03-22T09:36:25.57Z</time></trkpt><trkpt lat="45.2337081" lon="9.0337899"><ele>64.42857142857143</ele><time>2026-03-22T09:36:27.583Z</time></trkpt><trkpt lat="45.2337654" lon="9.0337459"><ele>64.14285714285714</ele><time>2026-03-22T09:36:29.581Z</time></trkpt><trkpt lat="45.2338339" lon="9.033688"><ele>63.85714285714286</ele><time>2026-03-22T09:36:31.575Z</time></trkpt><trkpt lat="45.2338967" lon="9.0336314"><ele>63.57142857142857</ele><time>2026-03-22T09:36:33.586Z</time></trkpt><trkpt lat="45.2339468" lon="9.0335508"><ele>63.285714285714285</ele><time>2026-03-22T09:36:35.577Z</time></trkpt><trkpt lat="45.2340027" lon="9.0334778"><ele>63.0</ele><time>2026-03-22T09:36:37.574Z</time></trkpt><trkpt lat="45.2340401" lon="9.0334028"><ele>63.0</ele><time>2026-03-22T09:36:39.575Z</time></trkpt><trkpt lat="45.2340797" lon="9.0333297"><ele>63.0</ele><time>2026-03-22T09:36:41.569Z</time></trkpt><trkpt lat="45.2341297" lon="9.0332705"><ele>63.0</ele><time>2026-03-22T09:36:43.571Z</time></trkpt><trkpt lat="45.2341953" lon="9.0332236"><ele>63.0</ele><time>2026-03-22T09:36:45.578Z</time></trkpt><trkpt lat="45.2342783" lon="9.0331815"><ele>63.0</ele><time>2026-03-22T09:36:47.585Z</time></trkpt><trkpt lat="45.2343562" lon="9.0331542"><ele>63.0</ele><time>2026-03-22T09:36:49.571Z</time></trkpt><trkpt lat="45.2344231" lon="9.0331679"><ele>63.0</ele><time>2026-03-22T09:36:51.58Z</time></trkpt><trkpt lat="45.2344889" lon="9.0332047"><ele>63.0</ele><time>2026-03-22T09:36:53.583Z</time></trkpt><trkpt lat="45.2345549" lon="9.0332498"><ele>63.0</ele><time>2026-03-22T09:36:55.649Z</time></trkpt><trkpt lat="45.2346079" lon="9.0333058"><ele>63.0</ele><time>2026-03-22T09:36:57.57Z</time></trkpt><trkpt lat="45.2346675" lon="9.0333589"><ele>63.0</ele><time>2026-03-22T09:36:59.586Z</time></trkpt><trkpt lat="45.2347259" lon="9.0334174"><ele>63.0</ele><time>2026-03-22T09:37:01.579Z</time></trkpt><trkpt lat="45.2347911" lon="9.0334765"><ele>63.0</ele><time>2026-03-22T09:37:03.57Z</time></trkpt><trkpt lat="45.2348787" lon="9.0335272"><ele>63.5</ele><time>2026-03-22T09:37:05.572Z</time></trkpt><trkpt lat="45.2349521" lon="9.0335904"><ele>64.0</ele><time>2026-03-22T09:37:07.571Z</time></trkpt><trkpt lat="45.2350209" lon="9.0336462"><ele>64.5</ele><time>2026-03-22T09:37:09.581Z</time></trkpt><trkpt lat="45.2350877" lon="9.0337011"><ele>65.0</ele><time>2026-03-22T09:37:11.577Z</time></trkpt><trkpt lat="45.2351426" lon="9.0337484"><ele>65.5</ele><time>2026-03-22T09:37:13.58Z</time></trkpt><trkpt lat="45.2352324" lon="9.0337895"><ele>66.0</ele><time>2026-03-22T09:37:16.578Z</time></trkpt><trkpt lat="45.235291" lon="9.0338339"><ele>66.0</ele><time>2026-03-22T09:37:18.574Z</time></trkpt><trkpt lat="45.2353445" lon="9.0338895"><ele>66.0</ele><time>2026-03-22T09:37:20.57Z</time></trkpt><trkpt lat="45.2354138" lon="9.0339342"><ele>66.0</ele><time>2026-03-22T09:37:22.655Z</time></trkpt><trkpt lat="45.2354734" lon="9.0339861"><ele>66.0</ele><time>2026-03-22T09:37:24.57Z</time></trkpt><trkpt lat="45.2355362" lon="9.0340604"><ele>66.0</ele><time>2026-03-22T09:37:26.58Z</time></trkpt><trkpt lat="45.2355981" lon="9.0341214"><ele>66.0</ele><time>2026-03-22T09:37:28.577Z</time></trkpt><trkpt lat="45.2356633" lon="9.0341782"><ele>66.0</ele><time>2026-03-22T09:37:30.577Z</time></trkpt><trkpt lat="45.2357209" lon="9.0342377"><ele>66.16666666666667</ele><time>2026-03-22T09:37:32.579Z</time></trkpt><trkpt lat="45.2357766" lon="9.0342868"><ele>66.33333333333333</ele><time>2026-03-22T09:37:34.571Z</time></trkpt><trkpt lat="45.235843" lon="9.0343484"><ele>66.5</ele><time>2026-03-22T09:37:36.57Z</time></trkpt><trkpt lat="45.2359217" lon="9.0344061"><ele>66.66666666666666</ele><time>2026-03-22T09:37:38.571Z</time></trkpt><trkpt lat="45.2359978" lon="9.0344521"><ele>66.83333333333333</ele><time>2026-03-22T09:37:40.574Z</time></trkpt><trkpt lat="45.2360569" lon="9.0345068"><ele>67.0</ele><time>2026-03-22T09:37:42.572Z</time></trkpt><trkpt lat="45.236116" lon="9.0345533"><ele>67.0</ele><time>2026-03-22T09:37:44.581Z</time></trkpt><trkpt lat="45.2361771" lon="9.0345876"><ele>67.0</ele><time>2026-03-22T09:37:46.573Z</time></trkpt><trkpt lat="45.2362338" lon="9.0346383"><ele>67.0</ele><time>2026-03-22T09:37:48.572Z</time></trkpt><trkpt lat="45.2362848" lon="9.0346959"><ele>67.0</ele><time>2026-03-22T09:37:50.57Z</time></trkpt><trkpt lat="45.2363396" lon="9.0347405"><ele>67.0</ele><time>2026-03-22T09:37:52.569Z</time></trkpt><trkpt lat="45.2363998" lon="9.0347922"><ele>67.0</ele><time>2026-03-22T09:37:55.578Z</time></trkpt><trkpt lat="45.2364095" lon="9.0348891"><ele>67.0</ele><time>2026-03-22T09:37:59.567Z</time></trkpt><trkpt lat="45.2364547" lon="9.0349595"><ele>67.33333333333333</ele><time>2026-03-22T09:38:02.658Z</time></trkpt><trkpt lat="45.2365137" lon="9.0350277"><ele>67.66666666666666</ele><time>2026-03-22T09:38:05.582Z</time></trkpt><trkpt lat="45.2365548" lon="9.0351075"><ele>68.0</ele><time>2026-03-22T09:38:08.567Z</time></trkpt><trkpt lat="45.2365464" lon="9.0352219"><ele>68.33333333333333</ele><time>2026-03-22T09:38:11.567Z</time></trkpt><trkpt lat="45.2365446" lon="9.0353164"><ele>68.66666666666667</ele><time>2026-03-22T09:38:13.571Z</time></trkpt><trkpt lat="45.2365509" lon="9.035439"><ele>69.0</ele><time>2026-03-22T09:38:16.576Z</time></trkpt><trkpt lat="45.2365392" lon="9.0355714"><ele>69.0</ele><time>2026-03-22T09:38:19.57Z</time></trkpt><trkpt lat="45.236523" lon="9.0356793"><ele>69.0</ele><time>2026-03-22T09:38:22.575Z</time></trkpt><trkpt lat="45.2365091" lon="9.0357826"><ele>69.0</ele><time>2026-03-22T09:41:27.582Z</time></trkpt><trkpt lat="45.236488" lon="9.035889"><ele>69.0</ele><time>2026-03-22T09:41:33.586Z</time></trkpt><trkpt lat="45.2364287" lon="9.0359495"><ele>69.0</ele><time>2026-03-22T09:41:36.569Z</time></trkpt><trkpt lat="45.236376" lon="9.0360326"><ele>69.0</ele><time>2026-03-22T09:41:39.573Z</time></trkpt><trkpt lat="45.2363333" lon="9.0361338"><ele>68.66666666666667</ele><time>2026-03-22T09:41:42.588Z</time></trkpt><trkpt lat="45.2362757" lon="9.0362209"><ele>68.33333333333333</ele><time>2026-03-22T09:41:45.585Z</time></trkpt><trkpt lat="45.2362277" lon="9.0363106"><ele>68.0</ele><time>2026-03-22T09:41:48.596Z</time></trkpt><trkpt lat="45.2361709" lon="9.0363955"><ele>67.66666666666666</ele><time>2026-03-22T09:41:51.591Z</time></trkpt><trkpt lat="45.2361097" lon="9.0364736"><ele>67.33333333333333</ele><time>2026-03-22T09:41:54.598Z</time></trkpt><trkpt lat="45.2360917" lon="9.0365663"><ele>67.0</ele><time>2026-03-22T09:41:57.568Z</time></trkpt><trkpt lat="45.2361126" lon="9.0366819"><ele>66.83333333333333</ele><time>2026-03-22T09:42:00.573Z</time></trkpt><trkpt lat="45.236145" lon="9.0367648"><ele>66.66666666666666</ele><time>2026-03-22T09:42:02.583Z</time></trkpt><trkpt lat="45.2361748" lon="9.036864"><ele>66.5</ele><time>2026-03-22T09:42:04.592Z</time></trkpt><trkpt lat="45.236153" lon="9.0369997"><ele>66.33333333333333</ele><time>2026-03-22T09:42:07.584Z</time></trkpt><trkpt lat="45.236131" lon="9.0370932"><ele>66.16666666666667</ele><time>2026-03-22T09:42:09.596Z</time></trkpt><trkpt lat="45.2360799" lon="9.0371989"><ele>66.0</ele><time>2026-03-22T09:42:12.589Z</time></trkpt><trkpt lat="45.2360352" lon="9.0373026"><ele>66.0</ele><time>2026-03-22T09:42:15.584Z</time></trkpt><trkpt lat="45.2359882" lon="9.0373797"><ele>66.0</ele><time>2026-03-22T09:42:17.583Z</time></trkpt><trkpt lat="45.2359071" lon="9.0374425"><ele>66.0</ele><time>2026-03-22T09:42:20.585Z</time></trkpt><trkpt lat="45.235845" lon="9.037482"><ele>66.0</ele><time>2026-03-22T09:42:22.575Z</time></trkpt><trkpt lat="45.2357853" lon="9.0375454"><ele>66.0</ele><time>2026-03-22T09:42:24.6Z</time></trkpt><trkpt lat="45.2357355" lon="9.0376293"><ele>66.0</ele><time>2026-03-22T09:42:26.584Z</time></trkpt><trkpt lat="45.2356915" lon="9.037706"><ele>66.16666666666667</ele><time>2026-03-22T09:42:28.591Z</time></trkpt><trkpt lat="45.2356561" lon="9.0377866"><ele>66.33333333333333</ele><time>2026-03-22T09:42:30.598Z</time></trkpt><trkpt lat="45.2356153" lon="9.0378827"><ele>66.5</ele><time>2026-03-22T09:42:33.586Z</time></trkpt><trkpt lat="45.2355589" lon="9.0379514"><ele>66.66666666666666</ele><time>2026-03-22T09:42:36.579Z</time></trkpt><trkpt lat="45.2354915" lon="9.0380375"><ele>66.83333333333333</ele><time>2026-03-22T09:42:39.68Z</time></trkpt><trkpt lat="45.235418" lon="9.0380329"><ele>67.0</ele><time>2026-03-22T09:42:41.58Z</time></trkpt><trkpt lat="45.2353516" lon="9.038008"><ele>67.0</ele><time>2026-03-22T09:42:43.583Z</time></trkpt><trkpt lat="45.2352672" lon="9.0380042"><ele>67.0</ele><time>2026-03-22T09:42:46.603Z</time></trkpt><trkpt lat="45.2351893" lon="9.0379869"><ele>67.0</ele><time>2026-03-22T09:42:49.597Z</time></trkpt><trkpt lat="45.2351129" lon="9.0379536"><ele>67.0</ele><time>2026-03-22T09:42:51.581Z</time></trkpt><trkpt lat="45.2350582" lon="9.0379067"><ele>67.0</ele><time>2026-03-22T09:42:53.581Z</time></trkpt><trkpt lat="45.2350065" lon="9.037846"><ele>67.0</ele><time>2026-03-22T09:42:55.598Z</time></trkpt><trkpt lat="45.2349522" lon="9.0377934"><ele>67.0</ele><time>2026-03-22T09:42:57.579Z</time></trkpt><trkpt lat="45.2349157" lon="9.0377181"><ele>67.0</ele><time>2026-03-22T09:43:00.587Z</time></trkpt><trkpt lat="45.2349097" lon="9.0375981"><ele>67.0</ele><time>2026-03-22T09:43:03.583Z</time></trkpt><trkpt lat="45.2349071" lon="9.0375002"><ele>67.0</ele><time>2026-03-22T09:43:06.594Z</time></trkpt><trkpt lat="45.2348215" lon="9.0374635"><ele>67.0</ele><time>2026-03-22T09:43:09.589Z</time></trkpt><trkpt lat="45.2347337" lon="9.0374594"><ele>67.0</ele><time>2026-03-22T09:43:11.584Z</time></trkpt><trkpt lat="45.2346582" lon="9.0374542"><ele>67.0</ele><time>2026-03-22T09:43:13.578Z</time></trkpt><trkpt lat="45.2345807" lon="9.0374226"><ele>66.85714285714286</ele><time>2026-03-22T09:43:15.591Z</time></trkpt><trkpt lat="45.2345164" lon="9.0374074"><ele>66.71428571428571</ele><time>2026-03-22T09:43:17.589Z</time></trkpt><trkpt lat="45.2344494" lon="9.0373926"><ele>66.57142857142857</ele><time>2026-03-22T09:43:19.6Z</time></trkpt><trkpt lat="45.234382" lon="9.0373824"><ele>66.42857142857143</ele><time>2026-03-22T09:43:21.577Z</time></trkpt><trkpt lat="45.2343071" lon="9.0373721"><ele>66.28571428571429</ele><time>2026-03-22T09:43:23.583Z</time></trkpt><trkpt lat="45.234239" lon="9.0373724"><ele>66.14285714285714</ele><time>2026-03-22T09:43:25.58Z</time></trkpt><trkpt lat="45.2341465" lon="9.0373917"><ele>66.0</ele><time>2026-03-22T09:43:28.594Z</time></trkpt><trkpt lat="45.2340815" lon="9.0373864"><ele>66.0</ele><time>2026-03-22T09:43:30.588Z</time></trkpt><trkpt lat="45.234018" lon="9.0373614"><ele>66.0</ele><time>2026-03-22T09:43:32.582Z</time></trkpt><trkpt lat="45.2339492" lon="9.0373605"><ele>66.0</ele><time>2026-03-22T09:43:34.595Z</time></trkpt><trkpt lat="45.233886" lon="9.0373399"><ele>66.0</ele><time>2026-03-22T09:43:36.577Z</time></trkpt><trkpt lat="45.2338183" lon="9.0373276"><ele>66.0</ele><time>2026-03-22T09:43:38.586Z</time></trkpt><trkpt lat="45.2337362" lon="9.0373373"><ele>66.0</ele><time>2026-03-22T09:43:41.596Z</time></trkpt><trkpt lat="45.2336966" lon="9.0374366"><ele>66.0</ele><time>2026-03-22T09:43:44.589Z</time></trkpt><trkpt lat="45.2337067" lon="9.0375314"><ele>65.8</ele><time>2026-03-22T09:43:47.58Z</time></trkpt><trkpt lat="45.2337376" lon="9.0376595"><ele>65.6</ele><time>2026-03-22T09:43:50.566Z</time></trkpt><trkpt lat="45.2337635" lon="9.0377832"><ele>65.4</ele><time>2026-03-22T09:43:53.575Z</time></trkpt><trkpt lat="45.2337776" lon="9.037916"><ele>65.2</ele><time>2026-03-22T09:43:56.571Z</time></trkpt><trkpt lat="45.2337901" lon="9.0380494"><ele>65.0</ele><time>2026-03-22T09:43:59.57Z</time></trkpt><trkpt lat="45.2337875" lon="9.038173"><ele>65.0</ele><time>2026-03-22T09:44:02.57Z</time></trkpt><trkpt lat="45.2337783" lon="9.0382974"><ele>65.0</ele><time>2026-03-22T09:44:05.576Z</time></trkpt><trkpt lat="45.2337578" lon="9.0384185"><ele>65.0</ele><time>2026-03-22T09:44:08.64Z</time></trkpt><trkpt lat="45.2337346" lon="9.038533"><ele>65.0</ele><time>2026-03-22T09:44:11.578Z</time></trkpt><trkpt lat="45.2337198" lon="9.0386425"><ele>65.0</ele><time>2026-03-22T09:44:14.568Z</time></trkpt><trkpt lat="45.2337059" lon="9.0387653"><ele>65.0</ele><time>2026-03-22T09:44:17.572Z</time></trkpt><trkpt lat="45.2336918" lon="9.0388691"><ele>65.00000000000001</ele><time>2026-03-22T09:44:20.573Z</time></trkpt><trkpt lat="45.2336851" lon="9.0389842"><ele>65.0</ele><time>2026-03-22T09:44:24.561Z</time></trkpt><trkpt lat="45.233688" lon="9.0390758"><ele>65.0</ele><time>2026-03-22T09:44:26.573Z</time></trkpt><trkpt lat="45.2336636" lon="9.0391856"><ele>65.0</ele><time>2026-03-22T09:44:29.576Z</time></trkpt><trkpt lat="45.2336401" lon="9.0392858"><ele>65.0</ele><time>2026-03-22T09:44:32.567Z</time></trkpt><trkpt lat="45.233643" lon="9.039395"><ele>65.00000000000001</ele><time>2026-03-22T09:44:37.574Z</time></trkpt><trkpt lat="45.233676" lon="9.0394827"><ele>65.0</ele><time>2026-03-22T09:44:40.574Z</time></trkpt><trkpt lat="45.2337345" lon="9.0395263"><ele>64.83333333333334</ele><time>2026-03-22T09:44:43.566Z</time></trkpt><trkpt lat="45.2338151" lon="9.0395506"><ele>64.66666666666667</ele><time>2026-03-22T09:44:46.581Z</time></trkpt><trkpt lat="45.2338923" lon="9.0396004"><ele>64.5</ele><time>2026-03-22T09:44:49.567Z</time></trkpt><trkpt lat="45.2339539" lon="9.0396541"><ele>64.33333333333333</ele><time>2026-03-22T09:44:52.586Z</time></trkpt><trkpt lat="45.2339759" lon="9.0397433"><ele>64.16666666666666</ele><time>2026-03-22T09:44:54.57Z</time></trkpt><trkpt lat="45.2339961" lon="9.0398665"><ele>64.0</ele><time>2026-03-22T09:44:57.572Z</time></trkpt><trkpt lat="45.2340151" lon="9.0399526"><ele>64.28571428571428</ele><time>2026-03-22T09:44:59.567Z</time></trkpt><trkpt lat="45.2340538" lon="9.040038"><ele>64.57142857142857</ele><time>2026-03-22T09:45:02.572Z</time></trkpt><trkpt lat="45.2341236" lon="9.0400749"><ele>64.85714285714286</ele><time>2026-03-22T09:45:05.57Z</time></trkpt><trkpt lat="45.2342035" lon="9.0400849"><ele>65.14285714285714</ele><time>2026-03-22T09:45:08.568Z</time></trkpt><trkpt lat="45.2342827" lon="9.0401095"><ele>65.42857142857143</ele><time>2026-03-22T09:45:11.571Z</time></trkpt><trkpt lat="45.2343463" lon="9.0401215"><ele>65.71428571428571</ele><time>2026-03-22T09:45:13.572Z</time></trkpt><trkpt lat="45.2344138" lon="9.0401363"><ele>66.0</ele><time>2026-03-22T09:45:15.581Z</time></trkpt><trkpt lat="45.2344947" lon="9.0401477"><ele>66.0</ele><time>2026-03-22T09:45:18.566Z</time></trkpt><trkpt lat="45.2345865" lon="9.0401572"><ele>66.0</ele><time>2026-03-22T09:45:21.584Z</time></trkpt><trkpt lat="45.2346669" lon="9.0401928"><ele>66.0</ele><time>2026-03-22T09:45:24.568Z</time></trkpt><trkpt lat="45.2347535" lon="9.0402165"><ele>66.0</ele><time>2026-03-22T09:45:27.571Z</time></trkpt><trkpt lat="45.2348447" lon="9.0402246"><ele>66.0</ele><time>2026-03-22T09:45:30.567Z</time></trkpt><trkpt lat="45.2349138" lon="9.0402083"><ele>66.0</ele><time>2026-03-22T09:45:32.562Z</time></trkpt><trkpt lat="45.2349869" lon="9.0401974"><ele>66.16666666666667</ele><time>2026-03-22T09:45:34.576Z</time></trkpt><trkpt lat="45.2350575" lon="9.0401755"><ele>66.33333333333333</ele><time>2026-03-22T09:45:36.585Z</time></trkpt><trkpt lat="45.2351298" lon="9.04015"><ele>66.5</ele><time>2026-03-22T09:45:38.569Z</time></trkpt><trkpt lat="45.2351947" lon="9.0401293"><ele>66.66666666666666</ele><time>2026-03-22T09:45:40.573Z</time></trkpt><trkpt lat="45.2352751" lon="9.0400876"><ele>66.83333333333333</ele><time>2026-03-22T09:45:43.584Z</time></trkpt><trkpt lat="45.2353527" lon="9.0400515"><ele>67.0</ele><time>2026-03-22T09:45:46.574Z</time></trkpt><trkpt lat="45.2354193" lon="9.040001"><ele>67.33333333333333</ele><time>2026-03-22T09:45:49.58Z</time></trkpt><trkpt lat="45.2354893" lon="9.0399488"><ele>67.66666666666666</ele><time>2026-03-22T09:45:52.569Z</time></trkpt><trkpt lat="45.2355622" lon="9.0398868"><ele>68.0</ele><time>2026-03-22T09:45:55.571Z</time></trkpt><trkpt lat="45.2356284" lon="9.0398226"><ele>68.33333333333333</ele><time>2026-03-22T09:45:58.572Z</time></trkpt><trkpt lat="45.235694" lon="9.0397935"><ele>68.66666666666667</ele><time>2026-03-22T09:46:00.568Z</time></trkpt><trkpt lat="45.2357703" lon="9.0397646"><ele>69.0</ele><time>2026-03-22T09:46:03.568Z</time></trkpt><trkpt lat="45.2358636" lon="9.0397352"><ele>69.16666666666667</ele><time>2026-03-22T09:46:06.582Z</time></trkpt><trkpt lat="45.2359329" lon="9.0396993"><ele>69.33333333333333</ele><time>2026-03-22T09:46:08.568Z</time></trkpt><trkpt lat="45.2360162" lon="9.039677"><ele>69.5</ele><time>2026-03-22T09:46:11.571Z</time></trkpt><trkpt lat="45.2360843" lon="9.0396647"><ele>69.66666666666666</ele><time>2026-03-22T09:46:14.587Z</time></trkpt><trkpt lat="45.236141" lon="9.0396108"><ele>69.83333333333333</ele><time>2026-03-22T09:46:17.57Z</time></trkpt><trkpt lat="45.2362094" lon="9.039545"><ele>70.0</ele><time>2026-03-22T09:46:20.595Z</time></trkpt><trkpt lat="45.2362677" lon="9.0394467"><ele>70.0</ele><time>2026-03-22T09:46:23.58Z</time></trkpt><trkpt lat="45.2363141" lon="9.0393802"><ele>70.0</ele><time>2026-03-22T09:46:25.587Z</time></trkpt><trkpt lat="45.2363567" lon="9.0393014"><ele>70.0</ele><time>2026-03-22T09:46:27.59Z</time></trkpt><trkpt lat="45.2363755" lon="9.0392139"><ele>70.0</ele><time>2026-03-22T09:46:29.581Z</time></trkpt><trkpt lat="45.2364143" lon="9.0391141"><ele>70.0</ele><time>2026-03-22T09:46:32.594Z</time></trkpt><trkpt lat="45.2364279" lon="9.0389992"><ele>70.0</ele><time>2026-03-22T09:46:35.592Z</time></trkpt><trkpt lat="45.2364086" lon="9.0388917"><ele>70.0</ele><time>2026-03-22T09:46:38.575Z</time></trkpt><trkpt lat="45.2364098" lon="9.0387976"><ele>70.0</ele><time>2026-03-22T09:46:40.599Z</time></trkpt><trkpt lat="45.2364388" lon="9.0386777"><ele>70.0</ele><time>2026-03-22T09:46:43.578Z</time></trkpt><trkpt lat="45.2364589" lon="9.0385899"><ele>70.0</ele><time>2026-03-22T09:46:45.589Z</time></trkpt><trkpt lat="45.2364536" lon="9.0384956"><ele>70.0</ele><time>2026-03-22T09:46:48.589Z</time></trkpt><trkpt lat="45.2364616" lon="9.0383932"><ele>70.0</ele><time>2026-03-22T09:46:51.58Z</time></trkpt><trkpt lat="45.2364247" lon="9.0382875"><ele>70.0</ele><time>2026-03-22T09:46:55.587Z</time></trkpt><trkpt lat="45.2363786" lon="9.0382237"><ele>70.0</ele><time>2026-03-22T09:46:57.592Z</time></trkpt><trkpt lat="45.2363305" lon="9.0381633"><ele>69.66666666666666</ele><time>2026-03-22T09:46:59.596Z</time></trkpt><trkpt lat="45.2362765" lon="9.0381007"><ele>69.33333333333333</ele><time>2026-03-22T09:47:01.602Z</time></trkpt><trkpt lat="45.2362208" lon="9.0379913"><ele>69.0</ele><time>2026-03-22T09:47:04.576Z</time></trkpt><trkpt lat="45.236196" lon="9.0378883"><ele>68.66666666666667</ele><time>2026-03-22T09:47:06.583Z</time></trkpt><trkpt lat="45.2361933" lon="9.0377617"><ele>68.33333333333334</ele><time>2026-03-22T09:47:09.578Z</time></trkpt><trkpt lat="45.2362201" lon="9.0376784"><ele>68.0</ele><time>2026-03-22T09:47:11.585Z</time></trkpt><trkpt lat="45.2362563" lon="9.0375986"><ele>68.0</ele><time>2026-03-22T09:47:13.589Z</time></trkpt><trkpt lat="45.2362566" lon="9.0374916"><ele>68.0</ele><time>2026-03-22T09:47:16.584Z</time></trkpt><trkpt lat="45.2361945" lon="9.0374008"><ele>68.0</ele><time>2026-03-22T09:47:19.577Z</time></trkpt><trkpt lat="45.236129" lon="9.037366"><ele>68.0</ele><time>2026-03-22T09:47:21.587Z</time></trkpt><trkpt lat="45.2360796" lon="9.0373084"><ele>68.0</ele><time>2026-03-22T09:47:23.586Z</time></trkpt><trkpt lat="45.2360935" lon="9.0371978"><ele>68.0</ele><time>2026-03-22T09:47:27.561Z</time></trkpt><trkpt lat="45.2361372" lon="9.0370918"><ele>67.66666666666667</ele><time>2026-03-22T09:47:30.574Z</time></trkpt><trkpt lat="45.2361635" lon="9.0369986"><ele>67.33333333333334</ele><time>2026-03-22T09:47:32.577Z</time></trkpt><trkpt lat="45.2361627" lon="9.0368849"><ele>67.0</ele><time>2026-03-22T09:47:35.568Z</time></trkpt><trkpt lat="45.236126" lon="9.0367683"><ele>66.66666666666667</ele><time>2026-03-22T09:47:38.575Z</time></trkpt><trkpt lat="45.2360704" lon="9.0366917"><ele>66.33333333333333</ele><time>2026-03-22T09:47:41.578Z</time></trkpt><trkpt lat="45.2360056" lon="9.0367085"><ele>66.0</ele><time>2026-03-22T09:47:44.566Z</time></trkpt><trkpt lat="45.2359524" lon="9.0367923"><ele>66.0</ele><time>2026-03-22T09:47:47.644Z</time></trkpt><trkpt lat="45.2358831" lon="9.0368764"><ele>66.0</ele><time>2026-03-22T09:47:50.567Z</time></trkpt><trkpt lat="45.2358237" lon="9.0369305"><ele>66.0</ele><time>2026-03-22T09:47:52.58Z</time></trkpt><trkpt lat="45.2357815" lon="9.0370021"><ele>66.0</ele><time>2026-03-22T09:47:54.57Z</time></trkpt><trkpt lat="45.2357419" lon="9.0370759"><ele>66.0</ele><time>2026-03-22T09:47:56.569Z</time></trkpt><trkpt lat="45.2356847" lon="9.0371838"><ele>66.0</ele><time>2026-03-22T09:47:59.647Z</time></trkpt><trkpt lat="45.2356332" lon="9.0372375"><ele>67.0</ele><time>2026-03-22T09:48:01.568Z</time></trkpt></trkseg></trk></gpx>